[[{"header":{"parameterUnit":"m.s-1","parameterCategory":1,"la1":30.6,"la2":29.2853,"lo1":-89.7004,"lo2":-87.6739,"dy":0.0162,"dx":0.0183,"nx":112,"ny":82,"refTime":"2024-06-19T06:00:00:Z","depth":0,"parameterNumber":2,"parameterNumberName":"U-component_of_WINDS"},"data":[0.0,0.0,0.0,0.0,0.0,0.0,0.0,0.0,0.0,0.0,0.0,0.0,0.0,0.0,0.0,0.0,0.0,0.0,0.0,0.0,0.0,0.0,0.0,0.0,0.0,0.0,0.0,0.0,0.0,0.0,0.0,0.0,0.0,0.0,0.0,0.0,0.0,0.0,0.0,0.0,0.0,0.0,0.0,0.0,0.0,0.0,0.0,0.0,0.0,0.0,0.0,0.0,0.0,0.0,0.0,0.0,0.0,0.0,0.0,0.0,0.0,0.0,0.0,0.0,0.0,0.0,0.0,0.0,0.0,0.0,0.0,0.0,0.0,0.0,0.0,0.0,0.0,0.0,0.0,0.0,0.0,0.0,0.0,0.0,0.0,0.0,0.0,0.0,0.0,0.0,0.0,-3.4438,-3.7889,-4.0417,-4.1136,-3.9732,-3.6958,-3.2581,0.0,0.0,0.0,0.0,0.0,0.0,0.0,0.0,0.0,0.0,0.0,0.0,0.0,0.0,0.0,0.0,0.0,0.0,0.0,0.0,0.0,0.0,0.0,0.0,0.0,0.0,0.0,0.0,0.0,0.0,0.0,0.0,0.0,0.0,0.0,0.0,0.0,0.0,0.0,0.0,0.0,0.0,0.0,0.0,0.0,0.0,0.0,0.0,0.0,0.0,0.0,0.0,0.0,0.0,0.0,0.0,0.0,0.0,0.0,0.0,0.0,0.0,0.0,0.0,0.0,0.0,0.0,0.0,0.0,0.0,0.0,0.0,0.0,0.0,0.0,0.0,0.0,0.0,0.0,0.0,0.0,0.0,0.0,0.0,0.0,0.0,0.0,0.0,0.0,0.0,0.0,0.0,0.0,0.0,0.0,0.0,0.0,0.0,0.0,0.0,0.0,0.0,0.0,0.0,-3.3592,-3.9411,-4.0054,-4.0417,-4.1136,-3.9276,-3.6417,-3.2547,0.0,0.0,0.0,0.0,0.0,0.0,0.0,0.0,0.0,0.0,0.0,0.0,0.0,0.0,0.0,0.0,0.0,0.0,0.0,0.0,0.0,0.0,0.0,0.0,0.0,0.0,0.0,0.0,0.0,0.0,0.0,0.0,0.0,0.0,0.0,0.0,0.0,0.0,0.0,0.0,0.0,0.0,0.0,0.0,0.0,0.0,0.0,0.0,0.0,0.0,0.0,0.0,0.0,0.0,0.0,0.0,0.0,0.0,0.0,0.0,0.0,0.0,0.0,0.0,0.0,0.0,0.0,0.0,0.0,0.0,0.0,0.0,0.0,0.0,0.0,0.0,0.0,0.0,0.0,0.0,0.0,0.0,0.0,0.0,0.0,0.0,0.0,0.0,0.0,0.0,0.0,0.0,0.0,0.0,0.0,0.0,0.0,0.0,0.0,0.0,0.0,0.0,0.0,-3.1782,-3.4506,-4.0003,-4.0316,-4.0248,-4.0561,-3.8937,-3.6299,-3.2547,-3.055,0.0,0.0,0.0,0.0,0.0,0.0,0.0,0.0,0.0,0.0,0.0,0.0,0.0,0.0,0.0,0.0,0.0,0.0,0.0,0.0,0.0,0.0,0.0,0.0,0.0,0.0,0.0,0.0,0.0,0.0,0.0,0.0,0.0,0.0,0.0,0.0,0.0,0.0,0.0,0.0,0.0,0.0,0.0,0.0,0.0,0.0,0.0,0.0,0.0,0.0,0.0,0.0,0.0,0.0,0.0,0.0,0.0,0.0,0.0,0.0,0.0,0.0,0.0,0.0,0.0,0.0,0.0,0.0,0.0,0.0,0.0,0.0,0.0,0.0,0.0,0.0,0.0,0.0,0.0,0.0,0.0,0.0,0.0,0.0,0.0,0.0,0.0,0.0,0.0,0.0,0.0,0.0,0.0,0.0,0.0,0.0,0.0,0.0,0.0,0.0,0.0,0.0,-3.415,-3.591,-3.9706,-4.0096,-4.0096,-4.0096,-3.8244,-3.5656,-3.2259,-2.9467,0.0,0.0,0.0,0.0,0.0,0.0,0.0,0.0,0.0,0.0,0.0,0.0,0.0,0.0,0.0,0.0,0.0,0.0,0.0,0.0,0.0,0.0,0.0,0.0,0.0,0.0,0.0,0.0,0.0,0.0,0.0,0.0,0.0,0.0,0.0,0.0,0.0,0.0,0.0,0.0,0.0,0.0,0.0,0.0,0.0,0.0,0.0,0.0,0.0,0.0,0.0,0.0,0.0,0.0,0.0,0.0,0.0,0.0,0.0,0.0,0.0,0.0,0.0,0.0,0.0,0.0,0.0,0.0,0.0,0.0,0.0,0.0,0.0,0.0,0.0,0.0,0.0,0.0,0.0,0.0,0.0,0.0,0.0,0.0,0.0,0.0,0.0,0.0,0.0,0.0,0.0,0.0,0.0,0.0,0.0,0.0,0.0,0.0,0.0,0.0,0.0,0.0,-3.503,-3.8227,-3.9926,-4.0096,-4.0096,-4.0096,-3.6812,-3.3744,-3.141,-2.7216,0.0,0.0,0.0,0.0,0.0,0.0,0.0,0.0,0.0,0.0,0.0,0.0,0.0,0.0,0.0,0.0,0.0,0.0,0.0,0.0,0.0,0.0,0.0,0.0,0.0,0.0,0.0,0.0,0.0,0.0,0.0,0.0,0.0,0.0,0.0,0.0,0.0,0.0,0.0,0.0,0.0,0.0,0.0,0.0,0.0,0.0,0.0,0.0,0.0,0.0,0.0,0.0,0.0,0.0,0.0,0.0,0.0,0.0,0.0,0.0,0.0,0.0,0.0,0.0,0.0,0.0,0.0,0.0,0.0,0.0,0.0,0.0,0.0,0.0,0.0,0.0,0.0,0.0,0.0,0.0,0.0,0.0,0.0,0.0,0.0,0.0,0.0,0.0,0.0,0.0,0.0,0.0,0.0,0.0,0.0,0.0,0.0,0.0,0.0,0.0,0.0,0.0,-3.388,-3.6874,0.0,-4.0096,-4.0096,-4.0096,-3.7956,-3.5064,-3.1427,0.0,0.0,0.0,0.0,0.0,0.0,0.0,0.0,0.0,0.0,0.0,0.0,0.0,0.0,0.0,0.0,0.0,0.0,0.0,0.0,0.0,0.0,0.0,0.0,0.0,0.0,0.0,0.0,0.0,0.0,0.0,0.0,0.0,0.0,0.0,0.0,0.0,0.0,0.0,0.0,0.0,0.0,0.0,0.0,0.0,0.0,0.0,0.0,0.0,0.0,0.0,0.0,0.0,0.0,0.0,0.0,0.0,0.0,0.0,0.0,0.0,0.0,0.0,0.0,0.0,0.0,0.0,0.0,0.0,0.0,0.0,0.0,0.0,0.0,0.0,0.0,0.0,0.0,0.0,0.0,0.0,0.0,0.0,0.0,0.0,0.0,0.0,0.0,0.0,0.0,0.0,0.0,0.0,0.0,0.0,0.0,0.0,0.0,0.0,0.0,0.0,0.0,-3.0768,-3.3761,-3.6738,0.0,-4.0096,-4.0096,-4.0096,-3.7872,-3.4962,-3.141,0.0,0.0,0.0,0.0,0.0,0.0,0.0,0.0,0.0,0.0,0.0,0.0,0.0,0.0,0.0,0.0,0.0,0.0,0.0,0.0,0.0,0.0,0.0,0.0,0.0,0.0,0.0,0.0,0.0,0.0,0.0,0.0,0.0,0.0,0.0,0.0,0.0,0.0,0.0,0.0,0.0,0.0,0.0,0.0,0.0,0.0,0.0,0.0,0.0,0.0,0.0,0.0,0.0,0.0,0.0,0.0,0.0,0.0,0.0,0.0,0.0,0.0,0.0,0.0,0.0,0.0,0.0,0.0,0.0,0.0,0.0,0.0,0.0,0.0,0.0,0.0,0.0,0.0,0.0,0.0,0.0,0.0,0.0,0.0,0.0,0.0,0.0,0.0,0.0,0.0,0.0,0.0,0.0,0.0,0.0,0.0,0.0,0.0,0.0,0.0,0.0,0.0,-3.0903,-3.5115,-3.8464,-3.9943,-4.0096,-4.0096,-4.0096,-3.6011,-3.2797,0.0,0.0,0.0,0.0,0.0,0.0,0.0,0.0,0.0,0.0,0.0,0.0,0.0,0.0,0.0,0.0,0.0,0.0,0.0,0.0,0.0,0.0,0.0,0.0,0.0,0.0,0.0,0.0,0.0,0.0,0.0,0.0,0.0,0.0,0.0,0.0,0.0,0.0,0.0,0.0,0.0,0.0,0.0,0.0,0.0,0.0,0.0,0.0,0.0,0.0,0.0,0.0,0.0,0.0,0.0,0.0,0.0,0.0,0.0,0.0,0.0,0.0,0.0,0.0,0.0,0.0,0.0,0.0,0.0,0.0,0.0,0.0,0.0,0.0,0.0,0.0,0.0,0.0,0.0,0.0,0.0,0.0,0.0,0.0,0.0,0.0,0.0,0.0,0.0,0.0,0.0,0.0,0.0,0.0,0.0,0.0,0.0,0.0,0.0,0.0,0.0,0.0,0.0,-3.0903,-3.5115,-3.8464,-3.9943,-4.0096,-4.0096,-4.0096,-3.7472,-3.4493,-3.1376,0.0,0.0,0.0,0.0,0.0,0.0,0.0,0.0,0.0,0.0,0.0,0.0,0.0,0.0,0.0,0.0,0.0,0.0,0.0,0.0,0.0,0.0,0.0,0.0,0.0,0.0,0.0,0.0,0.0,0.0,0.0,0.0,0.0,0.0,0.0,0.0,0.0,0.0,0.0,0.0,0.0,0.0,0.0,0.0,0.0,0.0,0.0,0.0,0.0,0.0,0.0,0.0,0.0,0.0,0.0,0.0,0.0,0.0,0.0,0.0,0.0,0.0,0.0,0.0,0.0,0.0,0.0,0.0,0.0,0.0,0.0,0.0,0.0,0.0,0.0,0.0,0.0,0.0,0.0,0.0,0.0,0.0,0.0,0.0,0.0,0.0,0.0,0.0,0.0,0.0,0.0,0.0,0.0,0.0,0.0,0.0,0.0,0.0,0.0,0.0,0.0,0.0,-3.0869,-3.5115,-3.8464,-3.9943,-4.0096,-4.0096,-4.0096,-3.8065,-3.5323,-3.187,0.0,0.0,0.0,0.0,0.0,0.0,0.0,0.0,0.0,0.0,0.0,0.0,0.0,0.0,0.0,0.0,0.0,0.0,0.0,0.0,0.0,0.0,0.0,0.0,0.0,0.0,0.0,0.0,0.0,0.0,0.0,0.0,0.0,0.0,0.0,0.0,0.0,0.0,0.0,0.0,0.0,0.0,0.0,0.0,0.0,0.0,0.0,0.0,0.0,0.0,0.0,0.0,0.0,0.0,0.0,0.0,0.0,0.0,0.0,0.0,0.0,0.0,0.0,0.0,0.0,0.0,0.0,0.0,0.0,0.0,0.0,0.0,0.0,0.0,0.0,0.0,0.0,0.0,0.0,0.0,0.0,0.0,0.0,0.0,0.0,0.0,0.0,0.0,0.0,0.0,0.0,0.0,0.0,0.0,0.0,0.0,0.0,0.0,0.0,0.0,0.0,0.0,-3.0818,-3.5115,-3.8464,-3.9943,-4.0096,-4.0096,-4.0096,-3.8065,-3.5543,-3.2598,0.0,0.0,0.0,0.0,0.0,0.0,0.0,0.0,0.0,0.0,0.0,0.0,0.0,0.0,0.0,0.0,0.0,0.0,0.0,0.0,0.0,0.0,0.0,0.0,0.0,0.0,0.0,0.0,0.0,0.0,0.0,0.0,0.0,0.0,0.0,0.0,0.0,0.0,0.0,0.0,0.0,0.0,0.0,0.0,0.0,0.0,0.0,0.0,0.0,0.0,0.0,0.0,0.0,0.0,0.0,0.0,0.0,0.0,0.0,0.0,-3.1325,0.0,0.0,0.0,0.0,0.0,0.0,0.0,0.0,0.0,0.0,0.0,0.0,0.0,0.0,0.0,0.0,0.0,0.0,0.0,0.0,0.0,0.0,0.0,0.0,0.0,0.0,0.0,0.0,0.0,0.0,0.0,0.0,0.0,0.0,0.0,0.0,0.0,0.0,0.0,0.0,0.0,-3.0886,-3.5115,-3.8464,-3.9943,-4.0096,-4.0096,-4.0096,-3.8065,-3.5763,-3.3322,-2.9093,0.0,0.0,0.0,0.0,0.0,0.0,0.0,0.0,0.0,0.0,0.0,0.0,0.0,0.0,0.0,0.0,0.0,0.0,0.0,0.0,0.0,0.0,0.0,0.0,0.0,0.0,0.0,0.0,0.0,0.0,0.0,0.0,0.0,0.0,0.0,0.0,0.0,0.0,0.0,0.0,0.0,0.0,0.0,0.0,0.0,0.0,0.0,0.0,0.0,0.0,0.0,0.0,0.0,0.0,0.0,0.0,0.0,0.0,0.0,0.0,-3.2765,0.0,0.0,0.0,0.0,0.0,0.0,0.0,0.0,0.0,0.0,0.0,0.0,0.0,0.0,0.0,0.0,0.0,0.0,0.0,0.0,0.0,0.0,0.0,0.0,0.0,0.0,0.0,0.0,0.0,0.0,0.0,0.0,0.0,0.0,0.0,0.0,0.0,0.0,0.0,0.0,-3.1396,-3.5334,-3.8464,-3.9943,-4.0096,-3.996,-3.9605,-3.8176,-3.6349,-3.4066,-3.0734,0.0,0.0,0.0,0.0,0.0,0.0,0.0,0.0,0.0,0.0,0.0,0.0,0.0,0.0,0.0,0.0,0.0,0.0,0.0,0.0,0.0,0.0,0.0,0.0,0.0,0.0,0.0,0.0,0.0,0.0,0.0,0.0,0.0,0.0,0.0,0.0,0.0,0.0,0.0,0.0,0.0,0.0,0.0,0.0,0.0,0.0,0.0,0.0,0.0,0.0,0.0,0.0,0.0,0.0,-4.1086,-4.1721,-4.2066,-4.2142,-4.1848,-3.8794,-3.7392,-3.7076,0.0,0.0,0.0,0.0,0.0,0.0,0.0,0.0,0.0,0.0,0.0,0.0,0.0,0.0,0.0,0.0,0.0,0.0,0.0,0.0,0.0,0.0,0.0,0.0,0.0,-3.7628,-3.7729,0.0,0.0,0.0,0.0,0.0,0.0,0.0,0.0,0.0,0.0,0.0,0.0,-3.231,-3.5842,-3.8616,-3.996,-4.0096,-3.9808,-3.9056,-3.8328,-3.6992,-3.4827,-3.2493,-3.0023,0.0,0.0,0.0,0.0,0.0,0.0,0.0,0.0,0.0,0.0,0.0,0.0,0.0,0.0,0.0,0.0,0.0,0.0,0.0,0.0,0.0,0.0,0.0,0.0,0.0,0.0,0.0,0.0,0.0,0.0,0.0,0.0,-2.7601,-2.95,0.0,0.0,0.0,0.0,0.0,0.0,0.0,0.0,0.0,0.0,0.0,0.0,0.0,0.0,-4.0942,-4.3242,-4.4502,-4.4733,-4.6225,-4.6802,-4.659,-4.6636,-4.6312,-4.5674,-4.5199,0.0,-3.939,-3.8319,0.0,0.0,0.0,0.0,0.0,0.0,0.0,0.0,0.0,0.0,0.0,0.0,0.0,0.0,0.0,0.0,0.0,0.0,0.0,0.0,0.0,0.0,-4.1167,-4.0453,-4.0545,-4.038,0.0,-3.5651,-3.2379,-3.0166,0.0,0.0,0.0,0.0,0.0,0.0,0.0,0.0,-3.3897,-3.6924,-3.9157,-4.0011,-4.0096,-3.9808,-3.9056,-3.8328,-3.7212,-3.5549,-3.278,-3.0734,-2.9702,-2.6352,0.0,0.0,0.0,0.0,0.0,0.0,0.0,0.0,0.0,0.0,0.0,0.0,0.0,0.0,0.0,0.0,0.0,0.0,0.0,0.0,0.0,0.0,0.0,0.0,0.0,0.0,0.0,0.0,0.0,-2.7121,-3.0314,-3.1038,-3.1621,-3.1454,0.0,0.0,0.0,0.0,0.0,0.0,0.0,0.0,0.0,-4.2893,-4.3374,-4.4605,-4.6778,-4.7922,-4.8587,-4.8813,-4.933,-4.9603,-4.9638,-4.9442,-4.9182,-4.8846,-4.8402,-4.6837,-4.4415,-4.1809,-3.935,-3.7092,0.0,0.0,0.0,0.0,0.0,-3.5661,-3.7826,0.0,0.0,0.0,0.0,0.0,0.0,0.0,0.0,0.0,0.0,0.0,0.0,0.0,0.0,-4.2323,-4.2451,-4.2341,-4.2009,-4.0077,-3.7416,0.0,-3.3683,-3.2403,-2.7956,0.0,0.0,0.0,0.0,0.0,-3.5531,-3.7675,-3.9276,-4.0028,-4.0096,-3.9639,-3.8481,-3.8091,-3.7222,-3.5701,-3.3609,-3.2104,-3.136,-2.857,-2.5929,0.0,0.0,0.0,0.0,0.0,0.0,0.0,0.0,0.0,0.0,0.0,0.0,0.0,0.0,0.0,0.0,0.0,0.0,0.0,0.0,0.0,0.0,0.0,0.0,0.0,0.0,0.0,0.0,-3.0115,-3.2756,-3.2949,-3.4468,-3.4757,0.0,0.0,0.0,0.0,0.0,0.0,-4.1104,-4.2008,-4.4201,-4.8058,-4.8173,-4.9144,-5.1167,-5.1288,-5.1442,-5.1631,-5.1328,-5.128,-5.1476,-5.1102,-5.0885,-5.0765,-5.016,-4.9407,-4.8379,-4.4947,-4.258,-4.1001,-3.9808,-3.8836,-3.8303,-3.9717,-3.9863,-3.9698,-4.2323,-4.2561,-4.1552,-4.0561,0.0,-3.8542,-3.6101,0.0,0.0,0.0,0.0,-3.8046,-4.0249,0.0,-4.2029,-4.3222,-4.3515,-4.3515,-4.3515,-4.302,-4.1594,0.0,-3.8113,-3.7029,-3.1971,0.0,0.0,0.0,0.0,-3.5475,-3.7146,-3.8505,-3.9503,-4.0045,-4.0096,-3.9503,-3.8041,-3.7905,-3.7178,-3.5436,-3.4095,-3.3068,-3.2327,-3.0364,-2.8045,-2.5405,0.0,0.0,0.0,0.0,0.0,0.0,0.0,0.0,0.0,0.0,0.0,0.0,0.0,0.0,0.0,0.0,0.0,0.0,0.0,0.0,0.0,0.0,0.0,0.0,0.0,0.0,0.0,0.0,0.0,-3.6365,-3.7988,0.0,0.0,0.0,0.0,-3.8861,-4.0527,-4.2962,-4.6327,-4.7278,-4.8933,-5.1577,-5.1654,-5.1921,-5.2495,-5.288,-5.29,-5.2527,-5.2501,-5.2308,-5.1948,-5.1493,-5.1102,-5.0802,-5.0765,-5.027,-4.9408,-4.7609,-4.5902,-4.4434,-4.4361,-4.3846,-4.3239,-4.4103,-4.4361,-4.447,-4.5406,-4.469,-4.3479,-4.4195,-4.2323,-3.9808,-3.9643,-3.8539,0.0,0.0,-4.0249,-4.1242,-4.2892,-4.3349,-4.3387,-4.3478,-4.3515,-4.3515,-4.3515,-4.3478,-4.3149,0.0,-4.0802,-3.9349,-3.788,0.0,-3.5858,-3.6093,-3.6422,-3.7208,-3.8708,-3.9571,-4.0062,-4.0096,-4.0096,-3.9503,-3.8041,-3.7905,-3.6941,-3.4692,-3.3829,-3.3068,-3.2327,-3.0852,-2.9277,-2.7672,-2.549,0.0,0.0,0.0,0.0,0.0,0.0,0.0,0.0,0.0,0.0,0.0,0.0,0.0,0.0,0.0,0.0,0.0,0.0,0.0,0.0,0.0,0.0,0.0,0.0,0.0,0.0,0.0,0.0,-3.9885,-4.197,0.0,-4.0585,-4.1123,-4.2316,-4.4066,-4.522,-4.7096,-4.9962,-5.0385,-5.1491,-5.351,-5.3568,-5.39,-5.4588,-5.4475,-5.4211,-5.3815,-5.3518,-5.317,-5.2771,-5.2596,-5.2453,-5.2325,-5.1793,-5.1408,-5.1061,-4.9939,-4.8195,-4.6195,-4.5681,-4.5296,-4.5076,-4.5369,-4.548,-4.5516,-4.5792,-4.5516,-4.5002,-4.4782,-4.392,-4.2892,-4.2359,-4.1825,-4.1477,-4.2064,-4.2415,-4.2782,-4.3349,-4.3515,-4.3515,-4.3515,-4.3515,-4.3515,-4.3515,-4.3515,-4.3423,-4.313,-4.2615,-4.1505,-3.9271,-3.9193,-3.8965,-3.7443,-3.8025,-3.8926,-3.9621,-3.9943,-4.0096,-4.0096,-4.0096,-3.9503,-3.8041,-3.7449,-3.6417,-3.4607,-3.2916,-3.1867,-3.1616,-3.0194,-2.867,-2.7131,-2.6319,-2.422,0.0,0.0,0.0,0.0,0.0,0.0,0.0,0.0,0.0,0.0,0.0,0.0,0.0,0.0,0.0,0.0,0.0,0.0,0.0,0.0,0.0,0.0,0.0,0.0,0.0,0.0,-4.1585,-4.2181,-4.4989,-4.622,-4.4547,-4.5643,-4.7048,-4.8481,-4.9077,-5.0375,-5.2664,-5.2779,-5.3433,-5.4857,-5.4759,-5.4886,-5.5275,-5.5034,-5.4686,-5.4255,-5.3941,-5.3663,-5.3402,-5.3272,-5.3185,-5.3167,-5.2637,-5.2252,-5.1958,-5.1426,-5.0086,-4.8268,-4.7462,-4.715,-4.7113,-4.6819,-4.6709,-4.6673,-4.6397,-4.6305,-4.6177,-4.5369,-4.5112,-4.4947,-4.414,-4.3901,-4.3846,-4.3588,-4.3515,-4.3515,-4.3515,-4.3515,-4.3515,-4.3515,-4.3515,-4.3515,-4.3515,-4.3515,-4.3515,-4.3515,-4.3515,-4.2844,-4.0799,-4.1048,-4.0884,-3.9003,-3.9353,-3.9901,-4.0078,-4.0096,-4.0096,-4.0096,-4.0096,-3.9503,-3.8041,-3.7212,-3.6051,-3.4235,-3.251,-3.1343,-3.0852,-2.9888,-2.8653,-2.7097,-2.659,-2.5,-2.2307,0.0,0.0,0.0,0.0,0.0,0.0,0.0,0.0,0.0,0.0,0.0,0.0,0.0,0.0,0.0,0.0,0.0,0.0,0.0,0.0,0.0,0.0,0.0,-3.8161,-4.1085,-4.3258,-4.3335,-4.6971,-4.8856,-4.725,-4.9336,-5.1106,-5.1923,-5.1981,-5.2731,-5.4491,-5.4568,-5.4953,-5.5761,-5.5395,-5.5014,-5.4626,-5.461,-5.4364,-5.3907,-5.387,-5.3833,-5.3796,-5.338,-5.3185,-5.3185,-5.3185,-5.2766,-5.2032,-5.2032,-5.1573,-5.0784,-4.9978,-4.9629,-4.95,-4.8655,-4.8324,-4.8196,-4.7406,-4.7131,-4.7003,-4.6195,-4.5938,-4.5792,-4.4984,-4.4745,-4.458,-4.3791,-4.357,-4.3551,-4.3551,-4.3533,-4.3515,-4.3515,-4.3515,-4.3515,-4.3515,-4.3515,-4.3515,-4.3515,-4.3515,-4.3321,-4.2826,-4.2223,-4.1621,-4.1041,-4.0497,0.0,-4.0146,-4.0146,-4.0121,-4.0121,-4.0096,-3.9503,-3.8041,-3.7212,-3.5847,-3.3541,-3.2679,-3.1596,-3.0176,-3.0072,-2.9362,-2.7874,-2.6404,-2.5304,-2.4558,0.0,0.0,0.0,0.0,0.0,0.0,0.0,0.0,0.0,0.0,0.0,0.0,0.0,0.0,0.0,0.0,0.0,0.0,0.0,0.0,0.0,-3.9315,-4.17,-4.17,-4.4105,-4.6547,-4.8394,-5.0144,-5.1269,-5.1452,-5.2106,-5.2876,-5.3722,-5.3799,-5.4511,-5.6233,-5.631,-5.6703,-5.7569,-5.749,-5.7369,-5.7264,-5.6919,-5.6512,-5.6037,-5.5155,-5.4573,-5.4207,-5.3527,-5.3185,-5.3185,-5.3185,-5.3057,-5.2876,-5.2876,-5.2747,-5.2417,-5.1004,-5.0105,-4.9574,-4.9335,-4.8838,-4.8269,-4.8048,-4.7957,-4.7847,-4.7021,-4.6764,-4.6617,-4.581,-4.5571,-4.5516,-4.5296,-4.4819,-4.4378,-4.4378,-4.3938,-4.3515,-4.3515,-4.3515,-4.3515,-4.3515,-4.3515,-4.3515,-4.3515,-4.3515,-4.3444,-4.3322,-4.2827,-4.24,-4.2223,0.0,0.0,-4.1331,-4.0943,-4.0679,-4.0679,-4.0336,-3.9503,-3.8041,-3.7212,-3.5847,0.0,-3.2205,-3.1072,-3.0142,-2.9583,-2.9093,-2.867,-2.7706,-2.6826,0.0,0.0,0.0,0.0,0.0,0.0,0.0,0.0,0.0,0.0,0.0,0.0,0.0,0.0,0.0,0.0,0.0,0.0,0.0,0.0,0.0,0.0,-4.2143,-4.4509,-4.5586,-4.7009,-4.8625,-5.0481,-5.1722,-5.2799,-5.3664,-5.4049,-5.4453,-5.4953,-5.5338,-5.5983,-5.6945,-5.7349,-5.778,-5.828,-5.8115,-5.8003,-5.8003,-5.7558,-5.7097,-5.6643,-5.594,-5.5183,-5.4381,-5.3922,-5.3537,0.0,-5.3185,-5.3185,-5.3185,-5.3185,-5.3185,0.0,0.0,0.0,0.0,0.0,-4.904,-4.8306,-4.8306,-4.8306,-4.8233,-4.7736,-4.759,-4.7443,-4.6654,-4.6416,-4.6342,-4.5993,-4.5571,-4.5131,-4.4783,-4.436,-4.392,-4.3588,-4.3515,-4.3515,-4.3515,-4.3515,-4.3515,-4.3515,0.0,0.0,-4.3515,-4.3069,-4.2616,-4.2362,-4.181,-4.1424,0.0,-4.092,-4.0577,-4.0577,-4.0286,-3.9639,-3.8464,-3.7398,0.0,0.0,0.0,-3.1647,-3.0598,-2.9854,0.0,0.0,0.0,0.0,0.0,0.0,0.0,0.0,-2.7182,-2.7148,0.0,0.0,0.0,0.0,0.0,0.0,0.0,0.0,0.0,0.0,0.0,0.0,0.0,0.0,0.0,0.0,-4.4374,-4.6883,-4.9336,-4.9683,-5.001,-5.0885,-5.2375,-5.3683,-5.4549,-5.528,-5.5742,-5.5838,-5.656,-5.708,-5.7272,0.0,0.0,0.0,0.0,-5.7955,-5.7955,-5.7601,-5.7184,-5.6725,-5.6575,-5.5893,-5.4746,-5.4608,-5.4161,-5.3482,-5.3369,-5.3332,-5.3335,-5.3243,-5.3185,-5.3112,-5.2307,-5.1995,-5.1793,-5.0198,-4.9095,0.0,0.0,0.0,0.0,-4.8306,-4.8306,-4.8177,-4.7443,-4.7241,-4.7076,-4.6379,-4.6104,-4.5847,-4.5057,-4.4782,-4.4507,-4.3681,-4.3515,-4.3515,-4.3515,-4.3515,-4.3515,-4.3515,-4.3515,-4.3515,-4.3515,-4.3105,-4.2598,-4.2083,-4.1538,0.0,-4.111,-4.0625,-4.0279,-4.0204,0.0,0.0,-3.9056,-3.7726,-3.6535,-3.565,-3.4235,-3.2814,-3.1495,-3.0818,-3.0784,-3.1427,-3.1444,-3.2087,-3.3406,-3.3406,-3.3491,-3.3558,-2.9397,-2.8924,0.0,0.0,0.0,0.0,0.0,0.0,0.0,0.0,0.0,0.0,0.0,0.0,0.0,0.0,0.0,-4.4566,-4.699,-4.9317,-5.1154,-5.1423,-5.1731,-5.2606,-5.3626,-5.4568,-5.5395,-5.5607,-5.5992,-5.6695,-5.6907,-5.7599,-5.8934,-5.9184,0.0,-6.0281,-6.0234,-6.0179,-6.0179,-6.0098,-5.9827,-5.9345,0.0,0.0,-5.6859,-5.5849,-5.5262,-5.5097,-5.4454,-5.4179,-5.4124,-5.3482,-5.3185,-5.3112,-5.2307,-5.1995,-5.1793,-5.0198,-4.95,-4.9262,-4.8545,-4.8306,-4.8306,-4.8306,-4.8306,-4.8269,-4.8122,-4.8086,0.0,-4.7884,-4.7388,-4.6672,-4.5883,-4.5186,-4.4507,-4.3681,-4.3515,-4.3515,-4.3515,-4.3515,-4.3515,-4.3515,-4.3515,-4.3515,-4.3515,-4.341,-4.3303,-4.3196,-4.3069,-4.2829,-4.2402,-4.1832,-4.1268,-4.0803,-4.0343,-3.9808,-3.9056,-3.8193,-3.7094,-3.5684,-3.4235,-3.3271,-3.3,-3.2848,-3.2831,-3.2983,-3.2983,-3.3119,-3.3406,-3.3406,-3.4015,-3.5109,-3.3068,-3.2747,0.0,0.0,0.0,0.0,0.0,0.0,0.0,0.0,0.0,0.0,0.0,-3.9777,-4.1489,0.0,-4.5682,-4.7807,-4.923,-5.0644,-5.2318,-5.2933,-5.3356,-5.3799,-5.4222,-5.4818,-5.5607,-5.6088,-5.6541,-5.6964,-5.778,-5.8627,-5.9454,-5.9915,-6.0339,-6.0781,-6.08,-6.08,-6.08,-6.08,-6.0565,-6.0084,-5.9452,-5.8696,-5.7828,-5.6953,-5.6337,-5.5893,-5.484,-5.4399,-5.4344,-5.3537,-5.3185,-5.317,-5.2766,-5.2344,-5.1885,-5.1116,-5.029,-4.9537,-4.9095,-4.8655,-4.8306,-4.8306,-4.8306,-4.8306,-4.8306,-4.8306,-4.8306,-4.8306,-4.8012,-4.7516,-4.6709,-4.5902,-4.5094,-4.4287,-4.3791,-4.3515,-4.3515,-4.3515,-4.3515,-4.3515,-4.3515,-4.3515,-4.3515,-4.3515,-4.3515,-4.3515,-4.3268,-4.2995,-4.2713,-4.2162,-4.1578,-4.0972,-4.0655,-4.0239,-3.9613,-3.8531,-3.7415,-3.6265,-3.5131,-3.4353,-3.3964,-3.3947,-3.3947,-3.3947,-3.3947,-3.4134,-3.4484,-3.4912,-3.547,-3.6197,-3.5825,-3.5859,0.0,0.0,0.0,0.0,0.0,0.0,0.0,-3.6315,-3.7731,-4.045,-4.2085,-4.3662,-4.5701,-4.6932,-4.8317,-5.0366,-5.0981,-5.1722,-5.3241,-5.4068,-5.4491,-5.4491,-5.4645,-5.4991,-5.5645,-5.6503,-5.708,-5.7253,-5.8646,-5.9569,-5.9742,-6.0416,-6.08,-6.08,-6.08,-6.08,-6.08,-6.08,-6.0622,-6.0236,-6.0146,-5.9574,-5.8543,-5.809,-5.7528,-5.6818,-5.5394,-5.468,-5.4478,-5.3579,-5.3185,-5.3185,-5.3185,-5.2803,-5.2197,-5.205,-5.1189,-5.0033,-4.9721,-4.9132,-4.8526,-4.8361,-4.8306,-4.8306,-4.8306,-4.8306,-4.8306,-4.8306,-4.8306,-4.8122,-4.7314,-4.6507,-4.57,-4.4892,-4.4085,-4.3515,-4.3515,-4.3515,-4.3515,-4.3515,-4.3515,-4.3515,-4.3515,-4.3515,-4.3515,-4.3515,-4.3124,-4.2826,-4.2711,-4.2282,-4.1729,-4.1155,-4.0972,-4.061,-3.9943,-3.8802,-3.7736,-3.6863,-3.6197,-3.5504,-3.4742,-3.4709,-3.4776,-3.4928,-3.4967,-3.5301,-3.6039,-3.6705,-3.71,-3.7252,-3.7838,-3.8125,-3.0968,-3.1852,-3.3372,-3.6507,-3.6315,-3.7115,0.0,-4.3739,-4.3181,-4.6451,-4.7259,-4.749,-4.7778,-4.9163,-5.0366,-5.0654,-5.1952,-5.326,-5.4222,-5.4434,-5.4491,-5.4491,-5.5126,-5.5588,-5.5684,-5.6503,-5.733,-5.8107,-5.8992,-5.9838,-6.0608,-6.0742,-6.08,-6.08,-6.08,-6.08,-6.08,-6.08,-6.0769,-6.0734,-6.0311,-6.0031,-5.9877,-5.9393,-5.915,-5.8944,-5.6949,-5.5694,-5.493,-5.3691,-5.3185,-5.3185,-5.3185,-5.313,-5.2986,-5.2252,-5.1885,-5.1538,-5.0106,-4.9537,-4.9335,-4.8545,-4.8306,-4.8306,-4.8306,-4.8306,-4.8306,-4.8306,-4.8306,-4.8122,-4.7314,-4.6507,-4.57,-4.4892,-4.4085,-4.3515,-4.3515,-4.3515,-4.3515,-4.3515,-4.3515,-4.3515,-4.3515,-4.3515,-4.3515,-4.3515,-4.3444,-4.3232,-4.2769,-4.2635,-4.2362,-4.175,-4.1223,-4.0403,-3.9231,-3.8954,-3.8278,-3.6897,-3.6728,-3.6299,-3.5498,-3.5481,-3.5808,-3.6541,-3.6541,-3.6907,-3.7652,-3.7736,-3.8108,-3.8751,-3.8836,-3.887,-3.6045,-3.6719,-3.7199,-3.9604,-4.0796,-4.2085,-4.4778,-4.5355,-4.599,-4.8375,-4.8856,-4.9009,-4.951,-5.0212,-5.102,0.0,-5.2741,-5.3664,-5.5011,-5.4799,-5.4491,-5.4491,-5.4799,-5.4991,-5.4991,-5.6665,-5.7915,-5.828,-5.9511,-6.0416,-6.0781,-6.08,-6.08,-6.08,-6.08,-6.08,-6.08,-6.08,-6.08,-6.08,-6.061,-6.0508,-6.0495,-6.0025,-5.9395,-5.8599,-5.7005,-5.5827,-5.4988,-5.3732,-5.3185,-5.3185,-5.3185,-5.3185,-5.317,-5.2821,-5.2399,-5.183,-5.0692,-4.9996,-4.9463,-4.8581,-4.8306,-4.8306,-4.8306,-4.8306,-4.8306,-4.8306,-4.8306,-4.8233,-4.7902,-4.7186,-4.6416,-4.559,-4.4782,-4.4066,-4.3606,-4.3515,-4.3515,-4.3515,-4.3515,-4.3515,-4.3515,-4.3515,-4.3515,-4.3515,-4.3515,-4.3427,-4.3196,-4.3178,-4.294,-4.2382,-4.1771,-4.1079,-4.0178,-3.9695,-3.9074,-3.8132,-3.7669,-3.7094,-3.6332,-3.6721,-3.6891,-3.6795,-3.7212,-3.7584,-3.7905,-3.8328,-3.87,-3.9005,-3.9453,-3.9656,-3.8746,-3.9534,-4.0092,-4.2008,-4.4066,-4.5614,-4.5682,-4.6682,-4.8009,-4.9452,-4.9567,-4.9586,-5.0231,-5.0539,-5.1164,-5.2606,-5.3241,-5.4068,-5.5491,-5.5011,-5.4414,-5.4164,-5.4145,-5.4145,-5.4145,-5.6453,-5.805,-5.828,-5.9627,-6.055,-6.0781,-6.08,-6.08,-6.08,-6.08,-6.08,-6.08,-6.08,-6.08,-6.08,-6.08,-6.08,-6.08,-6.0456,-5.9793,-5.8824,-5.7322,-5.6324,-5.5669,-5.4185,-5.3482,-5.3359,-5.3359,-5.3295,-5.3185,-5.3185,-5.2839,-5.2179,-5.1169,-5.0417,-4.9738,-4.8655,-4.8306,-4.8306,-4.8306,-4.8306,-4.8306,-4.8306,-4.8306,-4.8306,-4.8306,-4.77,-4.6892,-4.6085,-4.5296,-4.4488,-4.3663,-4.3515,-4.3515,-4.3515,-4.3515,-4.3515,-4.3515,-4.3515,-4.3515,-4.3515,-4.3515,-4.3515,-4.3515,-4.3515,-4.3286,-4.2769,-4.2302,-4.1793,-4.1201,-4.0492,-3.9853,-3.9245,-3.8577,-3.7872,-3.7134,-3.7618,-3.7736,-3.7422,-3.7922,-3.8311,-3.8514,-3.9039,-3.9292,-3.9334,-3.9859,-4.0096,-3.7238,-3.8604,-4.1073,-4.3585,-4.4921,-4.6249,-4.8682,-4.9279,-4.9586,-5.0481,-4.999,-4.9413,-4.9433,-5.0125,-5.0971,-5.1788,-5.3356,-5.4741,-5.5568,-5.5011,-5.4184,-5.3337,-5.3241,-5.3241,0.0,-5.553,-5.7376,-5.8242,-5.9069,-5.9915,-6.0742,-6.08,-6.08,-6.08,-6.08,-6.08,-6.08,-6.08,-6.08,-6.08,-6.08,-6.08,-6.08,-6.08,-6.0769,-6.0611,-5.8467,-5.7553,-5.7372,-5.5306,-5.4187,-5.3777,-5.3777,-5.3545,-5.3185,-5.3185,-5.3167,-5.2949,-5.1353,-5.0784,-5.049,-4.8838,-4.8306,-4.8306,-4.8306,-4.8306,-4.8306,-4.8306,-4.8306,-4.8306,-4.8306,-4.77,-4.6892,-4.6085,-4.5296,-4.4488,-4.3663,-4.3515,-4.3515,-4.3515,-4.3515,-4.3515,-4.3515,-4.3515,-4.3515,-4.3515,-4.3515,-4.3515,-4.3515,-4.3515,-4.3286,-4.2769,-4.2674,-4.244,-4.1814,-4.1228,-4.0556,-3.9823,-3.9283,-3.8633,-3.7905,-3.7889,-3.8227,-3.8903,-3.8954,-3.9334,-4.0028,-4.0062,-4.0079,-4.0079,-4.0096,-4.0096,-4.1681,-4.2816,-4.3624,-4.6182,-4.7471,-4.8355,-4.9202,-4.9394,-4.9471,-4.9779,-4.9144,-4.8548,-4.8548,-4.8779,-4.9625,-5.1577,-5.2385,-5.3472,-5.5415,-5.5011,-5.4184,-5.3299,-5.3703,0.0,0.0,0.0,0.0,-5.8184,-5.905,-5.9877,-6.0742,-6.08,-6.08,-6.08,-6.08,-6.08,-6.08,-6.08,-6.08,-6.08,-6.08,-6.08,-6.08,-6.08,-6.08,-6.0673,-5.8526,-5.76,-5.7439,-5.5371,-5.4423,-5.4255,-5.4255,-5.3996,-5.3604,-5.3604,-5.3091,-5.2252,-5.1169,-5.0802,-5.0527,-4.8857,-4.8306,-4.8306,-4.8306,-4.8306,-4.8306,-4.8306,-4.8306,-4.8306,-4.8306,-4.8104,-4.7553,-4.6214,-4.5681,-4.5131,-4.379,-4.3515,-4.3515,-4.3515,-4.3515,-4.3515,-4.3515,-4.3515,-4.3515,-4.3515,-4.3515,-4.3515,-4.3515,-4.3515,-4.3427,-4.325,-4.3232,-4.2847,-4.1895,-4.1621,-4.1051,-4.0058,-3.9831,-3.9394,-3.865,-3.9089,-3.9266,-3.8988,-3.9486,-3.9859,-4.0096,-4.0096,-4.0096,-4.0096,-4.0096,-4.0096,-4.4008,-4.4951,-4.5374,-4.7932,-4.899,-4.9394,-4.9394,-4.9394,-4.9221,-4.8625,-4.7817,-4.7105,-4.6797,-4.674,-4.7586,-5.0135,-5.1068,-5.2356,-5.4914,-5.4818,-5.428,-5.3722,-5.4164,-5.4395,0.0,0.0,0.0,-5.8165,-5.905,-5.9877,-6.0742,-6.08,-6.08,-6.08,-6.08,-6.08,-6.08,-6.08,-6.08,-6.08,-6.08,-6.08,-6.08,-6.08,-6.08,-6.0692,-5.8712,-5.7845,-5.7698,-5.5739,-5.4833,-5.4701,-5.4701,-5.4452,-5.4048,-5.4048,-5.3442,-5.2461,-5.123,-5.0618,-5.0141,-4.8746,-4.8306,-4.8306,-4.8306,-4.8306,-4.8306,-4.8306,-4.8306,-4.8306,-4.8306,-4.8306,-4.7976,-4.6636,-4.6342,-4.5883,-4.4287,-4.392,-4.3828,-4.357,-4.3515,-4.3515,-4.3515,-4.3515,-4.3515,-4.3515,-4.3515,-4.3515,-4.3515,-4.3515,-4.3515,-4.3515,-4.3515,-4.3142,-4.2203,-4.1916,-4.1397,-4.0466,-4.0204,-3.9893,-3.9394,-3.9859,-3.9893,-3.9394,-3.9859,-4.0096,-4.0096,-4.0096,-4.0096,-4.0096,-4.0096,-4.0096,-4.4201,-4.5105,-4.6383,-4.8856,-4.9433,-4.9394,-4.9394,-4.9298,-4.874,-4.7105,-4.6047,-4.5133,-4.4201,-4.4143,-4.5066,-4.7567,-4.951,-5.1597,-5.4145,-5.4568,-5.4607,0.0,0.0,0.0,0.0,0.0,0.0,-5.8242,0.0,-5.9838,-6.0742,-6.08,-6.08,-6.08,-6.08,-6.08,-6.08,-6.08,-6.08,-6.08,-6.08,-6.08,-6.08,-6.08,-6.08,-6.0704,-5.9031,-5.83,-5.8165,-5.6415,-5.5477,-5.5134,-5.5134,-5.4876,-5.4535,-5.4535,-5.4219,-5.3498,-5.1539,-5.0348,-4.9519,-4.86,-4.8306,-4.8306,-4.8306,-4.8306,-4.8306,-4.8306,-4.8306,-4.8306,-4.8306,-4.8306,-4.8104,-4.7278,-4.7076,-4.6599,-4.504,-4.4654,-4.4415,-4.3662,-4.3515,-4.3515,-4.3515,-4.3515,-4.3515,-4.3515,-4.3515,-4.3515,-4.3515,-4.3515,-4.3515,-4.3515,-4.3515,-4.3268,-4.275,-4.2183,-4.1599,-4.0995,-4.0473,-4.0154,-4.0146,-4.0146,-4.0121,-4.0096,-4.0096,-4.0096,-4.0096,-4.0096,-4.0096,-4.0096,-4.0096,-4.0096,-4.5836,-4.7317,-4.874,-5.0038,-4.9875,-4.9394,-4.9394,-4.7932,-4.6259,-4.5182,-4.3797,-4.2316,-4.0854,-4.2124,-4.4028,-4.5932,-4.875,0.0,-5.4145,-5.5568,0.0,-5.5472,-5.6549,-5.7165,-5.6714,-5.78,0.0,0.0,-5.8838,-5.9242,-6.0723,-6.08,-6.08,-6.08,-6.08,-6.08,-6.08,-6.08,-6.08,-6.08,-6.08,-6.08,-6.08,-6.08,-6.08,-6.0704,-5.9031,-5.83,-5.8165,-5.6415,-5.564,-5.5554,-5.5554,-5.5306,-5.4952,-5.4952,-5.4269,-5.3196,-5.2067,-5.1174,-5.0251,-4.8783,-4.8306,-4.8306,-4.8306,-4.8306,-4.8306,-4.8306,-4.8306,-4.8306,-4.8306,-4.8306,-4.8104,-4.7278,-4.6636,-4.5938,-4.4911,-4.4232,-4.3736,-4.3551,-4.3515,-4.3515,-4.3515,-4.3515,-4.3515,-4.3515,-4.3515,-4.3515,-4.3515,-4.3515,-4.3515,-4.3515,-4.3515,-4.3268,-4.275,-4.2577,-4.2203,-4.1599,-4.1442,-4.1173,-4.0709,-4.0703,-4.0521,-4.0096,-4.0096,-4.0096,-4.0096,-4.0096,-4.0096,-4.0096,-4.0096,-4.0096,-4.7528,-4.8952,-4.999,-5.0087,-4.976,-4.9009,-4.749,-4.6047,-4.4355,-4.2027,-4.0796,-3.9623,-3.795,-3.97,-4.197,0.0,0.0,0.0,-5.3049,-5.5453,-5.683,0.0,-5.778,0.0,-5.8127,-5.8954,-5.9665,0.0,-5.9646,-5.98,-6.0742,-6.08,-6.08,-6.08,-6.08,-6.08,-6.08,-6.08,-6.08,-6.08,-6.08,-6.08,-6.08,-6.08,-6.08,-6.0704,0.0,-5.83,-5.8165,-5.6415,-5.5703,-5.5703,-5.5703,-5.5566,-5.5356,-5.5356,-5.4796,-5.385,-5.2689,-5.1855,-5.1007,-4.9177,-4.8439,-4.8306,-4.8306,-4.8306,-4.8306,-4.8306,-4.8306,-4.8306,-4.8306,-4.8306,-4.8196,-4.7718,-4.7278,-4.6636,-4.548,-4.4874,-4.4342,-4.3643,-4.3515,-4.3515,-4.3515,-4.3515,-4.3515,-4.3515,-4.3515,-4.3515,-4.3515,-4.3515,-4.3515,-4.3515,-4.3515,-4.3268,-4.275,-4.2711,-4.244,-4.1853,-4.181,-4.1643,-4.1313,-4.1273,-4.1133,-4.0861,-4.0594,-4.0449,-4.0449,-4.0204,-4.0096,-4.0096,-4.0096,-4.0096,-4.8971,-5.0029,-5.05,-4.9625,-4.9317,-4.8355,-4.5047,-4.4047,-4.2662,-3.8642,-3.7642,-3.6988,-3.5308,-3.7161,-3.9546,-4.1335,0.0,-4.9779,-5.1788,-5.4914,-5.7041,-5.7157,-5.8646,-5.9665,-5.9665,-5.9665,-5.9992,-6.0742,-6.08,-6.08,-6.08,-6.08,-6.08,-6.08,-6.08,-6.08,-6.08,-6.08,-6.08,-6.08,-6.08,-6.08,-6.08,-6.08,-6.0742,-6.0531,0.0,0.0,-5.8011,-5.6376,-5.5703,-5.5703,-5.5703,-5.5703,-5.5703,-5.5703,-5.5489,-5.4938,-5.3251,-5.2408,-5.1741,-4.9666,-4.871,-4.8383,-4.8383,-4.8345,-4.8306,-4.8306,-4.8306,-4.8306,-4.8306,-4.8306,-4.8306,-4.8306,-4.8233,-4.7737,-4.6214,-4.5736,-4.5168,-4.3772,-4.3515,-4.3515,-4.3515,-4.3515,-4.3515,-4.3515,-4.3515,-4.3515,-4.3515,-4.3515,-4.3515,-4.3515,-4.3515,-4.3303,-4.2845,-4.2807,-4.2578,-4.2062,-4.2041,-4.1982,-4.1916,-4.1916,-4.1874,-4.181,-4.1291,-4.0972,-4.0903,-4.0424,-4.0154,-4.0096,-4.0096,-4.0096,-4.9125,-5.0029,-5.05,-4.9625,-4.8856,-4.7625,-4.4913,-4.2662,-4.0362,-3.7507,-3.5815,-3.4353,-3.2679,-3.4988,-3.795,-4.0342,-4.4432,-4.8663,-5.2452,-5.5299,-5.7272,0.0,-5.955,-6.0569,-6.0569,-6.0569,0.0,0.0,0.0,0.0,-6.08,-6.08,-6.08,-6.08,-6.08,-6.08,-6.08,-6.08,-6.08,-6.08,-6.08,-6.08,-6.08,-6.08,-6.0416,-5.9665,0.0,0.0,-5.7157,-5.6107,-5.5703,-5.5703,-5.5703,-5.5703,-5.5703,-5.5703,-5.5651,-5.5358,-5.3667,-5.2836,-5.215,-5.0061,-4.9123,-4.8796,-4.8796,-4.8568,-4.8306,-4.8306,-4.8306,-4.8306,-4.8306,-4.8306,-4.8306,-4.8306,-4.7791,-4.7039,-4.6104,-4.4856,-4.3828,-4.3551,-4.3515,-4.3515,-4.3515,-4.3515,-4.3515,-4.3515,-4.3515,-4.3515,-4.3515,-4.3515,-4.3515,-4.3515,-4.3515,-4.3462,-4.3375,-4.3375,-4.3321,-4.3214,-4.3214,-4.3014,-4.2559,-4.2539,-4.2302,-4.181,-4.1703,-4.1402,-4.0903,-4.0803,-4.0528,-4.0096,-4.0096,-4.0096,-4.9163,-5.0029,-5.0385,-4.9048,-4.8086,-4.6471,-4.2585,-4.0046,-3.768,-3.4718,-3.3103,-3.1987,-3.1173,-3.3788,-3.6615,-3.8257,-4.2124,-4.6394,-5.0625,-5.3029,-5.5338,-5.7992,-5.9377,-6.03,-6.0762,-6.08,0.0,0.0,0.0,0.0,-6.08,-6.08,-6.08,-6.08,-6.08,-6.08,-6.08,-6.08,-6.08,-6.08,-6.08,-6.08,-6.0781,-6.0319,-5.9896,-5.9435,0.0,0.0,-5.6926,-5.6049,-5.5703,-5.5703,-5.5703,-5.5703,-5.5703,-5.5703,-5.5703,-5.5453,-5.378,-5.308,-5.2602,-5.0718,-4.9719,-4.9171,-4.8945,-4.8761,-4.8568,-4.8364,-4.8306,-4.8306,-4.8306,-4.8306,-4.8306,-4.8306,-4.737,-4.6379,-4.5975,-4.4635,-4.3515,-4.3515,-4.3515,-4.3515,-4.3515,-4.3515,-4.3515,-4.3515,-4.3515,-4.3515,-4.3515,-4.3515,-4.3515,-4.3515,-4.3515,-4.3515,-4.3515,-4.3515,-4.3515,-4.3515,-4.3515,-4.3392,-4.3142,-4.3124,-4.2977,-4.2678,-4.2422,-4.2121,-4.1832,-4.1512,-4.1064,-4.0521,-4.0521,-4.0368,-4.9125,-4.9894,-5.0048,-4.849,-4.7509,-4.5566,-4.045,-3.7815,-3.5481,-3.2115,-3.0731,-3.0115,-3.0115,-3.2615,-3.5135,-3.6481,-3.9988,-4.4085,-4.849,-5.0894,-5.3635,-5.7569,-5.8896,0.0,-6.0723,-6.08,0.0,0.0,0.0,0.0,0.0,-6.08,-6.08,-6.08,-6.08,-6.08,-6.08,-6.08,-6.08,-6.08,-6.0608,-6.0512,-6.0492,-5.9627,-5.9146,-5.8896,0.0,0.0,0.0,-5.5972,-5.5703,-5.5703,-5.5703,-5.5703,-5.5703,-5.5703,-5.5703,-5.5453,-5.378,-5.3203,-5.2914,-5.1241,-5.0206,-4.9561,-4.9246,-4.9027,-4.8829,-4.8513,-4.8364,-4.8306,-4.8306,-4.8306,-4.8306,-4.8306,-4.7205,-4.6104,-4.5938,-4.4764,-4.3699,-4.3533,-4.3515,-4.3515,-4.3515,-4.3515,-4.3515,-4.3515,-4.3515,-4.3515,-4.3515,-4.3515,-4.3515,-4.3515,-4.3515,-4.3515,-4.3515,-4.3515,-4.3515,-4.3515,-4.3515,-4.3515,-4.3515,-4.3515,-4.3515,-4.3515,-4.3105,-4.2826,-4.2711,-4.2223,-4.1686,-4.1087,-4.1087,-4.0797,-4.8952,-4.9452,-4.9298,-4.8336,-4.7509,-4.5566,-4.045,-3.7392,-3.4635,-3.1212,-2.9833,-2.9223,-2.9223,-3.0775,-3.3064,-3.6192,-3.8969,-4.2497,-4.7509,-5.1029,-5.4087,-5.681,0.0,0.0,-6.0723,0.0,0.0,0.0,0.0,0.0,0.0,-6.08,-6.08,-6.08,-6.08,-6.08,-6.08,-6.08,-6.08,-6.0781,-5.9992,-5.9627,-5.9588,-5.8781,-5.7973,-5.7214,0.0,0.0,0.0,-5.5722,-5.5703,-5.5703,-5.5703,-5.5703,-5.5703,-5.5703,-5.5703,-5.5453,-5.378,-5.3203,-5.2914,-5.1241,-5.041,-5.0043,-4.9987,-4.9489,-4.8897,-4.8846,-4.8586,-4.8306,-4.8306,-4.8306,-4.8306,-4.8306,-4.7626,-4.6782,-4.6067,-4.5223,-4.4378,-4.3626,-4.3515,-4.3515,-4.3515,-4.3515,-4.3515,-4.3515,-4.3515,-4.3515,-4.3515,-4.3515,-4.3515,-4.3515,-4.3515,-4.3515,-4.3515,-4.3515,-4.3515,-4.3515,-4.3515,-4.3515,-4.3515,-4.3515,-4.3515,-4.3515,-4.3444,-4.3196,-4.2711,-4.2635,-4.2302,-4.1725,-4.1725,-4.1402,-4.7432,-4.8259,-4.8413,-4.7586,-4.6355,-4.4143,-3.9565,-3.6142,-3.325,-3.0885,-2.9313,-2.8684,-2.9698,-3.0891,-3.2468,-3.4814,-3.6052,-3.8488,-4.3585,-4.5932,-4.9009,-5.4107,-5.6184,0.0,0.0,0.0,0.0,0.0,0.0,0.0,0.0,-6.08,-6.08,-6.08,-6.08,-6.08,-6.08,-6.08,-6.0531,-6.0012,-5.9665,-5.9261,-5.8742,-5.7896,-5.7319,-5.6964,0.0,0.0,0.0,-5.5703,-5.5703,-5.5703,-5.5703,-5.5703,-5.5703,-5.5703,-5.5395,-5.4799,-5.3606,-5.2856,-5.2241,-5.1068,-5.0594,-5.0421,-5.0171,-4.9719,-4.9218,-4.898,-4.8622,-4.8306,-4.8306,-4.8306,-4.8306,-4.8306,-4.7681,-4.6874,-4.6067,-4.5278,-4.447,-4.3644,-4.3515,-4.3515,-4.3515,-4.3515,-4.3515,-4.3515,-4.3515,-4.3515,-4.3515,-4.3515,-4.3515,-4.3515,-4.3515,-4.3515,-4.3515,-4.3515,-4.3515,-4.3515,-4.3515,-4.3515,-4.3515,-4.3515,-4.3515,-4.3515,-4.3515,-4.3392,-4.3178,-4.3178,-4.2884,-4.2342,-4.2342,-4.2021,-4.5663,-4.6932,-4.7605,-4.7038,-4.5413,-4.2893,-3.8911,-3.5353,-3.2352,-3.041,-2.9083,-2.8621,-2.9794,-3.0731,-3.1795,-3.3218,-3.4083,-3.618,-4.0777,-4.2816,-4.597,-5.1779,0.0,0.0,0.0,0.0,0.0,0.0,0.0,0.0,0.0,-6.0416,-6.0531,-6.0781,-6.08,-6.08,-6.08,-6.0531,-6.0108,-5.9492,-5.8992,-5.8454,-5.7896,-5.7011,-5.6618,0.0,0.0,0.0,0.0,-5.5703,-5.5703,-5.5703,-5.5703,-5.5703,-5.5703,-5.5703,-5.5184,-5.4376,-5.351,-5.2635,-5.1769,-5.0952,-5.0712,-5.0653,-5.0358,-5.0006,-4.9589,-4.9187,-4.871,-4.8306,-4.8306,-4.8306,-4.8306,-4.8306,-4.7865,-4.7168,-4.6122,-4.5461,-4.4745,-4.3699,-4.3515,-4.3515,-4.3515,-4.3515,-4.3515,-4.3515,-4.3515,-4.3515,-4.3515,-4.3515,-4.3515,-4.3515,-4.3515,-4.3515,-4.3515,-4.3515,-4.3515,-4.3515,-4.3515,-4.3515,-4.3515,-4.3515,-4.3515,-4.3515,-4.3515,-4.3515,-4.3515,-4.3515,-4.3322,-4.2939,-4.2939,-4.2617,-4.3874,-4.5586,-4.6904,-4.6904,-4.4989,-4.222,-3.8777,-3.5353,-3.2179,-2.9646,-2.9107,-2.9088,-2.9107,-2.9833,-3.0692,-3.1583,-3.3846,-3.6654,-4.0035,-4.344,-4.6864,0.0,0.0,0.0,0.0,0.0,0.0,0.0,0.0,0.0,0.0,0.0,-5.9915,-6.0762,-6.08,-6.08,-6.08,-5.9935,-5.9511,-5.9473,-5.783,-5.7011,-5.6981,-5.6107,0.0,0.0,0.0,0.0,0.0,-5.5703,-5.5703,-5.5703,-5.5703,-5.5703,-5.5703,-5.5703,-5.5184,-5.4376,-5.351,-5.2635,-5.1769,-5.0952,-5.0712,-5.0712,-5.0702,-5.041,-5.0019,-4.9622,-4.8932,-4.8306,-4.8306,-4.8306,-4.8306,-4.8306,-4.8306,-4.7847,-4.625,-4.5883,-4.5406,-4.3809,-4.3515,-4.3515,-4.3515,-4.3515,-4.3515,-4.3515,-4.3515,-4.3515,-4.3515,-4.3515,-4.3515,-4.3515,-4.3515,-4.3515,-4.3515,-4.3515,-4.3515,-4.3515,-4.3515,-4.3515,-4.3515,-4.3515,-4.3515,-4.3515,-4.3515,-4.3515,-4.3515,-4.3515,-4.3497,-4.3479,-4.3479,-4.3214,-3.9546,-4.0835,-4.1566,-4.0969,-4.0219,-3.8873,-3.6045,-3.4103,-3.2352,-3.039,-2.9506,-2.928,-2.989,-3.0212,-3.1269,-3.3865,-3.4962,-3.6673,-4.0035,-4.344,0.0,-4.9471,0.0,0.0,0.0,0.0,0.0,0.0,0.0,0.0,0.0,0.0,-5.8819,-5.9088,-5.9088,-5.9088,-5.9088,-5.8819,-5.8377,-5.778,-5.7253,-5.6695,-5.6107,-5.5818,0.0,0.0,0.0,0.0,0.0,-5.5703,-5.5703,-5.5703,-5.5703,-5.5703,-5.5703,-5.5703,-5.4799,-5.3568,-5.3299,-5.2279,-5.1029,-5.0789,-5.0712,-5.0712,-5.0712,-5.0421,-5.0019,-4.9603,-4.9311,-4.9062,-4.8779,-4.871,-4.8639,-4.8364,-4.8306,-4.7865,-4.625,-4.5902,-4.5424,-4.3809,-4.3515,-4.3515,-4.3515,-4.3515,-4.3515,-4.3515,-4.3515,-4.3515,-4.3515,-4.3515,-4.3515,-4.3515,-4.3515,-4.3515,-4.3515,-4.3515,-4.3515,-4.3515,-4.3515,-4.3515,-4.3515,-4.3515,-4.3515,-4.3515,-4.3515,-4.3515,-4.3515,-4.3515,-4.3515,-4.3515,-4.3515,-4.341,-3.5853,-3.7411,-3.8277,-3.8046,-3.7526,-3.6469,-3.4218,-3.2795,-3.1487,-2.9788,-2.9275,-2.928,-2.9813,-3.0173,-3.1192,-3.3673,-3.4596,-3.6199,-3.9573,0.0,0.0,-4.951,0.0,0.0,0.0,0.0,0.0,0.0,0.0,0.0,0.0,0.0,-5.7665,-5.7338,-5.7953,-5.83,-5.83,-5.7973,-5.753,-5.7003,-5.6676,-5.6233,-5.5703,0.0,0.0,0.0,0.0,0.0,0.0,-5.5703,-5.5703,-5.5665,-5.5376,-5.5241,-5.5203,-5.4876,-5.3895,-5.2712,-5.2712,-5.1837,-5.0712,-5.0712,-5.0712,-5.0712,-5.0712,-5.0421,-5.0056,-4.98,-4.9622,-4.9445,-4.9187,-4.9123,-4.9059,-4.8813,-4.864,-4.8089,-4.6463,-4.6009,-4.5424,-4.3809,-4.3515,-4.3515,-4.3515,-4.3515,-4.3515,-4.3515,-4.3515,-4.3515,-4.3515,-4.3515,-4.3515,-4.3515,-4.3515,-4.3515,-4.3515,-4.3515,-4.3515,-4.3515,-4.3515,-4.3515,-4.3515,-4.3515,-4.3515,-4.3515,-4.3515,-4.3515,-4.3515,-4.3515,-4.3515,-4.3515,-4.3515,-4.3515,0.0,-3.4872,-3.6334,-3.7084,-3.6161,-3.4615,-3.2929,-3.1385,0.0,-2.8236,-2.8549,-2.9146,-2.9261,-2.9948,-3.0865,-3.1968,-3.3506,-3.5745,0.0,-4.2566,0.0,0.0,0.0,0.0,0.0,0.0,0.0,0.0,0.0,0.0,0.0,0.0,0.0,-5.5722,-5.7261,-5.8127,-5.8127,-5.73,-5.6907,-5.6907,-5.6088,-5.5703,-5.5703,0.0,0.0,0.0,0.0,0.0,0.0,-5.5703,-5.5665,-5.553,-5.478,-5.4453,-5.4318,-5.351,-5.2654,-5.1904,-5.1904,-5.1375,-5.0712,-5.0712,-5.0712,-5.0712,-5.0712,-5.0432,-5.0147,-5.0147,-4.9866,-4.9575,-4.9547,-4.9532,-4.9551,-4.9522,-4.9181,-4.8425,-4.6871,-4.6177,-4.5386,-4.3843,-4.3513,-4.3515,-4.3515,-4.3515,-4.3515,-4.3515,-4.3515,-4.3515,-4.3515,-4.3515,-4.3515,-4.3515,-4.3515,-4.3515,-4.3515,-4.3515,-4.3515,-4.3515,-4.3515,-4.3515,-4.3515,-4.3515,-4.3515,-4.3515,-4.3515,-4.3515,-4.3515,-4.3515,-4.3515,-4.3515,-4.3515,-4.3515,-2.7948,0.0,-3.0794,-3.0371,-3.0429,-3.0333,0.0,-2.9256,-2.9121,-2.8107,-2.8549,-2.9511,-3.0833,-3.1256,-3.2526,-3.5968,-3.7411,-3.9073,-4.1816,0.0,0.0,0.0,0.0,0.0,0.0,0.0,0.0,0.0,0.0,0.0,0.0,0.0,0.0,-5.5703,-5.6088,-5.6299,-5.6299,-5.6107,-5.6011,-5.5992,-5.5799,-5.5703,-5.5703,0.0,0.0,0.0,0.0,0.0,-5.5703,-5.5703,-5.5338,-5.4761,-5.4568,-5.4087,-5.3491,-5.328,-5.2654,-5.1904,-5.1904,-5.1375,-5.0712,-5.0712,-5.0712,-5.0712,-5.0712,-5.0624,-5.0554,-5.0554,-5.0493,-5.0347,-5.0043,-4.9962,-4.9885,-4.9561,-4.8926,-4.8096,-4.7094,-4.609,-4.5069,-4.4066,-4.3679,-4.3515,-4.3515,-4.3515,-4.3515,-4.3515,-4.3515,-4.3515,-4.3515,-4.3515,-4.3515,-4.3515,-4.3515,-4.3515,-4.3515,-4.3515,-4.3515,-4.3515,-4.3515,-4.3515,-4.3515,-4.3515,-4.3515,-4.3515,-4.3515,-4.3515,-4.3515,-4.3515,-4.3515,-4.3515,-4.3515,-4.3515,-2.5916,-2.7841,-2.9698,-2.964,-2.9967,-3.0063,-2.9236,-2.8486,-2.7717,-2.689,-2.7698,-2.8953,-3.0275,-3.1468,-3.3372,-3.6834,-3.8469,0.0,0.0,0.0,0.0,0.0,0.0,0.0,0.0,0.0,0.0,0.0,0.0,0.0,0.0,0.0,0.0,0.0,-5.5703,-5.5703,-5.5703,-5.5703,-5.5703,-5.5703,-5.5703,-5.5703,-5.5703,0.0,0.0,0.0,0.0,0.0,-5.5145,-5.5145,-5.4664,-5.3857,-5.3453,-5.3029,-5.2568,-5.2183,-5.1741,-5.1356,-5.1356,-5.1048,-5.0712,-5.0712,-5.0712,-5.0712,-5.0712,-5.0712,-5.0712,-5.0712,-5.0712,-5.0653,-5.0432,-5.0388,-5.0325,-5.0092,-4.9246,-4.8243,-4.7454,-4.6331,-4.524,-4.443,-4.3989,-4.3726,-4.3726,-4.3614,-4.3515,-4.3515,-4.3515,-4.3515,-4.3515,-4.3515,-4.3515,-4.3515,-4.3515,-4.3515,-4.3515,-4.3515,-4.3515,-4.3515,-4.3515,-4.3515,-4.3515,-4.3515,-4.3515,-4.3515,-4.3515,-4.3515,-4.3515,-4.3515,-4.3515,-4.3515,-4.3515,-4.3515,-2.5906,-2.8365,-3.0833,-3.0902,-3.1218,-3.1237,-3.025,-2.8346,-2.6582,-2.5846,-2.7082,-2.8613,-2.9704,-3.1877,-3.4321,-3.6888,-3.8857,0.0,0.0,0.0,0.0,0.0,0.0,0.0,0.0,0.0,0.0,0.0,0.0,0.0,0.0,0.0,0.0,0.0,-5.5703,-5.5703,-5.5703,-5.5703,-5.5703,-5.5703,-5.5703,-5.5703,-5.5703,-5.5703,0.0,0.0,0.0,0.0,-5.4299,-5.4299,-5.3799,-5.2933,-5.2192,-5.1827,-5.1635,-5.0952,-5.0712,-5.0712,-5.0712,-5.0712,-5.0712,-5.0712,-5.0712,-5.0712,-5.0712,-5.0712,-5.0712,-5.0712,-5.0712,-5.0712,-5.0712,-5.0712,-5.0712,-5.0712,-4.9684,-4.851,-4.7818,-4.6617,-4.5481,-4.4808,-4.4359,-4.4087,-4.4087,-4.3804,-4.358,-4.358,-4.3531,-4.3515,-4.3515,-4.3515,-4.3515,-4.3515,-4.3515,-4.3515,-4.3515,-4.3515,-4.3515,-4.3515,-4.3515,-4.3515,-4.3515,-4.3515,-4.3515,-4.3515,-4.3515,-4.3515,-4.3515,-4.3515,-4.3515,-4.3515,-4.3515,-4.3515,-2.8181,-3.073,-3.1895,-2.8285,-2.9,-3.0192,-2.864,-2.7986,-2.7659,-2.7525,-2.8832,-3.075,-3.3156,-3.4967,-3.6979,-3.9656,0.0,-4.4855,0.0,0.0,0.0,0.0,0.0,0.0,0.0,0.0,0.0,0.0,0.0,0.0,0.0,0.0,0.0,0.0,0.0,-5.5703,-5.5703,-5.5703,-5.5703,-5.5703,-5.5703,-5.5703,-5.5703,-5.5703,-5.5318,0.0,0.0,-5.4203,-5.3395,-5.3395,-5.2895,-5.2096,-5.1942,-5.1491,-5.0856,-5.075,-5.0712,-5.0712,-5.0712,-5.0712,-5.0712,-5.0712,-5.0712,-5.0712,-5.0712,-5.0712,-5.0712,-5.0712,-5.0712,-5.0712,-5.0712,-5.0712,-5.0712,-5.0712,-4.9423,-4.8174,-4.8049,-4.6534,-4.5182,-4.5049,-4.4745,-4.4514,-4.4514,-4.4175,-4.3924,-4.3924,-4.3677,-4.3515,-4.3515,-4.3515,-4.3515,-4.3515,-4.3515,-4.3515,-4.3515,-4.3515,-4.3515,-4.3515,-4.3515,-4.3515,-4.3515,-4.3515,-4.3515,-4.3515,-4.3515,-4.3515,-4.3515,-4.3515,-4.3515,-4.3515,-4.3515,-4.3515,-2.7023,-2.9525,-3.1323,-2.9315,-3.1413,-3.3768,-3.2997,-3.1748,-3.0742,-3.0718,-3.17,-3.3068,-3.4739,-3.6745,-3.9358,-4.2971,0.0,0.0,0.0,0.0,0.0,0.0,0.0,0.0,0.0,0.0,0.0,0.0,0.0,0.0,0.0,0.0,0.0,0.0,0.0,0.0,-5.5049,-5.5049,-5.5261,-5.5684,-5.5261,-5.5049,-5.503,-5.4568,-5.4145,-5.3799,0.0,-5.3299,-5.25,-5.25,-5.201,-5.1241,-5.1241,-5.1029,-5.0712,-5.0712,-5.0712,-5.0712,-5.0712,-5.0712,-5.0712,-5.0712,-5.0712,-5.0712,-5.0712,-5.0712,-5.0712,-5.0712,-5.0712,-5.0712,-5.0712,-5.0712,-5.0712,-5.0712,-4.9375,-4.8105,-4.8105,-4.6657,-4.5362,-4.5362,-4.5096,-4.4872,-4.4872,-4.458,-4.4318,-4.4318,-4.4194,-4.402,-4.3804,-4.3772,-4.3693,-4.3513,-4.3515,-4.3515,-4.3515,-4.3515,-4.3515,-4.3515,-4.3515,-4.3515,-4.3515,-4.3515,-4.3515,-4.3515,-4.3515,-4.3515,-4.3515,-4.3515,-4.3515,-4.3515,-4.3515,-4.3515,-2.6373,-2.8553,-3.0823,-3.1462,-3.3896,-3.6268,-3.6881,-3.5199,-3.3652,-3.4214,-3.501,-3.5868,-3.6701,-3.8954,0.0,-4.5946,0.0,0.0,0.0,0.0,0.0,0.0,0.0,0.0,0.0,0.0,0.0,0.0,0.0,0.0,0.0,0.0,0.0,0.0,0.0,0.0,-5.4236,-5.4236,-5.4534,-5.5107,-5.4491,-5.4203,-5.4164,-5.351,-5.3087,-5.2895,-5.2895,-5.2414,-5.1625,-5.1625,-5.126,-5.0712,-5.0712,-5.0712,-5.0712,-5.0712,-5.0712,-5.0712,-5.0712,-5.0712,-5.0712,-5.0712,-5.0712,-5.0712,-5.0712,-5.0712,-5.0712,-5.0712,-5.0712,-5.0712,-5.0712,-5.0712,-5.0654,-5.0442,-4.9221,-4.8048,-4.7855,-4.6644,-4.5594,-4.5594,-4.54,-4.5222,-4.5222,-4.4943,-4.4726,-4.4726,-4.4644,-4.4487,-4.4175,-4.4132,-4.4001,-4.3646,-4.3631,-4.358,-4.3515,-4.3515,-4.3515,-4.3515,-4.3515,-4.3515,-4.3515,-4.3515,-4.3515,-4.3515,-4.3515,-4.3515,-4.3515,-4.3515,-4.3515,-4.3515,-4.3515,-4.3515,-2.8652,-3.0078,-3.1445,-3.3828,-3.3945,-3.4105,-3.6537,-3.5699,-3.5073,-3.7436,-3.8621,-3.9519,-4.0432,-4.2692,-4.5276,-4.7882,0.0,0.0,0.0,0.0,0.0,0.0,0.0,0.0,0.0,0.0,0.0,0.0,0.0,0.0,0.0,0.0,0.0,0.0,0.0,0.0,-5.3472,-5.3472,-5.3449,-5.3376,-5.3318,-5.3299,-5.3299,-5.3241,-5.276,-5.1981,-5.1981,-5.1529,-5.0789,-5.0789,-5.075,-5.0712,-5.0712,-5.0712,-5.0712,-5.0712,-5.0712,-5.0712,-5.0712,-5.0712,-5.0712,-5.0712,-5.0712,-5.0712,-5.0712,-5.0712,-5.0712,-5.0712,-5.0712,-5.0712,-5.0712,-5.0712,-5.05,-4.9683,-4.8779,-4.7894,-4.7154,-4.6259,-4.5594,-4.5594,-4.5577,-4.5568,-4.5568,-4.5292,-4.5063,-4.5063,-4.4812,-4.458,-4.4553,-4.4553,-4.4387,-4.4016,-4.3971,-4.3852,-4.3531,-4.3515,-4.3515,-4.3515,-4.3515,-4.3515,-4.3515,-4.3515,-4.3515,-4.3515,-4.3515,-4.3515,-4.3515,-4.3515,-4.3515,-4.3515,-4.3515,-4.3515,-2.6914,-2.9394,-3.1934,-3.2891,-3.4467,-3.629,-3.8365,-3.8756,-3.9219,-4.1183,-4.1857,-4.2351,-4.3267,-4.4243,-4.5752,0.0,0.0,0.0,0.0,0.0,0.0,0.0,0.0,0.0,0.0,0.0,0.0,0.0,0.0,0.0,0.0,0.0,0.0,0.0,0.0,0.0,0.0,-5.2711,-5.2447,-5.1895,-5.223,-5.2385,-5.2365,-5.1875,-5.1471,-5.1144,-5.1144,-5.0971,-5.0712,-5.0712,-5.0712,-5.0712,-5.0712,-5.0712,-5.0712,-5.0712,-5.0712,-5.0712,-5.0712,-5.0712,-5.0712,-5.0712,-5.0712,-5.0712,-5.0712,-5.0712,-5.0712,-5.0712,-5.0712,-5.0712,-5.0712,-5.0308,-4.9798,-4.9471,-4.8355,-4.7269,-4.6962,-4.622,-4.5594,-4.5594,-4.5594,-4.5594,-4.5594,-4.5495,-4.541,-4.541,-4.5293,-4.515,-4.4931,-4.4908,-4.4769,-4.4401,-4.4146,-4.394,-4.3836,-4.3612,-4.3515,-4.3515,-4.3515,-4.3515,-4.3515,-4.3515,-4.3515,-4.3515,-4.3515,-4.3515,-4.3515,-4.3515,-4.3515,-4.3515,-4.3515,-4.3515,-2.6523,-2.9101,-3.1914,-3.2441,-3.4746,-3.748,-3.9785,-4.0762,-4.1816,-4.3991,-4.4456,-4.4632,-4.5237,-4.5387,0.0,0.0,0.0,0.0,0.0,0.0,0.0,0.0,0.0,0.0,0.0,0.0,0.0,0.0,0.0,0.0,0.0,0.0,0.0,0.0,0.0,0.0,0.0,-5.1942,-5.1672,-5.1108,-5.1465,-5.1638,-5.1567,-5.0972,-5.0712,-5.0712,-5.0712,-5.0712,-5.0712,-5.0712,-5.0712,-5.0712,-5.0712,-5.0712,-5.0712,-5.0712,-5.0712,-5.0712,-5.0712,-5.0712,-5.0712,-5.0712,-5.0712,-5.0654,-5.0366,-5.0289,-5.0231,-4.9952,-4.9875,-4.9875,-4.9875,-4.9644,-4.926,-4.874,-4.774,-4.6808,-4.6547,-4.6009,-4.5594,-4.5594,-4.5594,-4.5594,-4.5594,-4.5594,-4.5594,-4.5594,-4.5594,-4.5513,-4.5292,-4.5253,-4.5129,-4.4781,-4.4414,-4.4132,-4.3998,-4.3788,-4.3595,-4.3515,-4.3515,-4.3515,-4.3515,-4.3515,-4.3515,-4.3515,-4.3515,-4.3515,-4.3515,-4.3515,-4.3515,-4.3515,-4.3515,-4.3515,-2.8281,-2.957,-3.1328,-3.3008,-3.4746,-3.6973,-4.043,-4.1211,-4.2187,-4.5605,-4.6308,-4.6308,-4.6308,-4.6308,0.0,0.0,0.0,0.0,0.0,0.0,0.0,0.0,0.0,0.0,0.0,0.0,0.0,0.0,0.0,0.0,0.0,0.0,0.0,0.0,0.0,0.0,0.0,-5.1204,-5.1164,-5.1094,-5.1094,-5.1039,-5.0908,-5.0766,-5.0693,-5.0693,-5.0693,-5.0693,-5.0712,-5.0712,-5.0712,-5.0712,-5.0712,-5.0712,-5.0712,-5.0712,-5.0712,-5.0712,-5.0712,-5.0712,-5.0712,-5.0712,-5.0693,-5.0539,-4.9663,-4.9394,-4.9202,-4.8336,-4.8105,-4.8105,-4.8086,-4.874,-4.8952,-4.7298,-4.6885,-4.6644,-4.5787,-4.5594,-4.5594,-4.5594,-4.5594,-4.5594,-4.5594,-4.5594,-4.5594,-4.5594,-4.5594,-4.5594,-4.5594,-4.5594,-4.5457,-4.5129,-4.4793,-4.4447,-4.4028,-4.3998,-4.3849,-4.3513,-4.3515,-4.3515,-4.3515,-4.3515,-4.3515,-4.3515,-4.3515,-4.3515,-4.3515,-4.3515,-4.3515,-4.3515,-4.3515,-4.3515,-2.7383,-2.9961,-3.293,-3.4043,-3.7422,-4.0937,-4.2578,-4.2969,-4.3594,-4.584,-4.6308,-4.6308,-4.6308,-4.6308,0.0,0.0,0.0,0.0,0.0,0.0,0.0,0.0,0.0,0.0,0.0,0.0,0.0,0.0,0.0,0.0,0.0,0.0,0.0,0.0,0.0,0.0,0.0,0.0,-5.132,-5.131,-5.1213,-5.1117,-5.105,-5.1004,-5.0932,-5.0835,-5.0835,-5.0791,-5.0712,-5.0712,-5.0712,-5.0712,-5.0712,-5.0712,-5.0712,-5.0712,-5.0712,-5.0712,-5.0712,-5.0712,-5.0712,-5.0712,-5.0289,-4.974,-4.9471,-4.8971,-4.8432,-4.8182,-4.8105,-4.7971,-4.7413,-4.7451,-4.7528,-4.7019,-4.6432,-4.5913,-4.5671,-4.5594,-4.5594,-4.5594,-4.5594,-4.5594,-4.5594,-4.5594,-4.5594,-4.5594,-4.5594,-4.5594,-4.5594,-4.5594,-4.5568,-4.5457,-4.515,-4.4806,-4.4441,-4.4161,-4.3849,-4.3513,-4.3515,-4.3515,-4.3515,-4.3515,-4.3515,-4.3515,-4.3515,-4.3515,-4.3515,-4.3515,-4.3515,-4.3515,-4.3515,-4.3515,-2.9277,-3.168,-3.4453,-3.6719,-3.9629,-4.2422,-4.4297,-4.4726,-4.5039,-4.6074,-4.6308,-4.6308,-4.6308,-4.6308,0.0,0.0,0.0,0.0,0.0,0.0,0.0,0.0,0.0,0.0,0.0,0.0,0.0,0.0,0.0,0.0,0.0,0.0,0.0,0.0,0.0,0.0,0.0,0.0,0.0,-5.041,-5.0324,-5.026,-5.0257,-5.0824,-5.1067,-5.0979,-5.0979,-5.0738,-5.0349,-5.0287,-5.0059,-4.9734,-4.9682,-4.9663,-4.9663,-4.9663,-4.9663,-4.9663,-4.9663,-4.9663,-4.9663,-4.9663,-4.9317,-4.8817,-4.8509,-4.8048,-4.7548,-4.7201,-4.7105,-4.699,-4.6509,-4.6374,-4.6374,-4.6374,-4.597,-4.5594,-4.5594,-4.5594,-4.5594,-4.5594,-4.5594,-4.5594,-4.5594,-4.5594,-4.5594,-4.5594,-4.5594,-4.5594,-4.5594,-4.5594,-4.5594,-4.5594,-4.5419,-4.515,-4.4837,-4.4574,-4.429,-4.3962,-4.3946,-4.3868,-4.371,-4.3563,-4.3515,-4.3515,-4.3515,-4.3515,-4.3515,-4.3515,-4.3515,-4.3515,-4.3515,-4.3515,-3.248,-3.3926,-3.5742,-4.0117,-4.1426,-4.248,-4.5586,-4.6308,-4.6308,-4.6308,-4.6308,-4.6308,-4.6308,0.0,0.0,0.0,0.0,0.0,0.0,0.0,0.0,0.0,0.0,0.0,0.0,0.0,0.0,0.0,0.0,0.0,0.0,0.0,0.0,0.0,0.0,0.0,0.0,0.0,0.0,0.0,-4.8906,-4.8906,-4.8945,-5.029,-5.0884,-5.0875,-5.086,-5.0403,-4.9668,-4.9543,-4.9031,-4.8306,-4.818,-4.815,-4.8121,-4.8123,-4.8114,-4.8114,-4.8105,-4.8105,-4.8105,-4.8105,-4.8048,-4.7855,-4.7115,-4.6827,-4.6624,-4.5825,-4.5594,-4.5594,-4.5594,-4.5594,-4.5594,-4.5594,-4.5594,-4.5594,-4.5594,-4.5594,-4.5594,-4.5594,-4.5594,-4.5594,-4.5594,-4.5594,-4.5594,-4.5594,-4.5594,-4.5594,-4.5594,-4.5594,-4.5594,-4.5594,-4.5594,-4.5457,-4.5118,-4.5096,-4.4954,-4.4618,-4.4593,-4.4447,-4.4058,-4.3726,-4.3531,-4.3515,-4.3515,-4.3515,-4.3515,-4.3515,-4.3515,-4.3515,-4.3515,-4.3515,-3.0723,-3.3027,-3.5742,-4.0117,-4.3223,-4.5391,-4.6133,-4.6308,-4.6308,-4.6308,-4.6308,-4.6308,-4.6308,0.0,0.0,0.0,0.0,0.0,0.0,0.0,0.0,0.0,0.0,0.0,0.0,0.0,0.0,0.0,0.0,0.0,0.0,0.0,0.0,0.0,0.0,0.0,-4.8906,-4.8906,-4.8906,0.0,-4.8906,-4.8906,-4.8906,-4.9233,-4.9329,-4.922,-4.9097,-4.8954,-4.8774,-4.8748,-4.8635,-4.8455,-4.8427,-4.8415,-4.8398,-4.8312,-4.8253,-4.823,-4.815,-4.8105,-4.8105,-4.8105,-4.7682,-4.7135,-4.6942,-4.6413,-4.5845,-4.5652,-4.5594,-4.5594,-4.5594,-4.5594,-4.5594,-4.5594,-4.5594,-4.5594,-4.5594,-4.5594,-4.5594,-4.5594,-4.5594,-4.5594,-4.5594,-4.5594,-4.5594,-4.5594,-4.5594,-4.5594,-4.5594,-4.5594,-4.5594,-4.5594,-4.5594,-4.5457,-4.5118,-4.5096,-4.4954,-4.4618,-4.4593,-4.4553,-4.4474,-4.4106,-4.3756,-4.3515,-4.3515,-4.3515,-4.3515,-4.3515,-4.3515,-4.3515,-4.3515,-4.3515,-3.1055,-3.3379,-3.5937,-4.1113,-4.4355,-4.6308,-4.6308,-4.6308,-4.6308,-4.6308,-4.6308,-4.6308,0.0,0.0,0.0,0.0,0.0,0.0,0.0,0.0,0.0,0.0,0.0,0.0,0.0,0.0,0.0,0.0,0.0,0.0,0.0,0.0,0.0,0.0,0.0,0.0,-4.7656,-4.7656,-4.7656,-4.7656,-4.7656,-4.7656,-4.7676,-4.8516,-4.8865,-4.8794,-4.8728,-4.846,-4.8064,-4.8009,-4.7738,-4.7342,-4.727,-4.7271,-4.7242,-4.717,-4.7142,-4.713,-4.7068,-4.7054,-4.704,-4.7009,-4.6727,-4.6356,-4.6294,-4.5951,-4.5594,-4.5594,-4.5594,-4.5594,-4.5594,-4.5594,-4.5594,-4.5594,-4.5594,-4.5594,-4.5594,-4.5594,-4.5594,-4.5594,-4.5594,-4.5594,-4.5594,-4.5594,-4.5594,-4.5594,-4.5594,-4.5594,-4.5594,-4.5594,-4.5594,-4.5594,-4.5594,-4.5522,-4.5352,-4.5342,-4.5263,-4.5096,-4.5085,-4.5,-4.4849,-4.4638,-4.4373,-4.402,-4.3836,-4.3742,-4.3742,-4.358,-4.3515,-4.3515,-4.3515,-4.3515,-3.1055,-3.3691,-3.6523,-4.2266,-4.4902,-4.6113,-4.6269,-4.6308,-4.6308,-4.6308,-4.6308,0.0,0.0,0.0,0.0,0.0,0.0,0.0,0.0,0.0,0.0,0.0,0.0,0.0,0.0,0.0,0.0,0.0,0.0,0.0,0.0,0.0,0.0,0.0,0.0,-4.6308,-4.6308,-4.6308,-4.6308,-4.6308,-4.6308,-4.6308,-4.6348,-4.7793,-4.8457,-4.8457,-4.8457,-4.8047,-4.7363,-4.7251,-4.6788,-4.6119,-4.6005,-4.5974,-4.5974,-4.5936,-4.5928,-4.5928,-4.5907,-4.5899,-4.5885,-4.585,-4.5821,-4.5796,-4.5681,-4.5645,-4.5637,-4.5643,-4.5635,-4.5627,-4.5603,-4.5594,-4.5594,-4.5594,-4.5594,-4.5594,-4.5594,-4.5594,-4.5594,-4.5594,-4.5594,-4.5594,-4.5594,-4.5594,-4.5594,-4.5594,-4.5594,-4.5594,-4.5594,-4.5594,-4.5594,-4.5594,-4.5594,-4.5594,-4.5594,-4.5594,-4.5594,-4.5594,-4.5594,-4.5485,-4.5201,-4.5191,-4.5063,-4.4769,-4.4332,-4.4102,-4.4102,-4.382,-4.3679,-4.3679,-4.3679,-4.3646,-2.7266,-3.2305,-3.8047,-4.2578,-4.4433,-4.5371,-4.6133,-4.6308,-4.6308,0.0,0.0,0.0,0.0,0.0,0.0,0.0,0.0,0.0,0.0,0.0,0.0,0.0,0.0,0.0,0.0,0.0,0.0,0.0,0.0,0.0,0.0,0.0,-4.6308,-4.6308,-4.6308,0.0,-4.6308,-4.6308,-4.6308,-4.6308,-4.6308,-4.6308,-4.6308,-4.6543,-4.6641,-4.6641,-4.6641,-4.6582,-4.6465,-4.6445,-4.6386,-4.6268,-4.6248,-4.6247,-4.6226,-4.6115,-4.6077,-4.6069,-4.5932,-4.5899,-4.5899,-4.5881,-4.5896,-4.5872,-4.5877,-4.5852,-4.5846,-4.579,-4.5763,-4.5747,-4.5627,-4.5594,-4.5594,-4.5594,-4.5594,-4.5594,-4.5594,-4.5594,-4.5594,-4.5594,-4.5594,-4.5594,-4.5594,-4.5594,-4.5594,-4.5594,-4.5594,-4.5594,-4.5594,-4.5594,-4.5594,-4.5594,-4.5594,-4.5594,-4.5594,-4.5594,-4.5594,-4.5594,-4.5594,-4.5577,-4.555,-4.5522,-4.5513,-4.5476,-4.4842,-4.4514,-4.4514,-4.4474,-4.4447,-4.4447,-4.4447,-4.4266,-2.8066,-3.2793,-3.748,-4.1348,-4.293,-4.3906,-4.5254,-4.5566,-4.5703,-4.6191,0.0,0.0,0.0,0.0,0.0,0.0,0.0,0.0,0.0,0.0,0.0,0.0,0.0,0.0,0.0,0.0,0.0,0.0,0.0,0.0,0.0,-4.6308,-4.6308,-4.6308,-4.6308,0.0,-4.6308,-4.6308,-4.6308,-4.6308,-4.6308,-4.6308,-4.6308,-4.6308,-4.6308,-4.6308,-4.6308,-4.6308,-4.6308,-4.6308,-4.6308,-4.6308,-4.6308,-4.6308,-4.6289,-4.6226,-4.6203,-4.6201,-4.6145,-4.6119,-4.6115,-4.6039,-4.6005,-4.5995,-4.592,-4.5899,-4.589,-4.5852,-4.5855,-4.5839,-4.5769,-4.577,-4.577,-4.5725,-4.5715,-4.5685,-4.562,-4.5594,-4.5594,-4.5594,-4.5594,-4.5594,-4.5594,-4.5594,-4.5594,-4.5594,-4.5594,-4.5594,-4.5594,-4.5594,-4.5594,-4.5594,-4.5594,-4.5594,-4.5594,-4.5594,-4.5594,-4.5594,-4.5594,-4.5594,-4.5594,-4.5594,-4.5594,-4.5594,-4.5129,-4.4884,-4.4884,-4.4682,-4.4593,-4.4593,-4.4593,-4.4501,-2.8398,-3.1777,-3.4648,-3.8574,-4.0332,-4.1621,-4.3594,0.0,-4.4648,0.0,0.0,0.0,0.0,0.0,0.0,0.0,0.0,0.0,0.0,0.0,0.0,0.0,0.0,0.0,0.0,0.0,0.0,0.0,0.0,0.0,-4.6308,-4.6308,-4.6308,-4.6308,-4.6308,-4.6308,-4.6308,-4.6308,-4.6308,-4.6308,-4.6308,-4.6308,-4.6308,-4.6308,-4.6308,-4.6308,-4.6308,-4.6308,-4.6308,-4.6308,-4.6308,-4.6308,-4.6308,-4.6308,-4.6308,-4.6308,-4.6308,-4.6308,-4.6308,-4.6308,-4.6289,-4.6177,-4.6147,-4.6122,-4.6036,-4.5998,-4.5992,-4.5967,-4.594,-4.5936,-4.5907,-4.5899,-4.5891,-4.5821,-4.5803,-4.5749,-4.5627,-4.5594,-4.5594,-4.5594,-4.5594,-4.5594,-4.5594,-4.5594,-4.5594,-4.5594,-4.5594,-4.5594,-4.5594,-4.5594,-4.5594,-4.5594,-4.5594,-4.5594,-4.5594,-4.5594,-4.5594,-4.5594,-4.5594,-4.5594,-4.5594,-4.5594,-4.5594,-4.5594,-4.5352,-4.5222,-4.5222,-4.4977,-4.4842,-4.4842,-4.4842,-4.4806,-2.6016,-2.7324,-2.8691,-3.3769,-3.6309,-3.8242,-4.0801,0.0,0.0,0.0,0.0,0.0,0.0,0.0,0.0,0.0,0.0,0.0,0.0,0.0,0.0,0.0,0.0,0.0,0.0,0.0,0.0,0.0,0.0,0.0,-4.6308,-4.6308,-4.6308,-4.6308,-4.6308,-4.6308,-4.6308,-4.6308,-4.6308,-4.6308,-4.6308,-4.6308,-4.6308,-4.6308,-4.6308,-4.6308,-4.6308,-4.6308,-4.6308,-4.6308,-4.6308,-4.6308,-4.6308,-4.6308,-4.6308,-4.6308,-4.6308,-4.6308,-4.6308,-4.6308,-4.6308,-4.6289,-4.6289,-4.6289,-4.6289,-4.6289,-4.6248,-4.6138,-4.6084,-4.605,-4.5928,-4.5899,-4.5891,-4.5821,-4.5803,-4.5749,-4.5627,-4.5594,-4.5594,-4.5594,-4.5594,-4.5594,-4.5594,-4.5594,-4.5594,-4.5594,-4.5594,-4.5594,-4.5594,-4.5594,-4.5594,-4.5594,-4.5594,-4.5594,-4.5594,-4.5594,-4.5594,-4.5594,-4.5594,-4.5594,-4.5594,-4.5594,-4.5594,-4.5594,-4.5577,-4.5577,-4.5577,-4.5559,-4.5559,-4.5559,-4.5559,-4.539,-2.4698,-2.6454,-2.8429,-3.1437,-3.39,-3.6128,-3.8222,-4.0215,0.0,0.0,0.0,0.0,0.0,0.0,0.0,0.0,0.0,0.0,0.0,0.0,0.0,0.0,0.0,0.0,0.0,0.0,0.0,0.0,0.0,0.0,-4.6308,-4.6308,-4.6308,-4.6308,-4.6308,-4.6308,-4.6308,-4.6308,-4.6308,-4.6308,-4.6308,-4.6308,-4.6308,-4.6308,-4.6308,-4.6308,-4.6308,-4.6308,-4.6308,-4.6308,-4.6308,-4.6308,-4.6308,-4.6308,-4.6308,-4.6308,-4.6308,-4.6308,-4.6308,-4.6308,-4.6308,-4.6308,-4.6308,-4.6308,-4.6308,-4.6308,-4.6289,-4.6246,-4.6225,-4.6223,-4.6173,-4.617,-4.611,-4.5905,-4.5777,-4.5648,-4.5612,-4.5594,-4.5594,-4.5594,-4.5594,-4.5594,-4.5594,-4.5594,-4.5594,-4.5594,-4.5594,-4.5594,-4.5594,-4.5594,-4.5594,-4.5594,-4.5594,-4.5594,-4.5594,-4.5594,-4.5594,-4.5594,-4.5594,-4.5594,-4.5594,-4.5594,-4.5594,-4.5594,-4.5594,-4.5594,-4.5594,-4.5594,-4.5594,-4.5594,-4.5594,-4.555,-2.3268,-2.4884,-2.6955,-2.9313,-3.0944,-3.2747,-3.5688,0.0,0.0,0.0,0.0,0.0,0.0,0.0,0.0,0.0,0.0,0.0,0.0,0.0,0.0,0.0,0.0,0.0,0.0,0.0,0.0,0.0,0.0,0.0,-4.6308,-4.6308,-4.6308,-4.6308,-4.6308,-4.6308,-4.6308,-4.6308,-4.6308,-4.6308,-4.6308,-4.6308,-4.6308,-4.6308,-4.6308,-4.6308,-4.6308,-4.6308,-4.6308,-4.6308,-4.6308,-4.6308,-4.6308,-4.6308,-4.6308,-4.6308,-4.6308,-4.6308,-4.6308,-4.6308,-4.6308,-4.6308,-4.6308,-4.6308,-4.6308,-4.6308,-4.6308,-4.6308,-4.6308,-4.6308,-4.6308,-4.6268,-4.6198,-4.6001,-4.5839,-4.5691,-4.5661,-4.5627,-4.5594,-4.5594,-4.5594,-4.5594,-4.5594,-4.5594,-4.5594,-4.5594,-4.5594,-4.5594,-4.5594,-4.5594,-4.5594,-4.5594,-4.5594,-4.5594,-4.5594,-4.5594,-4.5594,-4.5594,-4.5594,-4.5594,-4.5594,-4.5594,-4.5594,-4.5594,-4.5594,-4.5594,-4.5594,-4.5594,-4.5594,-4.5594,-4.5594,-4.5594,0.0,0.0,0.0,-2.7157,0.0,0.0,-3.3167,0.0,0.0,0.0,0.0,0.0,0.0,0.0,0.0,0.0,0.0,0.0,0.0,0.0,0.0,0.0,0.0,0.0,0.0,0.0,0.0,0.0,0.0,-4.6308,-4.6308,-4.6308,-4.6308,-4.6308,-4.6308,-4.6308,-4.6308,-4.6308,-4.6308,-4.6308,-4.6308,-4.6308,-4.6308,-4.6308,-4.6308,-4.6308,-4.6308,-4.6308,-4.6308,-4.6308,-4.6308,-4.6308,-4.6308,-4.6308,-4.6308,-4.6308,-4.6308,-4.6308,-4.6308,-4.6308,-4.6308,-4.6308,-4.6308,-4.6308,-4.6308,-4.6308,-4.6308,-4.6308,-4.6308,-4.6308,-4.6308,-4.62,-4.6108,-4.6108,-4.5995,-4.5886,-4.5821,-4.57,-4.5612,-4.5594,-4.5594,-4.5594,-4.5594,-4.5594,-4.5594,-4.5594,-4.5594,-4.5594,-4.5594,-4.5594,-4.5594,-4.5594,-4.5594,-4.5594,-4.5594,-4.5594,-4.5594,-4.5594,-4.5594,-4.5594,-4.5594,-4.5594,-4.5594,-4.5594,-4.5594,-4.5594,-4.5594,-4.5594,-4.5594,-4.5594,-4.5594,-4.5594,-2.267,0.0,0.0,0.0,0.0,0.0,0.0,0.0,0.0,0.0,0.0,0.0,0.0,0.0,0.0,0.0,0.0,0.0,0.0,0.0,0.0,0.0,0.0,0.0,0.0,0.0,0.0,0.0,0.0,-4.6308,-4.6308,-4.6308,-4.6308,-4.6308,-4.6308,-4.6308,-4.6308,-4.6308,-4.6308,-4.6308,-4.6308,-4.6308,-4.6308,-4.6308,-4.6308,-4.6308,-4.6308,-4.6308,-4.6308,-4.6308,-4.6308,-4.6308,-4.6308,-4.6308,-4.6308,-4.6308,-4.6308,-4.6308,-4.6308,-4.6308,-4.6308,-4.6308,-4.6308,-4.6308,-4.6308,-4.6308,-4.6308,-4.6308,-4.6308,-4.6308,-4.6308,-4.62,-4.6108,-4.6108,-4.5995,-4.589,-4.5877,-4.5836,-4.5763,-4.5635,-4.5594,-4.5594,-4.5594,-4.5594,-4.5594,-4.5594,-4.5594,-4.5594,-4.5594,-4.5594,-4.5594,-4.5594,-4.5594,-4.5594,-4.5594,-4.5594,-4.5594,-4.5594,-4.5594,-4.5594,-4.5594,-4.5594,-4.5594,-4.5594,-4.5594,-4.5594,-4.5594,-4.5594,-4.5594,-4.5594,-4.5594,-4.5594,-2.3124,-2.3774,-2.487,-2.5134,0.0,0.0,0.0,-2.9438,0.0,0.0,0.0,0.0,0.0,0.0,0.0,0.0,0.0,0.0,0.0,0.0,0.0,0.0,0.0,0.0,0.0,0.0,0.0,0.0,-4.5215,-4.5215,-4.5215,-4.5215,-4.5371,-4.5742,-4.5762,-4.5937,-4.6308,-4.6308,-4.6308,-4.6308,-4.6308,-4.6308,-4.6308,-4.6308,-4.6308,-4.6308,-4.6308,-4.6308,-4.6308,-4.6308,-4.6308,-4.6308,-4.6308,-4.6308,-4.6308,-4.6308,-4.6308,-4.6308,-4.6308,-4.6308,-4.6308,-4.6308,-4.6308,-4.6308,-4.6308,-4.6308,-4.6308,-4.6308,-4.6308,-4.6308,-4.6308,-4.6247,-4.6177,-4.6177,-4.6119,-4.6047,-4.5992,-4.5985,-4.5935,-4.5751,-4.5691,-4.5669,-4.5669,-4.5635,-4.5594,-4.5594,-4.5594,-4.5594,-4.5594,-4.5594,-4.5594,-4.5594,-4.5594,-4.5594,-4.5594,-4.5594,-4.5594,-4.5594,-4.5594,-4.5594,-4.5594,-4.5594,-4.5594,-4.5594,-4.5594,-4.5594,-4.5594,-4.5594,-4.5594,-4.5594,-4.5594,-4.5594,-2.3793,-2.399,-2.4971,-2.6274,-2.5683,0.0,-2.8088,-2.828,0.0,0.0,0.0,0.0,0.0,0.0,0.0,0.0,0.0,0.0,0.0,0.0,0.0,0.0,0.0,0.0,0.0,0.0,0.0,-4.3691,-4.3691,-4.3691,-4.3691,-4.3691,-4.4062,-4.4824,-4.4863,-4.5234,-4.5996,-4.6016,-4.6016,-4.6016,-4.6113,-4.6152,-4.6152,-4.6269,-4.6308,-4.6308,-4.6308,-4.6308,-4.6308,-4.6308,-4.6308,-4.6308,-4.6308,-4.6308,-4.6308,-4.6308,-4.6308,-4.6308,-4.6308,-4.6308,-4.6308,-4.6308,-4.6308,-4.6308,-4.6308,-4.6308,-4.6308,-4.6308,-4.6308,-4.6308,-4.6308,-4.6308,-4.6308,-4.6308,-4.6308,-4.6268,-4.6147,-4.6119,-4.6084,-4.5974,-4.5866,-4.5809,-4.5809,-4.5711,-4.5624,-4.5618,-4.561,-4.562,-4.5594,-4.5594,-4.5594,-4.5594,-4.5594,-4.5594,-4.5594,-4.5594,-4.5594,-4.5594,-4.5594,-4.5594,-4.5594,-4.5594,-4.5594,-4.5594,-4.5594,-4.5594,-4.5594,-4.5594,-4.5594,-4.5594,-4.5594,-4.5594,-2.7164,-2.7491,-2.7876,-2.6851,0.0,0.0,-2.6519,-2.7005,0.0,0.0,0.0,0.0,0.0,0.0,0.0,0.0,0.0,0.0,0.0,0.0,0.0,0.0,0.0,0.0,0.0,0.0,-4.364,-4.3691,-4.3691,-4.3691,-4.3691,-4.3691,-4.3789,-4.3945,-4.3945,-4.4043,-4.4219,-4.4219,-4.4219,-4.4219,-4.4922,-4.5254,-4.5273,-4.5976,-4.6308,-4.6308,-4.6308,-4.6308,-4.6308,-4.6308,-4.6308,-4.6308,-4.6308,-4.6308,-4.6308,-4.6308,-4.6308,-4.6308,-4.6308,-4.6308,-4.6308,-4.6308,-4.6308,-4.6308,-4.6308,-4.6308,-4.6308,-4.6308,-4.6308,-4.6308,-4.6308,-4.6308,-4.6308,-4.6308,-4.6308,-4.6289,-4.6268,-4.6268,-4.6248,-4.6225,-4.6033,-4.5886,-4.5886,-4.5862,-4.5822,-4.5769,-4.5768,-4.5711,-4.562,-4.5594,-4.5594,-4.5594,-4.5594,-4.5594,-4.5594,-4.5594,-4.5594,-4.5594,-4.5594,-4.5594,-4.5594,-4.5594,-4.5594,-4.5594,-4.5594,-4.5594,-4.5594,-4.5594,-4.5594,-4.5594,-4.5594,-4.5594,-2.8357,-2.8184,-2.8396,-2.7967,0.0,0.0,0.0,0.0,-2.6851,0.0,0.0,0.0,0.0,0.0,0.0,0.0,0.0,0.0,0.0,0.0,0.0,0.0,0.0,0.0,0.0,0.0,-4.1791,-4.2225,-4.2325,-4.2328,-4.2268,-4.2378,-4.2616,-4.2998,-4.3026,-4.3262,-4.3691,-4.3691,-4.3691,-4.3711,-4.4141,-4.4355,-4.4375,-4.5254,-4.5644,-4.5683,-4.6113,-4.6308,-4.6308,-4.6308,-4.6308,-4.6308,-4.6308,-4.6308,-4.6308,-4.6308,-4.6308,-4.6308,-4.6308,-4.6308,-4.6308,-4.6308,-4.6308,-4.6308,-4.6308,-4.6308,-4.6308,-4.6308,-4.6308,-4.6308,-4.6308,-4.6308,-4.6308,-4.6308,-4.6308,-4.6308,-4.6308,-4.6308,-4.6308,-4.6308,-4.6198,-4.608,-4.6005,-4.5936,-4.59,-4.585,-4.5839,-4.5836,-4.5751,-4.572,-4.57,-4.57,-4.5643,-4.5594,-4.5594,-4.5594,-4.5594,-4.5594,-4.5594,-4.5594,-4.5594,-4.5594,-4.5594,-4.5594,-4.5594,-4.5594,-4.5594,-4.5594,-4.5594,-4.5594,-4.5594,-4.5594,0.0,0.0,0.0,0.0,0.0,-2.7948,0.0,0.0,0.0,-2.7178,0.0,0.0,0.0,0.0,0.0,0.0,0.0,0.0,0.0,0.0,0.0,0.0,0.0,0.0,0.0,0.0,-3.9279,-4.026,-4.0115,-4.0162,-4.0552,-4.0766,-4.1236,-4.1998,-4.2053,-4.2436,-4.3139,-4.3139,-4.3141,-4.3182,-4.3317,-4.3416,-4.3476,-4.4335,-4.4824,-4.5039,-4.5742,-4.6133,-4.6308,-4.6308,-4.6308,-4.6308,-4.6308,-4.6308,-4.6308,-4.6308,-4.6308,-4.6308,-4.6308,-4.6308,-4.6308,-4.6308,-4.6308,-4.6308,-4.6308,-4.6308,-4.6308,-4.6308,-4.6308,-4.6308,-4.6308,-4.6308,-4.6308,-4.6308,-4.6308,-4.6308,-4.6308,-4.6308,-4.6308,-4.6308,-4.6308,-4.6268,-4.617,-4.6045,-4.5974,-4.5936,-4.5932,-4.5924,-4.5903,-4.585,-4.5828,-4.5828,-4.572,-4.5645,-4.5643,-4.5635,-4.5618,-4.5594,-4.5594,-4.5594,-4.5594,-4.5594,-4.5594,-4.5594,-4.5594,-4.5594,-4.5594,-4.5594,-4.5594,-4.5594,-4.5594,-4.5594,0.0,0.0,0.0,0.0,-3.1243,0.0,0.0,0.0,-2.7217,-2.5865,0.0,0.0,0.0,0.0,0.0,0.0,0.0,0.0,0.0,0.0,0.0,0.0,0.0,0.0,0.0,0.0,0.0,-3.8465,-3.7218,-3.7374,-3.9629,-3.9763,-4.0156,-4.0953,-4.0983,-4.1029,-4.1126,-4.1126,-4.1184,-4.1316,-4.1967,-4.2371,-4.2578,-4.3385,-4.4207,-4.5019,-4.5098,-4.5586,-4.6308,-4.6308,-4.6308,-4.6308,-4.6308,-4.6308,-4.6308,-4.6308,-4.6308,-4.6308,-4.6308,-4.6308,-4.6308,-4.6308,-4.6308,-4.6308,-4.6308,-4.6308,-4.6308,-4.6308,-4.6308,-4.6308,-4.6308,-4.6308,-4.6308,-4.6308,-4.6308,-4.6308,-4.6308,-4.6308,-4.6308,-4.6308,-4.6308,-4.6308,-4.6289,-4.6268,-4.6203,-4.6106,-4.608,-4.6036,-4.5912,-4.589,-4.59,-4.59,-4.5886,-4.585,-4.5783,-4.5789,-4.5737,-4.5603,-4.5594,-4.5594,-4.5594,-4.5594,-4.5594,-4.5594,-4.5594,-4.5594,-4.5594,-4.5594,-4.5594,-4.5594,-4.5594,-4.5594,0.0,0.0,0.0,0.0,0.0,0.0,-2.7601,0.0,-2.6467,0.0,0.0,0.0,0.0,0.0,0.0,0.0,0.0,0.0,0.0,0.0,0.0,0.0,0.0,0.0,0.0,0.0,0.0,0.0,0.0,-3.6347,-3.784,-3.8993,-3.9711,-3.9985,-4.0516,-4.0797,-4.0797,-4.0797,-4.0839,-4.0896,-4.119,-4.139,-4.151,-4.2343,-4.293,-4.3348,-4.3856,-4.4577,-4.5375,-4.5375,-4.5687,-4.6177,-4.6177,-4.6225,-4.6308,-4.6308,-4.6308,-4.6308,-4.6308,-4.6308,-4.6308,-4.6308,-4.6308,-4.6308,-4.6308,-4.6308,-4.6308,-4.6308,-4.6308,-4.6308,-4.6308,-4.6308,-4.6308,-4.6308,-4.6308,-4.6308,-4.6308,-4.6308,-4.6308,-4.6308,-4.6308,-4.6308,-4.6308,-4.6308,-4.6289,-4.6224,-4.6222,-4.6199,-4.6144,-4.6053,-4.6027,-4.6027,-4.5959,-4.59,-4.5866,-4.5861,-4.5834,-4.5789,-4.5742,-4.5723,-4.5723,-4.5643,-4.5594,-4.5594,-4.5594,-4.5594,-4.5594,-4.5594,-4.5594,-4.5594,-4.5594,-4.5594,-3.439,0.0,0.0,0.0,0.0,0.0,0.0,0.0,0.0,0.0,0.0,0.0,0.0,0.0,0.0,-2.5692,0.0,0.0,0.0,0.0,0.0,0.0,0.0,0.0,0.0,0.0,0.0,0.0,0.0,0.0,-3.6276,-3.7929,-3.8981,-3.9353,-4.0245,-4.0723,-4.0723,-4.0723,-4.0738,-4.077,-4.0738,-4.0757,-4.0817,-4.1434,-4.187,-4.2132,-4.2778,-4.3537,-4.4335,-4.4335,-4.4883,-4.5713,-4.5713,-4.5917,-4.62,-4.6269,-4.6308,-4.6308,-4.6308,-4.6308,-4.6308,-4.6308,-4.6308,-4.6308,-4.6308,-4.6308,-4.6308,-4.6308,-4.6308,-4.6308,-4.6308,-4.6308,-4.6308,-4.6308,-4.6308,-4.6308,-4.6308,-4.6308,-4.6308,-4.6308,-4.6308,-4.6308,-4.6308,-4.6308,-4.6308,-4.6308,-4.6308,-4.6308,-4.6308,-4.6222,-4.6149,-4.6149,-4.6075,-4.5992,-4.5967,-4.5944,-4.5932,-4.5903,-4.585,-4.5826,-4.5826,-4.5718,-4.5648,-4.5648,-4.5629,-4.5594,-4.5594,-4.5594,-4.5594,-4.5594,-4.5594,-4.5594,0.0,0.0,0.0,-3.1604,0.0,0.0,0.0,0.0,-2.853,0.0,0.0,0.0,0.0,0.0,-2.7544,-2.6697,-2.6582,0.0,0.0,0.0,0.0,0.0,0.0,0.0,0.0,0.0,0.0,0.0,0.0,0.0,-3.5327,-3.6341,-3.756,-3.9253,-4.0088,-4.0512,-4.0512,-4.0512,-4.0568,-4.0703,-4.0561,-4.0604,-4.0793,-4.0751,-4.1237,-4.2093,-4.2132,-4.2642,-4.3444,-4.3444,-4.3969,-4.4748,-4.4748,-4.5211,-4.5936,-4.6201,-4.6308,-4.6308,-4.6308,-4.6308,-4.6308,-4.6308,-4.6308,-4.6308,-4.6308,-4.6308,-4.6308,-4.6308,-4.6308,-4.6308,-4.6308,-4.6308,-4.6308,-4.6308,-4.6308,-4.6308,-4.6308,-4.6308,-4.6308,-4.6308,-4.6308,-4.6308,-4.6308,-4.6308,-4.6308,-4.6308,-4.6308,-4.6308,-4.6308,-4.6308,-4.6289,-4.6289,-4.6289,-4.6226,-4.6091,-4.6087,-4.6039,-4.5907,-4.5899,-4.5894,-4.5894,-4.5819,-4.579,-4.579,-4.5665,-4.5594,-4.5594,-4.5594,-4.5594,-4.5594,-4.5594,-4.5594,0.0,0.0,-3.7163,-3.3495,0.0,0.0,0.0,0.0,0.0,0.0,0.0,0.0,0.0,-2.7895,-2.7601,-2.6736,-2.6601,-2.5909,0.0,0.0,0.0,0.0,0.0,0.0,0.0,0.0,0.0,-2.9833,-2.9434,0.0,0.0,-3.4846,-3.6423,-3.7546,-3.895,-3.9958,-4.0496,-4.0496,-4.0527,-4.0574,-4.0527,-4.0545,-4.0604,-4.0582,-4.0744,-4.1042,-4.1042,-4.1545,-4.2337,-4.2337,-4.2885,-4.376,-4.4336,-4.4783,-4.5176,-4.5803,-4.6087,-4.6175,-4.6268,-4.6308,-4.6308,-4.6308,-4.6308,-4.6308,-4.6308,-4.6308,-4.6308,-4.6308,-4.6308,-4.6308,-4.6308,-4.6308,-4.6308,-4.6308,-4.6308,-4.6308,-4.6308,-4.6308,-4.6308,-4.6308,-4.6308,-4.6308,-4.6308,-4.6308,-4.6308,-4.6308,-4.6308,-4.6308,-4.6308,-4.6308,-4.6308,-4.6308,-4.6308,-4.6289,-4.6245,-4.6226,-4.6203,-4.6173,-4.6082,-4.6036,-4.6036,-4.5923,-4.5876,-4.5876,-4.5828,-4.5799,-4.5799,-4.5799,-4.5783,-4.5725,-4.5725,-4.5677,-3.7578,-3.7833,0.0,0.0,-3.3581,0.0,-2.9314,0.0,0.0,0.0,0.0,0.0,0.0,0.0,-2.8214,-2.782,-2.7105,-2.5928,0.0,0.0,0.0,0.0,0.0,0.0,0.0,0.0,-2.6409,-2.8082,-2.8203,-2.9102,0.0,0.0,-3.5423,-3.625,-3.8238,-3.9554,-4.0073,-4.0362,-4.0496,-4.0496,-4.0496,-4.0496,-4.0496,-4.0496,-4.0496,-4.0496,-4.0496,-4.0823,-4.1335,-4.1335,-4.1882,-4.2788,-4.3657,-4.4234,-4.4666,-4.558,-4.5944,-4.6042,-4.614,-4.617,-4.617,-4.617,-4.6198,-4.6225,-4.6225,-4.6268,-4.6308,-4.6308,-4.6308,-4.6308,-4.6308,-4.6308,-4.6308,-4.6308,-4.6308,-4.6308,-4.6308,-4.6308,-4.6308,-4.6308,-4.6308,-4.6308,-4.6308,-4.6308,-4.6308,-4.6308,-4.6308,-4.6308,-4.6308,-4.6308,-4.6308,-4.6308,-4.6308,-4.6308,-4.6308,-4.6308,-4.6308,-4.6308,-4.6223,-4.6173,-4.6173,-4.6042,-4.5978,-4.5978,-4.592,-4.5899,-4.5899,-4.5899,-4.5877,-4.585,-4.585,-4.579]},{"header":{"parameterUnit":"m.s-1","parameterCategory":1,"la1":30.6,"la2":29.2853,"lo1":-89.7004,"lo2":-87.6739,"dy":0.0162,"dx":0.0183,"nx":112,"ny":82,"refTime":"2024-06-19T06:00:00:Z","depth":0,"parameterNumber":3,"parameterNumberName":"V-component_of_WINDS"},"data":[0.0,0.0,0.0,0.0,0.0,0.0,0.0,0.0,0.0,0.0,0.0,0.0,0.0,0.0,0.0,0.0,0.0,0.0,0.0,0.0,0.0,0.0,0.0,0.0,0.0,0.0,0.0,0.0,0.0,0.0,0.0,0.0,0.0,0.0,0.0,0.0,0.0,0.0,0.0,0.0,0.0,0.0,0.0,0.0,0.0,0.0,0.0,0.0,0.0,0.0,0.0,0.0,0.0,0.0,0.0,0.0,0.0,0.0,0.0,0.0,0.0,0.0,0.0,0.0,0.0,0.0,0.0,0.0,0.0,0.0,0.0,0.0,0.0,0.0,0.0,0.0,0.0,0.0,0.0,0.0,0.0,0.0,0.0,0.0,0.0,0.0,0.0,0.0,0.0,0.0,0.0,-1.9883,-2.1875,-2.3276,-2.375,-2.2939,-2.1338,-1.8763,0.0,0.0,0.0,0.0,0.0,0.0,0.0,0.0,0.0,0.0,0.0,0.0,0.0,0.0,0.0,0.0,0.0,0.0,0.0,0.0,0.0,0.0,0.0,0.0,0.0,0.0,0.0,0.0,0.0,0.0,0.0,0.0,0.0,0.0,0.0,0.0,0.0,0.0,0.0,0.0,0.0,0.0,0.0,0.0,0.0,0.0,0.0,0.0,0.0,0.0,0.0,0.0,0.0,0.0,0.0,0.0,0.0,0.0,0.0,0.0,0.0,0.0,0.0,0.0,0.0,0.0,0.0,0.0,0.0,0.0,0.0,0.0,0.0,0.0,0.0,0.0,0.0,0.0,0.0,0.0,0.0,0.0,0.0,0.0,0.0,0.0,0.0,0.0,0.0,0.0,0.0,0.0,0.0,0.0,0.0,0.0,0.0,0.0,0.0,0.0,0.0,0.0,0.0,0.0,-1.9394,-2.2754,-2.3125,-2.3276,-2.375,-2.2676,-2.1025,-1.8744,0.0,0.0,0.0,0.0,0.0,0.0,0.0,0.0,0.0,0.0,0.0,0.0,0.0,0.0,0.0,0.0,0.0,0.0,0.0,0.0,0.0,0.0,0.0,0.0,0.0,0.0,0.0,0.0,0.0,0.0,0.0,0.0,0.0,0.0,0.0,0.0,0.0,0.0,0.0,0.0,0.0,0.0,0.0,0.0,0.0,0.0,0.0,0.0,0.0,0.0,0.0,0.0,0.0,0.0,0.0,0.0,0.0,0.0,0.0,0.0,0.0,0.0,0.0,0.0,0.0,0.0,0.0,0.0,0.0,0.0,0.0,0.0,0.0,0.0,0.0,0.0,0.0,0.0,0.0,0.0,0.0,0.0,0.0,0.0,0.0,0.0,0.0,0.0,0.0,0.0,0.0,0.0,0.0,0.0,0.0,0.0,0.0,0.0,0.0,0.0,0.0,0.0,0.0,-1.835,-1.9922,-2.3096,-2.3218,-2.3179,-2.3418,-2.248,-2.0957,-1.8744,-1.7594,0.0,0.0,0.0,0.0,0.0,0.0,0.0,0.0,0.0,0.0,0.0,0.0,0.0,0.0,0.0,0.0,0.0,0.0,0.0,0.0,0.0,0.0,0.0,0.0,0.0,0.0,0.0,0.0,0.0,0.0,0.0,0.0,0.0,0.0,0.0,0.0,0.0,0.0,0.0,0.0,0.0,0.0,0.0,0.0,0.0,0.0,0.0,0.0,0.0,0.0,0.0,0.0,0.0,0.0,0.0,0.0,0.0,0.0,0.0,0.0,0.0,0.0,0.0,0.0,0.0,0.0,0.0,0.0,0.0,0.0,0.0,0.0,0.0,0.0,0.0,0.0,0.0,0.0,0.0,0.0,0.0,0.0,0.0,0.0,0.0,0.0,0.0,0.0,0.0,0.0,0.0,0.0,0.0,0.0,0.0,0.0,0.0,0.0,0.0,0.0,0.0,0.0,-1.9717,-2.0732,-2.2867,-2.3091,-2.3091,-2.3091,-2.208,-2.0586,-1.8578,-1.697,0.0,0.0,0.0,0.0,0.0,0.0,0.0,0.0,0.0,0.0,0.0,0.0,0.0,0.0,0.0,0.0,0.0,0.0,0.0,0.0,0.0,0.0,0.0,0.0,0.0,0.0,0.0,0.0,0.0,0.0,0.0,0.0,0.0,0.0,0.0,0.0,0.0,0.0,0.0,0.0,0.0,0.0,0.0,0.0,0.0,0.0,0.0,0.0,0.0,0.0,0.0,0.0,0.0,0.0,0.0,0.0,0.0,0.0,0.0,0.0,0.0,0.0,0.0,0.0,0.0,0.0,0.0,0.0,0.0,0.0,0.0,0.0,0.0,0.0,0.0,0.0,0.0,0.0,0.0,0.0,0.0,0.0,0.0,0.0,0.0,0.0,0.0,0.0,0.0,0.0,0.0,0.0,0.0,0.0,0.0,0.0,0.0,0.0,0.0,0.0,0.0,0.0,-2.0225,-2.207,-2.2994,-2.3091,-2.3091,-2.3091,-2.12,-1.9482,-1.8135,-1.5673,0.0,0.0,0.0,0.0,0.0,0.0,0.0,0.0,0.0,0.0,0.0,0.0,0.0,0.0,0.0,0.0,0.0,0.0,0.0,0.0,0.0,0.0,0.0,0.0,0.0,0.0,0.0,0.0,0.0,0.0,0.0,0.0,0.0,0.0,0.0,0.0,0.0,0.0,0.0,0.0,0.0,0.0,0.0,0.0,0.0,0.0,0.0,0.0,0.0,0.0,0.0,0.0,0.0,0.0,0.0,0.0,0.0,0.0,0.0,0.0,0.0,0.0,0.0,0.0,0.0,0.0,0.0,0.0,0.0,0.0,0.0,0.0,0.0,0.0,0.0,0.0,0.0,0.0,0.0,0.0,0.0,0.0,0.0,0.0,0.0,0.0,0.0,0.0,0.0,0.0,0.0,0.0,0.0,0.0,0.0,0.0,0.0,0.0,0.0,0.0,0.0,0.0,-1.9561,-2.1289,0.0,-2.3091,-2.3091,-2.3091,-2.1914,-2.0244,-1.8144,0.0,0.0,0.0,0.0,0.0,0.0,0.0,0.0,0.0,0.0,0.0,0.0,0.0,0.0,0.0,0.0,0.0,0.0,0.0,0.0,0.0,0.0,0.0,0.0,0.0,0.0,0.0,0.0,0.0,0.0,0.0,0.0,0.0,0.0,0.0,0.0,0.0,0.0,0.0,0.0,0.0,0.0,0.0,0.0,0.0,0.0,0.0,0.0,0.0,0.0,0.0,0.0,0.0,0.0,0.0,0.0,0.0,0.0,0.0,0.0,0.0,0.0,0.0,0.0,0.0,0.0,0.0,0.0,0.0,0.0,0.0,0.0,0.0,0.0,0.0,0.0,0.0,0.0,0.0,0.0,0.0,0.0,0.0,0.0,0.0,0.0,0.0,0.0,0.0,0.0,0.0,0.0,0.0,0.0,0.0,0.0,0.0,0.0,0.0,0.0,0.0,0.0,-1.7764,-1.9492,-2.1211,0.0,-2.3091,-2.3091,-2.3091,-2.1865,-2.0185,-1.8135,0.0,0.0,0.0,0.0,0.0,0.0,0.0,0.0,0.0,0.0,0.0,0.0,0.0,0.0,0.0,0.0,0.0,0.0,0.0,0.0,0.0,0.0,0.0,0.0,0.0,0.0,0.0,0.0,0.0,0.0,0.0,0.0,0.0,0.0,0.0,0.0,0.0,0.0,0.0,0.0,0.0,0.0,0.0,0.0,0.0,0.0,0.0,0.0,0.0,0.0,0.0,0.0,0.0,0.0,0.0,0.0,0.0,0.0,0.0,0.0,0.0,0.0,0.0,0.0,0.0,0.0,0.0,0.0,0.0,0.0,0.0,0.0,0.0,0.0,0.0,0.0,0.0,0.0,0.0,0.0,0.0,0.0,0.0,0.0,0.0,0.0,0.0,0.0,0.0,0.0,0.0,0.0,0.0,0.0,0.0,0.0,0.0,0.0,0.0,0.0,0.0,0.0,-1.7842,-2.0273,-2.2207,-2.3003,-2.3091,-2.3091,-2.3091,-2.0791,-1.8936,0.0,0.0,0.0,0.0,0.0,0.0,0.0,0.0,0.0,0.0,0.0,0.0,0.0,0.0,0.0,0.0,0.0,0.0,0.0,0.0,0.0,0.0,0.0,0.0,0.0,0.0,0.0,0.0,0.0,0.0,0.0,0.0,0.0,0.0,0.0,0.0,0.0,0.0,0.0,0.0,0.0,0.0,0.0,0.0,0.0,0.0,0.0,0.0,0.0,0.0,0.0,0.0,0.0,0.0,0.0,0.0,0.0,0.0,0.0,0.0,0.0,0.0,0.0,0.0,0.0,0.0,0.0,0.0,0.0,0.0,0.0,0.0,0.0,0.0,0.0,0.0,0.0,0.0,0.0,0.0,0.0,0.0,0.0,0.0,0.0,0.0,0.0,0.0,0.0,0.0,0.0,0.0,0.0,0.0,0.0,0.0,0.0,0.0,0.0,0.0,0.0,0.0,0.0,-1.7842,-2.0273,-2.2207,-2.3003,-2.3091,-2.3091,-2.3091,-2.158,-1.9865,-1.8115,0.0,0.0,0.0,0.0,0.0,0.0,0.0,0.0,0.0,0.0,0.0,0.0,0.0,0.0,0.0,0.0,0.0,0.0,0.0,0.0,0.0,0.0,0.0,0.0,0.0,0.0,0.0,0.0,0.0,0.0,0.0,0.0,0.0,0.0,0.0,0.0,0.0,0.0,0.0,0.0,0.0,0.0,0.0,0.0,0.0,0.0,0.0,0.0,0.0,0.0,0.0,0.0,0.0,0.0,0.0,0.0,0.0,0.0,0.0,0.0,0.0,0.0,0.0,0.0,0.0,0.0,0.0,0.0,0.0,0.0,0.0,0.0,0.0,0.0,0.0,0.0,0.0,0.0,0.0,0.0,0.0,0.0,0.0,0.0,0.0,0.0,0.0,0.0,0.0,0.0,0.0,0.0,0.0,0.0,0.0,0.0,0.0,0.0,0.0,0.0,0.0,0.0,-1.7822,-2.0273,-2.2207,-2.3003,-2.3091,-2.3091,-2.3091,-2.1921,-2.0342,-1.8354,0.0,0.0,0.0,0.0,0.0,0.0,0.0,0.0,0.0,0.0,0.0,0.0,0.0,0.0,0.0,0.0,0.0,0.0,0.0,0.0,0.0,0.0,0.0,0.0,0.0,0.0,0.0,0.0,0.0,0.0,0.0,0.0,0.0,0.0,0.0,0.0,0.0,0.0,0.0,0.0,0.0,0.0,0.0,0.0,0.0,0.0,0.0,0.0,0.0,0.0,0.0,0.0,0.0,0.0,0.0,0.0,0.0,0.0,0.0,0.0,0.0,0.0,0.0,0.0,0.0,0.0,0.0,0.0,0.0,0.0,0.0,0.0,0.0,0.0,0.0,0.0,0.0,0.0,0.0,0.0,0.0,0.0,0.0,0.0,0.0,0.0,0.0,0.0,0.0,0.0,0.0,0.0,0.0,0.0,0.0,0.0,0.0,0.0,0.0,0.0,0.0,0.0,-1.7793,-2.0273,-2.2207,-2.3003,-2.3091,-2.3091,-2.3091,-2.1921,-2.0469,-1.8773,0.0,0.0,0.0,0.0,0.0,0.0,0.0,0.0,0.0,0.0,0.0,0.0,0.0,0.0,0.0,0.0,0.0,0.0,0.0,0.0,0.0,0.0,0.0,0.0,0.0,0.0,0.0,0.0,0.0,0.0,0.0,0.0,0.0,0.0,0.0,0.0,0.0,0.0,0.0,0.0,0.0,0.0,0.0,0.0,0.0,0.0,0.0,0.0,0.0,0.0,0.0,0.0,0.0,0.0,0.0,0.0,0.0,0.0,0.0,0.0,-1.0027,0.0,0.0,0.0,0.0,0.0,0.0,0.0,0.0,0.0,0.0,0.0,0.0,0.0,0.0,0.0,0.0,0.0,0.0,0.0,0.0,0.0,0.0,0.0,0.0,0.0,0.0,0.0,0.0,0.0,0.0,0.0,0.0,0.0,0.0,0.0,0.0,0.0,0.0,0.0,0.0,0.0,-1.7832,-2.0273,-2.2207,-2.3003,-2.3091,-2.3091,-2.3091,-2.1921,-2.0596,-1.9238,-1.6797,0.0,0.0,0.0,0.0,0.0,0.0,0.0,0.0,0.0,0.0,0.0,0.0,0.0,0.0,0.0,0.0,0.0,0.0,0.0,0.0,0.0,0.0,0.0,0.0,0.0,0.0,0.0,0.0,0.0,0.0,0.0,0.0,0.0,0.0,0.0,0.0,0.0,0.0,0.0,0.0,0.0,0.0,0.0,0.0,0.0,0.0,0.0,0.0,0.0,0.0,0.0,0.0,0.0,0.0,0.0,0.0,0.0,0.0,0.0,0.0,-1.0963,0.0,0.0,0.0,0.0,0.0,0.0,0.0,0.0,0.0,0.0,0.0,0.0,0.0,0.0,0.0,0.0,0.0,0.0,0.0,0.0,0.0,0.0,0.0,0.0,0.0,0.0,0.0,0.0,0.0,0.0,0.0,0.0,0.0,0.0,0.0,0.0,0.0,0.0,0.0,0.0,-1.8081,-2.04,-2.2207,-2.3003,-2.3091,-2.3013,-2.2808,-2.2041,-2.0986,-1.9668,-1.7744,0.0,0.0,0.0,0.0,0.0,0.0,0.0,0.0,0.0,0.0,0.0,0.0,0.0,0.0,0.0,0.0,0.0,0.0,0.0,0.0,0.0,0.0,0.0,0.0,0.0,0.0,0.0,0.0,0.0,0.0,0.0,0.0,0.0,0.0,0.0,0.0,0.0,0.0,0.0,0.0,0.0,0.0,0.0,0.0,0.0,0.0,0.0,0.0,0.0,0.0,0.0,0.0,0.0,0.0,-1.1684,-1.2161,-1.3567,-1.4511,-1.4819,-1.2511,-1.17,-1.2047,0.0,0.0,0.0,0.0,0.0,0.0,0.0,0.0,0.0,0.0,0.0,0.0,0.0,0.0,0.0,0.0,0.0,0.0,0.0,0.0,0.0,0.0,0.0,0.0,0.0,-1.3742,-1.3919,0.0,0.0,0.0,0.0,0.0,0.0,0.0,0.0,0.0,0.0,0.0,0.0,-1.8607,-2.0693,-2.2295,-2.3013,-2.3091,-2.2925,-2.2549,-2.2129,-2.1357,-2.0107,-1.876,-1.7334,0.0,0.0,0.0,0.0,0.0,0.0,0.0,0.0,0.0,0.0,0.0,0.0,0.0,0.0,0.0,0.0,0.0,0.0,0.0,0.0,0.0,0.0,0.0,0.0,0.0,0.0,0.0,0.0,0.0,0.0,0.0,0.0,-0.4867,-0.5235,0.0,0.0,0.0,0.0,0.0,0.0,0.0,0.0,0.0,0.0,0.0,0.0,0.0,0.0,-0.7265,-0.7722,-0.7997,-0.8039,-0.8672,-0.9682,-1.0917,-1.1143,-1.2572,-1.4785,-1.4414,0.0,-1.4094,-1.39,0.0,0.0,0.0,0.0,0.0,0.0,0.0,0.0,0.0,0.0,0.0,0.0,0.0,0.0,0.0,0.0,0.0,0.0,0.0,0.0,0.0,0.0,-1.4983,-1.4774,-1.4807,-1.4747,0.0,-1.373,-1.3288,-1.3156,0.0,0.0,0.0,0.0,0.0,0.0,0.0,0.0,-1.957,-2.1318,-2.2607,-2.3042,-2.3091,-2.2925,-2.2549,-2.2129,-2.1484,-2.0576,-1.8926,-1.7744,-1.7148,-1.5176,0.0,0.0,0.0,0.0,0.0,0.0,0.0,0.0,0.0,0.0,0.0,0.0,0.0,0.0,0.0,0.0,0.0,0.0,0.0,0.0,0.0,0.0,0.0,0.0,0.0,0.0,0.0,0.0,0.0,-0.4782,-0.5345,-0.5508,-0.5576,-0.5511,0.0,0.0,0.0,0.0,0.0,0.0,0.0,0.0,0.0,-0.7563,-0.7648,-0.7865,-0.8248,-0.8396,-0.9005,-0.9987,-1.0936,-1.2252,-1.3883,-1.4704,-1.5743,-1.6879,-1.6666,-1.6471,-1.6166,-1.5217,-1.4322,-1.35,0.0,0.0,0.0,0.0,0.0,-1.2979,-1.3768,0.0,0.0,0.0,0.0,0.0,0.0,0.0,0.0,0.0,0.0,0.0,0.0,0.0,0.0,-1.5404,-1.5451,-1.5411,-1.5238,-1.4835,-1.4363,0.0,-1.3866,-1.3838,-1.3522,0.0,0.0,0.0,0.0,0.0,-2.0411,-2.1697,-2.2676,-2.3052,-2.3091,-2.2828,-2.2217,-2.1992,-2.1544,-2.0664,-1.9404,-1.8535,-1.8105,-1.6453,-1.4933,0.0,0.0,0.0,0.0,0.0,0.0,0.0,0.0,0.0,0.0,0.0,0.0,0.0,0.0,0.0,0.0,0.0,0.0,0.0,0.0,0.0,0.0,0.0,0.0,0.0,0.0,0.0,0.0,-0.5344,-0.5776,-0.581,-0.6078,-0.6129,0.0,0.0,0.0,0.0,0.0,0.0,-0.7248,-0.7407,-0.7794,-0.8528,-0.8548,-0.8887,-0.9657,-0.9217,-0.9883,-1.1564,-1.2679,-1.4101,-1.5738,-1.7222,-1.8144,-1.8477,-1.8257,-1.7983,-1.7609,-1.6359,-1.5498,-1.4923,-1.4489,-1.4135,-1.3941,-1.4456,-1.4509,-1.4449,-1.5404,-1.5491,-1.5124,-1.4763,0.0,-1.4028,-1.314,0.0,0.0,0.0,0.0,-1.3848,-1.4649,0.0,-1.5297,-1.5732,-1.5784,-1.5784,-1.5784,-1.5658,-1.5293,0.0,-1.4726,-1.4867,-1.4528,0.0,0.0,0.0,0.0,-1.9311,-2.1285,-2.2175,-2.275,-2.3062,-2.3091,-2.275,-2.1963,-2.1885,-2.1465,-2.0459,-1.9734,-1.9092,-1.8617,-1.7486,-1.6151,-1.463,0.0,0.0,0.0,0.0,0.0,0.0,0.0,0.0,0.0,0.0,0.0,0.0,0.0,0.0,0.0,0.0,0.0,0.0,0.0,0.0,0.0,0.0,0.0,0.0,0.0,0.0,0.0,0.0,0.0,-0.6453,-0.6698,0.0,0.0,0.0,0.0,-0.6809,-0.7146,-0.7624,-0.8221,-0.8336,-0.8628,-0.9152,-0.9166,-0.9975,-1.1638,-1.0159,-1.0163,-1.1765,-1.188,-1.2618,-1.4102,-1.5682,-1.716,-1.849,-1.8477,-1.8297,-1.7922,-1.7328,-1.6764,-1.6228,-1.6201,-1.5959,-1.5684,-1.6052,-1.6201,-1.6186,-1.6526,-1.6266,-1.5825,-1.6086,-1.5404,-1.4489,-1.4429,-1.3979,0.0,0.0,-1.4649,-1.5062,-1.5611,-1.5724,-1.5792,-1.5771,-1.5784,-1.5784,-1.5784,-1.5771,-1.5705,0.0,-1.4901,-1.4663,-1.516,0.0,-1.7008,-1.839,-1.9982,-2.1374,-2.2292,-2.2789,-2.3071,-2.3091,-2.3091,-2.275,-2.1963,-2.1885,-2.1328,-2.0029,-1.9531,-1.9092,-1.8617,-1.7812,-1.6946,-1.6016,-1.4717,0.0,0.0,0.0,0.0,0.0,0.0,0.0,0.0,0.0,0.0,0.0,0.0,0.0,0.0,0.0,0.0,0.0,0.0,0.0,0.0,0.0,0.0,0.0,0.0,0.0,0.0,0.0,0.0,-0.7078,-0.74,0.0,-0.7156,-0.7251,-0.7461,-0.777,-0.7974,-0.8357,-0.8866,-0.8941,-0.9079,-0.9435,-0.9445,-0.9807,-1.0487,-1.0959,-1.2018,-1.3605,-1.4654,-1.5939,-1.7465,-1.8046,-1.8574,-1.9045,-1.8851,-1.8711,-1.8522,-1.8176,-1.7601,-1.6871,-1.6627,-1.6486,-1.6406,-1.6513,-1.6553,-1.6567,-1.6667,-1.6567,-1.638,-1.6299,-1.5985,-1.5611,-1.5418,-1.5172,-1.5045,-1.5258,-1.5438,-1.5571,-1.5724,-1.5784,-1.5784,-1.5784,-1.5784,-1.5784,-1.5784,-1.5784,-1.5751,-1.5698,-1.5458,-1.5364,-1.5519,-1.6385,-1.7501,-1.8924,-2.0218,-2.1466,-2.2702,-2.3003,-2.3091,-2.3091,-2.3091,-2.275,-2.1963,-2.1621,-2.1025,-1.998,-1.9004,-1.8398,-1.8208,-1.7389,-1.6553,-1.5664,-1.5195,-1.3948,0.0,0.0,0.0,0.0,0.0,0.0,0.0,0.0,0.0,0.0,0.0,0.0,0.0,0.0,0.0,0.0,0.0,0.0,0.0,0.0,0.0,0.0,0.0,0.0,0.0,0.0,-0.7333,-0.7438,-0.7933,-0.815,-0.7855,-0.8048,-0.8296,-0.8603,-0.8709,-0.8882,-0.9286,-0.9306,-0.9422,-0.9673,-1.0211,-1.0793,-1.1434,-1.2453,-1.3825,-1.5429,-1.6492,-1.7566,-1.8583,-1.9127,-1.9424,-1.9417,-1.9158,-1.9018,-1.8911,-1.8718,-1.823,-1.7628,-1.7275,-1.7161,-1.7148,-1.7041,-1.7001,-1.6987,-1.6887,-1.6854,-1.6807,-1.6513,-1.642,-1.6359,-1.6066,-1.5979,-1.5959,-1.5811,-1.5784,-1.5784,-1.5784,-1.5784,-1.5784,-1.5784,-1.5784,-1.5784,-1.5784,-1.5784,-1.5784,-1.5784,-1.5784,-1.5912,-1.6329,-1.7265,-1.8471,-1.982,-2.0924,-2.2004,-2.2965,-2.3091,-2.3091,-2.3091,-2.3091,-2.275,-2.1963,-2.1484,-2.0761,-1.9766,-1.8769,-1.8096,-1.7812,-1.7256,-1.6543,-1.5644,-1.5352,-1.4434,-1.2847,0.0,0.0,0.0,0.0,0.0,0.0,0.0,0.0,0.0,0.0,0.0,0.0,0.0,0.0,0.0,0.0,0.0,0.0,0.0,0.0,0.0,0.0,0.0,-0.6729,-0.7244,-0.7628,-0.7641,-0.8282,-0.8615,-0.8385,-0.8699,-0.9011,-0.9214,-0.9224,-0.9357,-0.9608,-0.9622,-0.969,-0.9832,-1.1333,-1.2891,-1.4446,-1.4505,-1.5332,-1.6932,-1.6985,-1.7038,-1.7155,-1.8706,-1.9424,-1.9424,-1.9424,-1.9205,-1.8938,-1.8938,-1.8771,-1.8484,-1.8129,-1.8002,-1.7955,-1.7709,-1.7589,-1.7542,-1.7313,-1.7213,-1.7166,-1.6814,-1.672,-1.6667,-1.6373,-1.6286,-1.6226,-1.5939,-1.5804,-1.5798,-1.5798,-1.5791,-1.5784,-1.5784,-1.5784,-1.5784,-1.5784,-1.5784,-1.5784,-1.5784,-1.5784,-1.6197,-1.7412,-1.8634,-1.9852,-2.1025,-2.2217,0.0,-2.3003,-2.3003,-2.3047,-2.3047,-2.3091,-2.275,-2.1963,-2.1484,-2.0644,-1.9365,-1.8867,-1.8242,-1.7422,-1.7406,-1.6995,-1.6134,-1.5283,-1.4609,-1.4143,0.0,0.0,0.0,0.0,0.0,0.0,0.0,0.0,0.0,0.0,0.0,0.0,0.0,0.0,0.0,0.0,0.0,0.0,0.0,0.0,0.0,-0.6932,-0.7353,-0.7353,-0.7777,-0.8208,-0.8533,-0.8842,-0.9098,-0.9072,-0.9188,-0.9323,-0.9473,-0.9486,-0.9612,-0.9852,-0.9866,-0.9998,-1.0151,-1.059,-1.1022,-1.1455,-1.2619,-1.409,-1.5804,-1.6731,-1.7798,-1.9063,-1.9284,-1.9424,-1.9424,-1.9424,-1.9377,-1.9245,-1.9245,-1.9199,-1.9078,-1.8564,-1.8237,-1.7982,-1.7896,-1.7776,-1.7569,-1.7548,-1.7514,-1.7415,-1.7172,-1.7079,-1.7025,-1.6673,-1.6587,-1.6567,-1.6486,-1.6313,-1.6152,-1.6152,-1.5992,-1.5784,-1.5784,-1.5784,-1.5784,-1.5784,-1.5784,-1.5784,-1.5784,-1.5784,-1.592,-1.6251,-1.7358,-1.8326,-1.8634,0.0,0.0,-2.0494,-2.1257,-2.18,-2.18,-2.2589,-2.275,-2.1963,-2.1484,-2.0644,0.0,-1.8594,-1.7939,-1.7402,-1.708,-1.6797,-1.6553,-1.5996,-1.5527,0.0,0.0,0.0,0.0,0.0,0.0,0.0,0.0,0.0,0.0,0.0,0.0,0.0,0.0,0.0,0.0,0.0,0.0,0.0,0.0,0.0,0.0,-0.7431,-0.7848,-0.8038,-0.8289,-0.8574,-0.8844,-0.912,-0.931,-0.9462,-0.953,-0.9602,-0.969,-0.9758,-0.9808,-0.9977,-1.0048,-1.0188,-1.0276,-1.0968,-1.134,-1.134,-1.2892,-1.4567,-1.6242,-1.7036,-1.8196,-1.9793,-1.9626,-1.9486,0.0,-1.9424,-1.9424,-1.9424,-1.9424,-1.9424,0.0,0.0,0.0,0.0,0.0,-1.7849,-1.7582,-1.7582,-1.7582,-1.7555,-1.7434,-1.738,-1.7326,-1.6981,-1.6894,-1.6867,-1.674,-1.6587,-1.6426,-1.6355,-1.6146,-1.5985,-1.5811,-1.5784,-1.5784,-1.5784,-1.5784,-1.5784,-1.5784,0.0,0.0,-1.5784,-1.6857,-1.787,-1.8365,-1.9497,-2.026,0.0,-2.1302,-2.2031,-2.2031,-2.2677,-2.2828,-2.2207,-2.1592,0.0,0.0,0.0,-1.8271,-1.7666,-1.7236,0.0,0.0,0.0,0.0,0.0,0.0,0.0,0.0,-1.5654,-1.5674,0.0,0.0,0.0,0.0,0.0,0.0,0.0,0.0,0.0,0.0,0.0,0.0,0.0,0.0,0.0,0.0,-0.7824,-0.8214,-0.8699,-0.876,-0.8818,-0.8915,-0.9235,-0.9466,-0.9618,-0.9747,-0.9829,-0.9846,-0.9909,-1.0,-1.0034,0.0,0.0,0.0,0.0,-1.2451,-1.2451,-1.3829,-1.5389,-1.714,-1.7297,-1.8161,-1.9588,-1.9741,-1.9713,-1.9466,-1.9491,-1.9477,-1.9412,-1.9379,-1.9424,-1.9397,-1.9038,-1.8925,-1.8851,-1.8209,-1.7869,0.0,0.0,0.0,0.0,-1.7582,-1.7582,-1.7535,-1.7326,-1.7253,-1.7192,-1.6881,-1.678,-1.6687,-1.64,-1.6299,-1.6199,-1.5899,-1.5784,-1.5784,-1.5784,-1.5784,-1.5784,-1.5784,-1.5784,-1.5784,-1.5784,-1.6763,-1.7863,-1.8902,-1.998,0.0,-2.089,-2.1943,-2.2731,-2.2862,0.0,0.0,-2.2549,-2.1726,-2.1094,-2.0635,-1.9766,-1.8945,-1.8184,-1.7793,-1.7773,-1.8144,-1.8154,-1.8525,-1.9287,-1.9287,-1.9336,-1.9375,-1.6973,-1.6699,0.0,0.0,0.0,0.0,0.0,0.0,0.0,0.0,0.0,0.0,0.0,0.0,0.0,0.0,0.0,-0.7858,-0.8286,-0.8696,-0.9077,-0.9125,-0.918,-0.9276,-0.9456,-0.9622,-0.9768,-0.9805,-0.9873,-0.9933,-0.997,-1.0092,-1.0392,-1.0436,0.0,-1.0629,-1.0892,-1.1086,-1.1086,-1.141,-1.2376,-1.4179,0.0,0.0,-1.8475,-1.9572,-2.0114,-2.0054,-1.982,-1.972,-1.97,-1.9466,-1.9424,-1.9397,-1.9038,-1.8925,-1.8851,-1.8209,-1.7955,-1.7869,-1.7669,-1.7582,-1.7582,-1.7582,-1.7582,-1.7569,-1.7515,-1.7502,0.0,-1.7428,-1.7248,-1.7045,-1.67,-1.6446,-1.6199,-1.5899,-1.5784,-1.5784,-1.5784,-1.5784,-1.5784,-1.5784,-1.5784,-1.5784,-1.5784,-1.6015,-1.6244,-1.6473,-1.6695,-1.725,-1.8272,-1.9451,-2.0576,-2.1525,-2.2536,-2.2925,-2.2549,-2.2051,-2.1416,-2.0654,-1.9766,-1.9209,-1.9053,-1.8965,-1.8955,-1.9043,-1.9043,-1.9121,-1.9287,-1.9287,-1.9639,-2.0321,-1.9092,-1.8906,0.0,0.0,0.0,0.0,0.0,0.0,0.0,0.0,0.0,0.0,0.0,-0.7014,-0.7316,0.0,-0.8055,-0.8376,-0.8625,-0.893,-0.9225,-0.9334,-0.9408,-0.9486,-0.9561,-0.9666,-0.9805,-0.989,-0.9906,-0.998,-1.0188,-1.0337,-1.0483,-1.0565,-1.0639,-1.0717,-1.0721,-1.0721,-1.0721,-1.0721,-1.1567,-1.332,-1.4068,-1.5248,-1.6855,-1.8437,-1.9055,-1.8905,-1.9555,-1.98,-1.978,-1.9486,-1.9424,-1.9352,-1.9205,-1.9052,-1.8885,-1.8542,-1.8242,-1.7969,-1.7869,-1.7709,-1.7582,-1.7582,-1.7582,-1.7582,-1.7582,-1.7582,-1.7582,-1.7582,-1.7475,-1.7353,-1.7058,-1.6707,-1.6413,-1.6119,-1.5939,-1.5784,-1.5784,-1.5784,-1.5784,-1.5784,-1.5784,-1.5784,-1.5784,-1.5784,-1.5784,-1.5784,-1.6339,-1.699,-1.7638,-1.8772,-1.9943,-2.1159,-2.1845,-2.2362,-2.2755,-2.2246,-2.1602,-2.0937,-2.0283,-1.9834,-1.9609,-1.96,-1.96,-1.96,-1.96,-1.9707,-1.9959,-2.0156,-2.0478,-2.0898,-2.0684,-2.0703,0.0,0.0,0.0,0.0,0.0,0.0,0.0,-0.6403,-0.6695,-0.7132,-0.7421,-0.7699,-0.8058,-0.8275,-0.852,-0.8824,-0.8932,-0.912,-0.9388,-0.9534,-0.9608,-0.9608,-0.9635,-0.9696,-0.9812,-0.9899,-1.0,-1.0031,-1.0341,-1.0504,-1.0534,-1.0653,-1.0721,-1.0721,-1.0721,-1.0721,-1.0721,-1.0721,-1.1372,-1.2804,-1.3128,-1.3891,-1.514,-1.6863,-1.7519,-1.7371,-1.8736,-1.9363,-1.9292,-1.9369,-1.9424,-1.9424,-1.9424,-1.9219,-1.8998,-1.8945,-1.8568,-1.8149,-1.8035,-1.7883,-1.7662,-1.7602,-1.7582,-1.7582,-1.7582,-1.7582,-1.7582,-1.7582,-1.7582,-1.7515,-1.728,-1.6927,-1.6633,-1.6339,-1.6046,-1.5784,-1.5784,-1.5784,-1.5784,-1.5784,-1.5784,-1.5784,-1.5784,-1.5784,-1.5784,-1.5784,-1.6662,-1.7412,-1.7692,-1.8549,-1.9625,-2.08,-2.1159,-2.1763,-2.2887,-2.2402,-2.1787,-2.1229,-2.0898,-2.0498,-2.0059,-2.0039,-2.0078,-2.0166,-2.0138,-2.0381,-2.086,-2.1191,-2.1366,-2.1453,-2.1846,-2.2012,-0.546,-0.5616,-0.5884,-0.6437,-0.6403,-0.6586,0.0,-0.7712,-0.7614,-0.8191,-0.8333,-0.8374,-0.8425,-0.8669,-0.8824,-0.8875,-0.9161,-0.9391,-0.9561,-0.9598,-0.9608,-0.9608,-0.972,-0.9802,-0.9819,-0.9899,-1.0044,-1.0246,-1.0402,-1.0551,-1.0687,-1.0711,-1.0721,-1.0721,-1.0721,-1.0721,-1.0721,-1.0721,-1.0784,-1.0982,-1.2545,-1.3377,-1.3617,-1.536,-1.6126,-1.6139,-1.7343,-1.7694,-1.7583,-1.8881,-1.9424,-1.9424,-1.9424,-1.9403,-1.9285,-1.9018,-1.8885,-1.8695,-1.8175,-1.7969,-1.7896,-1.7669,-1.7582,-1.7582,-1.7582,-1.7582,-1.7582,-1.7582,-1.7582,-1.7515,-1.728,-1.6927,-1.6633,-1.6339,-1.6046,-1.5784,-1.5784,-1.5784,-1.5784,-1.5784,-1.5784,-1.5784,-1.5784,-1.5784,-1.5784,-1.5784,-1.592,-1.6433,-1.7552,-1.7824,-1.8365,-1.9579,-2.0666,-2.1653,-2.2479,-2.249,-2.21,-2.1249,-2.1151,-2.0957,-2.0546,-2.0537,-2.0674,-2.1044,-2.1044,-2.1309,-2.1738,-2.1787,-2.2002,-2.2373,-2.2422,-2.2441,-0.6356,-0.6474,-0.6559,-0.6983,-0.7193,-0.7421,-0.7896,-0.7997,-0.8109,-0.853,-0.8615,-0.8642,-0.873,-0.8797,-0.8939,0.0,-0.93,-0.9462,-0.97,-0.9663,-0.9608,-0.9608,-0.9663,-0.9696,-0.9696,-0.9992,-1.0212,-1.0276,-1.0493,-1.0653,-1.0717,-1.0721,-1.0721,-1.0721,-1.0721,-1.0721,-1.0721,-1.0721,-1.0721,-1.0721,-1.1439,-1.1762,-1.1828,-1.3582,-1.4878,-1.577,-1.7021,-1.7468,-1.7338,-1.8764,-1.9424,-1.9424,-1.9424,-1.9424,-1.9352,-1.9225,-1.9072,-1.8865,-1.845,-1.8135,-1.7942,-1.7682,-1.7582,-1.7582,-1.7582,-1.7582,-1.7582,-1.7582,-1.7582,-1.7555,-1.7435,-1.7233,-1.6894,-1.6593,-1.6299,-1.6039,-1.5818,-1.5784,-1.5784,-1.5784,-1.5784,-1.5784,-1.5784,-1.5784,-1.5784,-1.5784,-1.5784,-1.5967,-1.6527,-1.6574,-1.7077,-1.8319,-1.9534,-2.0649,-2.1701,-2.1609,-2.1603,-2.196,-2.1748,-2.1416,-2.0977,-2.1201,-2.1299,-2.119,-2.1484,-2.1699,-2.1885,-2.2129,-2.2344,-2.2519,-2.2721,-2.2838,-0.6788,-0.6927,-0.7024,-0.7407,-0.777,-0.7992,-0.8055,-0.8231,-0.8465,-0.872,-0.874,-0.8743,-0.8801,-0.8854,-0.9022,-0.9276,-0.9388,-0.9534,-0.9785,-0.97,-0.9595,-0.9551,-0.9547,-0.9547,-0.9547,-0.9954,-1.0236,-1.0276,-1.0514,-1.0677,-1.0717,-1.0721,-1.0721,-1.0721,-1.0721,-1.0721,-1.0721,-1.0721,-1.0721,-1.0721,-1.0721,-1.0721,-1.0721,-1.2025,-1.3187,-1.4258,-1.5628,-1.6151,-1.6094,-1.7475,-1.835,-1.8765,-1.8765,-1.9004,-1.9424,-1.9424,-1.9232,-1.8991,-1.8624,-1.835,-1.8103,-1.7709,-1.7582,-1.7582,-1.7582,-1.7582,-1.7582,-1.7582,-1.7582,-1.7582,-1.7582,-1.742,-1.7125,-1.6774,-1.6486,-1.6192,-1.5892,-1.5784,-1.5784,-1.5784,-1.5784,-1.5784,-1.5784,-1.5784,-1.5784,-1.5784,-1.5784,-1.5784,-1.5784,-1.5784,-1.6292,-1.7552,-1.8503,-1.9488,-2.0711,-2.0855,-2.119,-2.1978,-2.2049,-2.1865,-2.1385,-2.1719,-2.1787,-2.1551,-2.1894,-2.2119,-2.2236,-2.2539,-2.2685,-2.2652,-2.2955,-2.3091,-0.6566,-0.6807,-0.7196,-0.7685,-0.787,-0.8103,-0.8584,-0.8689,-0.8743,-0.8844,-0.8815,-0.8713,-0.8716,-0.8838,-0.8988,-0.919,-0.9408,-0.9652,-0.9798,-0.97,-0.9554,-0.9405,-0.9388,-0.9388,0.0,-0.9791,-1.0117,-1.027,-1.0415,-1.0565,-1.0711,-1.0721,-1.0721,-1.0721,-1.0721,-1.0721,-1.0721,-1.0721,-1.0721,-1.0721,-1.0721,-1.0721,-1.0721,-1.0721,-1.0784,-1.0892,-1.2294,-1.2825,-1.2916,-1.4239,-1.5666,-1.7085,-1.7085,-1.8046,-1.9424,-1.9424,-1.9417,-1.9272,-1.8691,-1.8484,-1.8377,-1.7776,-1.7582,-1.7582,-1.7582,-1.7582,-1.7582,-1.7582,-1.7582,-1.7582,-1.7582,-1.742,-1.7125,-1.6774,-1.6486,-1.6192,-1.5892,-1.5784,-1.5784,-1.5784,-1.5784,-1.5784,-1.5784,-1.5784,-1.5784,-1.5784,-1.5784,-1.5784,-1.5784,-1.5784,-1.6292,-1.7552,-1.7731,-1.8234,-1.9443,-2.0612,-2.1112,-2.0786,-2.1831,-2.2305,-2.1885,-2.1875,-2.207,-2.2461,-2.249,-2.2652,-2.3052,-2.3071,-2.3081,-2.3081,-2.3091,-2.3091,-0.735,-0.755,-0.7692,-0.8143,-0.837,-0.8526,-0.8676,-0.871,-0.8723,-0.8777,-0.8665,-0.856,-0.856,-0.8601,-0.875,-0.9152,-0.9296,-0.9429,-0.9771,-0.97,-0.9554,-0.9398,-0.9469,0.0,0.0,0.0,0.0,-1.0259,-1.0412,-1.0558,-1.0711,-1.0721,-1.0721,-1.0721,-1.0721,-1.0721,-1.0721,-1.0721,-1.0721,-1.0721,-1.0721,-1.0721,-1.0721,-1.0721,-1.0721,-1.0767,-1.2107,-1.2704,-1.28,-1.4062,-1.4901,-1.5429,-1.5429,-1.638,-1.7806,-1.7806,-1.8346,-1.9018,-1.8624,-1.849,-1.839,-1.7782,-1.7582,-1.7582,-1.7582,-1.7582,-1.7582,-1.7582,-1.7582,-1.7582,-1.7582,-1.7508,-1.7367,-1.682,-1.6627,-1.6426,-1.5884,-1.5784,-1.5784,-1.5784,-1.5784,-1.5784,-1.5784,-1.5784,-1.5784,-1.5784,-1.5784,-1.5784,-1.5784,-1.5784,-1.5967,-1.6386,-1.6433,-1.7257,-1.9314,-1.9852,-2.0748,-2.2205,-2.265,-2.2744,-2.2314,-2.2568,-2.2613,-2.251,-2.274,-2.2955,-2.3091,-2.3091,-2.3091,-2.3091,-2.3091,-2.3091,-0.776,-0.7926,-0.8001,-0.8452,-0.8638,-0.871,-0.871,-0.871,-0.8679,-0.8574,-0.8431,-0.8306,-0.8252,-0.8241,-0.8391,-0.8896,-0.9005,-0.9232,-0.9683,-0.9666,-0.9571,-0.9473,-0.9551,-0.9591,0.0,0.0,0.0,-1.0256,-1.0412,-1.0558,-1.0711,-1.0721,-1.0721,-1.0721,-1.0721,-1.0721,-1.0721,-1.0721,-1.0721,-1.0721,-1.0721,-1.0721,-1.0721,-1.0721,-1.0721,-1.077,-1.1479,-1.1834,-1.187,-1.2612,-1.3228,-1.3765,-1.3765,-1.4718,-1.6138,-1.6138,-1.7043,-1.8256,-1.8456,-1.8424,-1.825,-1.7742,-1.7582,-1.7582,-1.7582,-1.7582,-1.7582,-1.7582,-1.7582,-1.7582,-1.7582,-1.7582,-1.7462,-1.6974,-1.6867,-1.67,-1.6119,-1.5985,-1.5952,-1.5804,-1.5784,-1.5784,-1.5784,-1.5784,-1.5784,-1.5784,-1.5784,-1.5784,-1.5784,-1.5784,-1.5784,-1.5784,-1.5784,-1.6615,-1.868,-1.9268,-2.0359,-2.2315,-2.2862,-2.2974,-2.2744,-2.2955,-2.2974,-2.2744,-2.2955,-2.3091,-2.3091,-2.3091,-2.3091,-2.3091,-2.3091,-2.3091,-0.7794,-0.7953,-0.8126,-0.8615,-0.8716,-0.871,-0.871,-0.8693,-0.8594,-0.8306,-0.8119,-0.7907,-0.7794,-0.7784,-0.7946,-0.8387,-0.873,-0.904,-0.9547,-0.9622,-0.9629,0.0,0.0,0.0,0.0,0.0,0.0,-1.027,0.0,-1.0551,-1.0711,-1.0721,-1.0721,-1.0721,-1.0721,-1.0721,-1.0721,-1.0721,-1.0721,-1.0721,-1.0721,-1.0721,-1.0721,-1.0721,-1.0721,-1.0704,-1.0409,-1.028,-1.0256,-0.9947,-1.0721,-1.2097,-1.2097,-1.3048,-1.4485,-1.4485,-1.5483,-1.6996,-1.7935,-1.8139,-1.7962,-1.7689,-1.7582,-1.7582,-1.7582,-1.7582,-1.7582,-1.7582,-1.7582,-1.7582,-1.7582,-1.7582,-1.7508,-1.7266,-1.7192,-1.7018,-1.6449,-1.6308,-1.6166,-1.5838,-1.5784,-1.5784,-1.5784,-1.5784,-1.5784,-1.5784,-1.5784,-1.5784,-1.5784,-1.5784,-1.5784,-1.5784,-1.5784,-1.6339,-1.7598,-1.8726,-1.9898,-2.1114,-2.2262,-2.295,-2.3003,-2.3003,-2.3047,-2.3091,-2.3091,-2.3091,-2.3091,-2.3091,-2.3091,-2.3091,-2.3091,-2.3091,-0.8082,-0.8343,-0.8594,-0.8767,-0.8794,-0.871,-0.871,-0.8452,-0.8157,-0.7967,-0.7723,-0.7461,-0.7204,-0.7428,-0.7763,-0.8099,-0.8541,0.0,-0.9547,-0.9798,0.0,-0.9781,-0.9971,-1.008,-0.9936,-1.0192,0.0,0.0,-1.0375,-1.0446,-1.0707,-1.0721,-1.0721,-1.0721,-1.0721,-1.0721,-1.0721,-1.0721,-1.0721,-1.0721,-1.0721,-1.0721,-1.0721,-1.0721,-1.0721,-1.0704,-1.0409,-1.028,-1.0256,-0.9947,-1.0061,-1.0422,-1.0422,-1.1378,-1.2813,-1.2813,-1.372,-1.494,-1.5053,-1.6504,-1.829,-1.7756,-1.7582,-1.7582,-1.7582,-1.7582,-1.7582,-1.7582,-1.7582,-1.7582,-1.7582,-1.7582,-1.7508,-1.7266,-1.7032,-1.672,-1.6402,-1.6099,-1.5919,-1.5798,-1.5784,-1.5784,-1.5784,-1.5784,-1.5784,-1.5784,-1.5784,-1.5784,-1.5784,-1.5784,-1.5784,-1.5784,-1.5784,-1.6339,-1.7598,-1.7963,-1.868,-1.9898,-2.0268,-2.0809,-2.1702,-2.1756,-2.2173,-2.3091,-2.3091,-2.3091,-2.3091,-2.3091,-2.3091,-2.3091,-2.3091,-2.3091,-0.8381,-0.8632,-0.8815,-0.8832,-0.8774,-0.8642,-0.8374,-0.8119,-0.7821,-0.7411,-0.7193,-0.6987,-0.6692,-0.7,-0.74,0.0,0.0,0.0,-0.9354,-0.9778,-0.9957,0.0,-1.0188,0.0,-1.0249,-1.0395,-1.0521,0.0,-1.0517,-1.0544,-1.0711,-1.0721,-1.0721,-1.0721,-1.0721,-1.0721,-1.0721,-1.0721,-1.0721,-1.0721,-1.0721,-1.0721,-1.0721,-1.0721,-1.0721,-1.0704,0.0,-1.028,-1.0256,-0.9947,-0.9822,-0.9822,-0.9822,-1.0361,-1.1137,-1.1137,-1.2085,-1.3302,-1.2954,-1.4441,-1.6512,-1.6574,-1.7094,-1.7582,-1.7582,-1.7582,-1.7582,-1.7582,-1.7582,-1.7582,-1.7582,-1.7582,-1.7542,-1.7427,-1.7208,-1.6974,-1.6553,-1.6333,-1.6139,-1.5831,-1.5784,-1.5784,-1.5784,-1.5784,-1.5784,-1.5784,-1.5784,-1.5784,-1.5784,-1.5784,-1.5784,-1.5784,-1.5784,-1.6339,-1.7598,-1.7692,-1.8234,-1.9405,-1.9497,-1.9807,-2.0486,-2.0522,-2.0845,-2.1498,-2.2041,-2.2306,-2.2306,-2.2862,-2.3091,-2.3091,-2.3091,-2.3091,-0.8635,-0.8821,-0.8848,-0.875,-0.8696,-0.8526,-0.7943,-0.7767,-0.7522,-0.6814,-0.6637,-0.6522,-0.6265,-0.6552,-0.6973,-0.7288,0.0,-0.8777,-0.919,-0.9683,-0.9994,-1.0014,-1.0341,-1.0521,-1.0521,-1.0521,-1.0578,-1.0711,-1.0721,-1.0721,-1.0721,-1.0721,-1.0721,-1.0721,-1.0721,-1.0721,-1.0721,-1.0721,-1.0721,-1.0721,-1.0721,-1.0721,-1.0721,-1.0721,-1.0711,-1.0673,0.0,0.0,-1.0229,-0.9941,-0.9822,-0.9822,-0.9822,-0.9822,-0.9822,-0.9822,-1.066,-1.1803,-1.138,-1.228,-1.3743,-1.4771,-1.6121,-1.7312,-1.7312,-1.7417,-1.7582,-1.7582,-1.7582,-1.7582,-1.7582,-1.7582,-1.7582,-1.7582,-1.7555,-1.7375,-1.682,-1.6647,-1.644,-1.5878,-1.5784,-1.5784,-1.5784,-1.5784,-1.5784,-1.5784,-1.5784,-1.5784,-1.5784,-1.5784,-1.5784,-1.5784,-1.5784,-1.6244,-1.7365,-1.7458,-1.7909,-1.8948,-1.8993,-1.9077,-1.9268,-1.9268,-1.936,-1.9497,-2.0531,-2.1159,-2.1293,-2.235,-2.295,-2.3091,-2.3091,-2.3091,-0.8662,-0.8821,-0.8848,-0.875,-0.8615,-0.8397,-0.7919,-0.7522,-0.7071,-0.6614,-0.6315,-0.6057,-0.5762,-0.6169,-0.6692,-0.7068,-0.7834,-0.8581,-0.9249,-0.9751,-1.0034,0.0,-1.05,-1.068,-1.068,-1.068,0.0,0.0,0.0,0.0,-1.0721,-1.0721,-1.0721,-1.0721,-1.0721,-1.0721,-1.0721,-1.0721,-1.0721,-1.0721,-1.0721,-1.0721,-1.0721,-1.0721,-1.0653,-1.0521,0.0,0.0,-1.0014,-0.9893,-0.9822,-0.9822,-0.9822,-0.9822,-0.9822,-0.9822,-1.0001,-1.0197,-0.9886,-1.069,-1.21,-1.3297,-1.4609,-1.5796,-1.5796,-1.6605,-1.7582,-1.7582,-1.7582,-1.7582,-1.7582,-1.7582,-1.7582,-1.7582,-1.7454,-1.7179,-1.678,-1.6326,-1.5952,-1.5798,-1.5784,-1.5784,-1.5784,-1.5784,-1.5784,-1.5784,-1.5784,-1.5784,-1.5784,-1.5784,-1.5784,-1.5784,-1.5784,-1.5872,-1.6109,-1.6109,-1.6197,-1.6426,-1.6426,-1.6889,-1.7956,-1.8002,-1.8503,-1.9497,-1.9724,-2.0305,-2.1293,-2.1525,-2.212,-2.3091,-2.3091,-2.3091,-0.8669,-0.8821,-0.8828,-0.8648,-0.8479,-0.8194,-0.7509,-0.7061,-0.6644,-0.6122,-0.5837,-0.564,-0.5532,-0.5996,-0.6497,-0.6746,-0.7428,-0.818,-0.8927,-0.9351,-0.9758,-1.0226,-1.047,-1.0633,-1.0714,-1.0721,0.0,0.0,0.0,0.0,-1.0721,-1.0721,-1.0721,-1.0721,-1.0721,-1.0721,-1.0721,-1.0721,-1.0721,-1.0721,-1.0721,-1.0721,-1.0717,-1.0636,-1.0561,-1.048,0.0,0.0,-0.9974,-0.9883,-0.9822,-0.9822,-0.9822,-0.9822,-0.9822,-0.9822,-0.9822,-0.9778,-0.9483,-0.9838,-1.0463,-1.0896,-1.2512,-1.4449,-1.5198,-1.5902,-1.6605,-1.7364,-1.7582,-1.7582,-1.7582,-1.7582,-1.7582,-1.7582,-1.7241,-1.6881,-1.6734,-1.6246,-1.5784,-1.5784,-1.5784,-1.5784,-1.5784,-1.5784,-1.5784,-1.5784,-1.5784,-1.5784,-1.5784,-1.5784,-1.5784,-1.5784,-1.5784,-1.5784,-1.5784,-1.5784,-1.5784,-1.5784,-1.5784,-1.6062,-1.6669,-1.6716,-1.6983,-1.7569,-1.8226,-1.8864,-1.9451,-2.0079,-2.098,-2.2173,-2.2173,-2.2492,-0.8662,-0.8798,-0.8825,-0.855,-0.8377,-0.8035,-0.7132,-0.6668,-0.6296,-0.5699,-0.5453,-0.5344,-0.5344,-0.5788,-0.6235,-0.6474,-0.7051,-0.7773,-0.855,-0.8974,-0.9518,-1.0151,-1.0385,0.0,-1.0707,-1.0721,0.0,0.0,0.0,0.0,0.0,-1.0721,-1.0721,-1.0721,-1.0721,-1.0721,-1.0721,-1.0721,-1.0721,-1.0721,-1.0687,-1.067,-1.0666,-1.0514,-1.0429,-1.0385,0.0,0.0,0.0,-0.9869,-0.9822,-0.9822,-0.9822,-0.9822,-0.9822,-0.9822,-0.9822,-0.9778,-0.9483,-0.9381,-0.933,-0.9035,-1.0672,-1.3048,-1.4121,-1.4931,-1.563,-1.6823,-1.7364,-1.7582,-1.7582,-1.7582,-1.7582,-1.7582,-1.7181,-1.678,-1.672,-1.6293,-1.5905,-1.5791,-1.5784,-1.5784,-1.5784,-1.5784,-1.5784,-1.5784,-1.5784,-1.5784,-1.5784,-1.5784,-1.5784,-1.5784,-1.5784,-1.5784,-1.5784,-1.5784,-1.5784,-1.5784,-1.5784,-1.5784,-1.5784,-1.5784,-1.5784,-1.5784,-1.6763,-1.7412,-1.7692,-1.8634,-1.9716,-2.0935,-2.0935,-2.1578,-0.8632,-0.872,-0.8693,-0.8523,-0.8377,-0.8035,-0.7132,-0.6593,-0.6146,-0.5539,-0.526,-0.512,-0.512,-0.5426,-0.583,-0.6422,-0.6871,-0.7446,-0.8377,-0.8998,-0.9537,-0.9953,0.0,0.0,-1.0707,0.0,0.0,0.0,0.0,0.0,0.0,-1.0721,-1.0721,-1.0721,-1.0721,-1.0721,-1.0721,-1.0721,-1.0721,-1.0717,-1.0578,-1.0514,-1.0507,-1.0365,-1.0222,-1.0024,0.0,0.0,0.0,-0.9825,-0.9822,-0.9822,-0.9822,-0.9822,-0.9822,-0.9822,-0.9822,-0.9778,-0.9483,-0.9381,-0.933,-0.9035,-0.997,-1.1324,-1.1483,-1.3318,-1.5417,-1.5577,-1.6552,-1.7582,-1.7582,-1.7582,-1.7582,-1.7582,-1.7393,-1.7085,-1.6767,-1.646,-1.6152,-1.5879,-1.5784,-1.5784,-1.5784,-1.5784,-1.5784,-1.5784,-1.5784,-1.5784,-1.5784,-1.5784,-1.5784,-1.5784,-1.5784,-1.5784,-1.5784,-1.5784,-1.5784,-1.5784,-1.5784,-1.5784,-1.5784,-1.5784,-1.5784,-1.5784,-1.592,-1.6527,-1.7692,-1.7824,-1.8503,-1.9679,-1.9679,-2.0305,-0.8364,-0.8509,-0.8537,-0.8391,-0.8174,-0.7784,-0.6976,-0.6373,-0.59,-0.5481,-0.5169,-0.5026,-0.5237,-0.5447,-0.5725,-0.6139,-0.6316,-0.6787,-0.7685,-0.8099,-0.8642,-0.954,-0.9907,0.0,0.0,0.0,0.0,0.0,0.0,0.0,0.0,-1.0721,-1.0721,-1.0721,-1.0721,-1.0721,-1.0721,-1.0721,-1.0673,-1.0582,-1.0521,-1.0449,-1.0358,-1.0209,-1.0107,-0.998,0.0,0.0,0.0,-0.9822,-0.9822,-0.9822,-0.9822,-0.9822,-0.9822,-0.9822,-0.9768,-0.9663,-0.9452,-0.932,-0.9211,-0.9005,-0.932,-0.9915,-1.0836,-1.2512,-1.4288,-1.515,-1.6446,-1.7582,-1.7582,-1.7582,-1.7582,-1.7582,-1.7414,-1.7119,-1.6767,-1.648,-1.6186,-1.5885,-1.5784,-1.5784,-1.5784,-1.5784,-1.5784,-1.5784,-1.5784,-1.5784,-1.5784,-1.5784,-1.5784,-1.5784,-1.5784,-1.5784,-1.5784,-1.5784,-1.5784,-1.5784,-1.5784,-1.5784,-1.5784,-1.5784,-1.5784,-1.5784,-1.5784,-1.6062,-1.6574,-1.6574,-1.7217,-1.8411,-1.8411,-1.9039,-0.8052,-0.8275,-0.8394,-0.8347,-0.8007,-0.7563,-0.6861,-0.6234,-0.5705,-0.5362,-0.5128,-0.5047,-0.5254,-0.5453,-0.5606,-0.5857,-0.601,-0.638,-0.719,-0.755,-0.8106,-0.913,0.0,0.0,0.0,0.0,0.0,0.0,0.0,0.0,0.0,-1.0653,-1.0673,-1.0717,-1.0721,-1.0721,-1.0721,-1.0673,-1.0599,-1.049,-1.0402,-1.0307,-1.0209,-1.0053,-0.992,0.0,0.0,0.0,0.0,-0.9822,-0.9822,-0.9822,-0.9822,-0.9822,-0.9822,-0.9822,-0.973,-0.9588,-0.9435,-0.934,-0.9187,-0.8984,-0.8885,-0.9103,-1.0131,-1.1487,-1.294,-1.4395,-1.6121,-1.7582,-1.7582,-1.7582,-1.7582,-1.7582,-1.7481,-1.7226,-1.6787,-1.6547,-1.6286,-1.5905,-1.5784,-1.5784,-1.5784,-1.5784,-1.5784,-1.5784,-1.5784,-1.5784,-1.5784,-1.5784,-1.5784,-1.5784,-1.5784,-1.5784,-1.5784,-1.5784,-1.5784,-1.5784,-1.5784,-1.5784,-1.5784,-1.5784,-1.5784,-1.5784,-1.5784,-1.5784,-1.5784,-1.5784,-1.6251,-1.7131,-1.7131,-1.7816,-0.7736,-0.8038,-0.8323,-0.8323,-0.7933,-0.7444,-0.6837,-0.6234,-0.5674,-0.5194,-0.51,-0.5096,-0.51,-0.526,-0.5446,-0.5569,-0.6006,-0.6504,-0.7014,-0.7611,-0.8211,0.0,0.0,0.0,0.0,0.0,0.0,0.0,0.0,0.0,0.0,0.0,-1.0565,-1.0714,-1.0721,-1.0721,-1.0721,-1.0568,-1.0493,-1.0487,-1.0132,-1.0053,-1.0111,-0.9893,0.0,0.0,0.0,0.0,0.0,-0.9822,-0.9822,-0.9822,-0.9822,-0.9822,-0.9822,-0.9822,-0.973,-0.9588,-0.9435,-0.934,-0.9187,-0.8984,-0.8885,-0.8885,-0.894,-0.997,-1.1433,-1.2891,-1.537,-1.7582,-1.7582,-1.7582,-1.7582,-1.7582,-1.7582,-1.7415,-1.6834,-1.67,-1.6526,-1.5945,-1.5784,-1.5784,-1.5784,-1.5784,-1.5784,-1.5784,-1.5784,-1.5784,-1.5784,-1.5784,-1.5784,-1.5784,-1.5784,-1.5784,-1.5784,-1.5784,-1.5784,-1.5784,-1.5784,-1.5784,-1.5784,-1.5784,-1.5784,-1.5784,-1.5784,-1.5784,-1.5784,-1.5784,-1.5832,-1.5825,-1.5825,-1.648,-0.6973,-0.72,-0.7329,-0.7224,-0.7092,-0.6854,-0.6356,-0.6013,-0.5705,-0.5359,-0.5203,-0.513,-0.527,-0.5361,-0.5549,-0.6009,-0.6204,-0.6508,-0.7014,-0.7611,0.0,-0.8723,0.0,0.0,0.0,0.0,0.0,0.0,0.0,0.0,0.0,0.0,-1.0371,-1.0419,-1.0419,-1.0419,-1.0419,-1.0371,-1.0293,-1.0188,-1.0031,-0.9933,-0.9893,-0.9842,0.0,0.0,0.0,0.0,0.0,-0.9822,-0.9822,-0.9822,-0.9822,-0.9822,-0.9822,-0.9822,-0.9663,-0.9445,-0.9398,-0.9218,-0.8998,-0.8898,-0.8885,-0.8885,-0.8885,-0.9915,-1.1433,-1.2886,-1.3965,-1.4883,-1.5849,-1.6121,-1.6333,-1.7364,-1.7582,-1.7422,-1.6834,-1.6707,-1.6533,-1.5945,-1.5784,-1.5784,-1.5784,-1.5784,-1.5784,-1.5784,-1.5784,-1.5784,-1.5784,-1.5784,-1.5784,-1.5784,-1.5784,-1.5784,-1.5784,-1.5784,-1.5784,-1.5784,-1.5784,-1.5784,-1.5784,-1.5784,-1.5784,-1.5784,-1.5784,-1.5784,-1.5784,-1.5784,-1.5784,-1.5784,-1.5784,-1.6015,-0.6322,-0.6597,-0.6749,-0.6709,-0.6617,-0.643,-0.6034,-0.5783,-0.5552,-0.5286,-0.5162,-0.513,-0.5257,-0.5354,-0.5535,-0.5975,-0.6139,-0.6383,-0.6933,0.0,0.0,-0.873,0.0,0.0,0.0,0.0,0.0,0.0,0.0,0.0,0.0,0.0,-1.0168,-1.011,-1.0219,-1.028,-1.028,-1.0222,-1.0144,-0.9987,-0.993,-0.9852,-0.9822,0.0,0.0,0.0,0.0,0.0,0.0,-0.9822,-0.9822,-0.9815,-0.9764,-0.9741,-0.9734,-0.9676,-0.9503,-0.9354,-0.9354,-0.914,-0.8885,-0.8885,-0.8885,-0.8885,-0.8885,-0.9915,-1.1269,-1.2186,-1.2891,-1.348,-1.4395,-1.4609,-1.4824,-1.5743,-1.6393,-1.6617,-1.5999,-1.6293,-1.6533,-1.5945,-1.5784,-1.5784,-1.5784,-1.5784,-1.5784,-1.5784,-1.5784,-1.5784,-1.5784,-1.5784,-1.5784,-1.5784,-1.5784,-1.5784,-1.5784,-1.5784,-1.5784,-1.5784,-1.5784,-1.5784,-1.5784,-1.5784,-1.5784,-1.5784,-1.5784,-1.5784,-1.5784,-1.5784,-1.5784,-1.5784,-1.5784,-1.5784,0.0,-0.6149,-0.6407,-0.6539,-0.6376,-0.6143,-0.5806,-0.5569,0.0,-0.4979,-0.5002,-0.5106,-0.5127,-0.5281,-0.5477,-0.5637,-0.5908,-0.6263,0.0,-0.7506,0.0,0.0,0.0,0.0,0.0,0.0,0.0,0.0,0.0,0.0,0.0,0.0,0.0,-0.9825,-1.0097,-1.0249,-1.0249,-1.0103,-0.997,-0.997,-0.989,-0.9822,-0.9822,0.0,0.0,0.0,0.0,0.0,0.0,-0.9822,-0.9815,-0.9791,-0.9659,-0.9602,-0.9578,-0.9435,-0.9344,-0.921,-0.921,-0.9059,-0.8885,-0.8885,-0.8885,-0.8885,-0.8885,-0.986,-1.0945,-1.0945,-1.1914,-1.2994,-1.3102,-1.3156,-1.3161,-1.327,-1.4277,-1.5094,-1.4498,-1.5507,-1.6351,-1.5795,-1.573,-1.5784,-1.5784,-1.5784,-1.5784,-1.5784,-1.5784,-1.5784,-1.5784,-1.5784,-1.5784,-1.5784,-1.5784,-1.5784,-1.5784,-1.5784,-1.5784,-1.5784,-1.5784,-1.5784,-1.5784,-1.5784,-1.5784,-1.5784,-1.5784,-1.5784,-1.5784,-1.5784,-1.5784,-1.5784,-1.5784,-1.5784,-0.4928,0.0,-0.543,-0.5355,-0.5365,-0.5348,0.0,-0.5159,-0.5135,-0.4924,-0.5002,-0.517,-0.5437,-0.5511,-0.5735,-0.6342,-0.6597,-0.6846,-0.7373,0.0,0.0,0.0,0.0,0.0,0.0,0.0,0.0,0.0,0.0,0.0,0.0,0.0,0.0,-0.9822,-0.989,-0.9927,-0.9927,-0.9893,-0.9876,-0.9873,-0.9839,-0.9822,-0.9822,0.0,0.0,0.0,0.0,0.0,-0.9822,-0.9822,-0.9758,-0.9656,-0.9622,-0.9537,-0.9432,-0.9395,-0.9344,-0.921,-0.921,-0.9059,-0.8885,-0.8885,-0.8885,-0.8885,-0.8885,-0.9154,-0.9427,-0.9427,-0.9644,-1.0186,-1.1324,-1.1592,-1.1919,-1.3048,-1.3454,-1.3451,-1.3116,-1.3981,-1.4752,-1.4424,-1.5146,-1.5784,-1.5784,-1.5784,-1.5784,-1.5784,-1.5784,-1.5784,-1.5784,-1.5784,-1.5784,-1.5784,-1.5784,-1.5784,-1.5784,-1.5784,-1.5784,-1.5784,-1.5784,-1.5784,-1.5784,-1.5784,-1.5784,-1.5784,-1.5784,-1.5784,-1.5784,-1.5784,-1.5784,-1.5784,-1.5784,-1.5784,-0.4047,-0.4628,-0.5237,-0.5226,-0.5284,-0.5301,-0.5155,-0.5023,-0.4887,-0.4741,-0.4884,-0.5073,-0.5338,-0.5549,-0.5884,-0.6495,-0.6783,0.0,0.0,0.0,0.0,0.0,0.0,0.0,0.0,0.0,0.0,0.0,0.0,0.0,0.0,0.0,0.0,0.0,-0.9822,-0.9822,-0.9822,-0.9822,-0.9822,-0.9822,-0.9822,-0.9822,-0.9822,0.0,0.0,0.0,0.0,0.0,-0.9724,-0.9724,-0.9639,-0.9496,-0.9425,-0.9351,-0.9269,-0.9201,-0.9123,-0.9055,-0.9055,-0.9001,-0.8885,-0.8885,-0.8885,-0.8885,-0.8885,-0.8885,-0.8885,-0.8885,-0.8885,-0.9103,-0.986,-1.008,-1.0296,-1.1105,-1.1652,-1.1973,-1.1667,-1.2577,-1.3347,-1.3055,-1.4028,-1.4949,-1.4949,-1.5391,-1.5784,-1.5784,-1.5784,-1.5784,-1.5784,-1.5784,-1.5784,-1.5784,-1.5784,-1.5784,-1.5784,-1.5784,-1.5784,-1.5784,-1.5784,-1.5784,-1.5784,-1.5784,-1.5784,-1.5784,-1.5784,-1.5784,-1.5784,-1.5784,-1.5784,-1.5784,-1.5784,-1.5784,-0.3124,-0.405,-0.509,-0.5379,-0.5504,-0.5508,-0.5368,-0.503,-0.4687,-0.4586,-0.4775,-0.4981,-0.4971,-0.5477,-0.6013,-0.6297,-0.672,0.0,0.0,0.0,0.0,0.0,0.0,0.0,0.0,0.0,0.0,0.0,0.0,0.0,0.0,0.0,0.0,0.0,-0.9822,-0.9822,-0.9822,-0.9822,-0.9822,-0.9822,-0.9822,-0.9822,-0.9822,-0.9822,0.0,0.0,0.0,0.0,-0.9574,-0.9574,-0.9486,-0.9334,-0.9262,-0.9197,-0.9163,-0.8984,-0.8885,-0.8885,-0.8885,-0.8885,-0.8885,-0.8885,-0.8885,-0.8885,-0.8885,-0.8885,-0.8885,-0.8885,-0.8885,-0.8885,-0.8885,-0.8885,-0.8885,-0.8885,-0.9714,-1.0477,-1.0164,-1.1138,-1.1974,-1.1693,-1.2668,-1.3584,-1.3584,-1.4657,-1.5486,-1.5486,-1.5683,-1.5784,-1.5784,-1.5784,-1.5784,-1.5784,-1.5784,-1.5784,-1.5784,-1.5784,-1.5784,-1.5784,-1.5784,-1.5784,-1.5784,-1.5784,-1.5784,-1.5784,-1.5784,-1.5784,-1.5784,-1.5784,-1.5784,-1.5784,-1.5784,-1.5784,-0.2373,-0.2824,-0.3528,-0.4575,-0.5146,-0.5358,-0.505,-0.4935,-0.4877,-0.4853,-0.5084,-0.5111,-0.4476,-0.546,-0.623,-0.5662,0.0,-0.7909,0.0,0.0,0.0,0.0,0.0,0.0,0.0,0.0,0.0,0.0,0.0,0.0,0.0,0.0,0.0,0.0,0.0,-0.9822,-0.9822,-0.9822,-0.9822,-0.9822,-0.9822,-0.9822,-0.9822,-0.9822,-0.9754,0.0,0.0,-0.9557,-0.9415,-0.9415,-0.9327,-0.9245,-0.9217,-0.9079,-0.8967,-0.8892,-0.8885,-0.8885,-0.8885,-0.8885,-0.8885,-0.8885,-0.8885,-0.8885,-0.8885,-0.8885,-0.8885,-0.8885,-0.8885,-0.8885,-0.8885,-0.8885,-0.8885,-0.8885,-0.8881,-0.8874,-0.8797,-0.9626,-1.0327,-1.0297,-1.1312,-1.2188,-1.2188,-1.3295,-1.4166,-1.4166,-1.5092,-1.5784,-1.5784,-1.5784,-1.5784,-1.5784,-1.5784,-1.5784,-1.5784,-1.5784,-1.5784,-1.5784,-1.5784,-1.5784,-1.5784,-1.5784,-1.5784,-1.5784,-1.5784,-1.5784,-1.5784,-1.5784,-1.5784,-1.5784,-1.5784,-1.5784,-0.1594,-0.2227,-0.2982,-0.3405,-0.3787,-0.3997,-0.3869,-0.3617,-0.3639,-0.4283,-0.4596,-0.4684,-0.4419,-0.5042,-0.54,-0.4659,0.0,0.0,0.0,0.0,0.0,0.0,0.0,0.0,0.0,0.0,0.0,0.0,0.0,0.0,0.0,0.0,0.0,0.0,0.0,0.0,-0.9707,-0.9707,-0.9744,-0.9819,-0.9744,-0.9707,-0.9703,-0.9622,-0.9547,-0.9486,0.0,-0.9398,-0.9316,-0.9316,-0.9171,-0.9035,-0.9035,-0.8998,-0.8885,-0.8885,-0.8885,-0.8885,-0.8885,-0.8885,-0.8885,-0.8885,-0.8885,-0.8885,-0.8885,-0.8885,-0.8885,-0.8885,-0.8885,-0.8885,-0.8885,-0.8885,-0.8885,-0.8885,-0.8706,-0.8482,-0.8482,-0.87,-0.892,-0.892,-0.9998,-1.0877,-1.0877,-1.1945,-1.2813,-1.2813,-1.3301,-1.3932,-1.4657,-1.4752,-1.5045,-1.573,-1.5784,-1.5784,-1.5784,-1.5784,-1.5784,-1.5784,-1.5784,-1.5784,-1.5784,-1.5784,-1.5784,-1.5784,-1.5784,-1.5784,-1.5784,-1.5784,-1.5784,-1.5784,-1.5784,-1.5784,-0.0835,-0.1528,-0.2155,-0.1959,-0.2445,-0.2934,-0.2862,-0.2577,-0.2575,-0.3521,-0.3796,-0.3849,-0.3776,-0.4008,0.0,-0.3919,0.0,0.0,0.0,0.0,0.0,0.0,0.0,0.0,0.0,0.0,0.0,0.0,0.0,0.0,0.0,0.0,0.0,0.0,0.0,0.0,-0.9015,-0.9015,-0.9248,-0.9717,-0.9608,-0.9557,-0.9551,-0.9435,-0.9361,-0.9327,-0.9327,-0.9242,-0.9103,-0.9103,-0.9039,-0.8885,-0.8885,-0.8885,-0.8885,-0.8885,-0.8885,-0.8885,-0.8885,-0.8885,-0.8885,-0.8885,-0.8885,-0.8885,-0.8885,-0.8885,-0.8885,-0.8885,-0.8885,-0.8885,-0.8885,-0.8885,-0.8875,-0.8838,-0.8679,-0.8472,-0.8438,-0.8225,-0.7988,-0.7988,-0.8825,-0.9509,-0.9509,-1.0583,-1.1463,-1.1463,-1.1702,-1.2285,-1.3295,-1.344,-1.3926,-1.5242,-1.5343,-1.5486,-1.5784,-1.5784,-1.5784,-1.5784,-1.5784,-1.5784,-1.5784,-1.5784,-1.5784,-1.5784,-1.5784,-1.5784,-1.5784,-1.5784,-1.5784,-1.5784,-1.5784,-1.5784,-0.0094,-0.0131,-0.0206,-0.0185,-0.1631,-0.3021,-0.2755,-0.2692,-0.2683,-0.2782,-0.2912,-0.2677,-0.1721,-0.1911,-0.262,-0.3979,0.0,0.0,0.0,0.0,0.0,0.0,0.0,0.0,0.0,0.0,0.0,0.0,0.0,0.0,0.0,0.0,0.0,0.0,0.0,0.0,-0.7277,-0.7277,-0.7988,-0.9412,-0.9401,-0.9398,-0.9398,-0.9388,-0.9303,-0.9224,-0.9224,-0.9086,-0.8898,-0.8898,-0.8892,-0.8885,-0.8885,-0.8885,-0.8885,-0.8885,-0.8885,-0.8885,-0.8885,-0.8885,-0.8885,-0.8885,-0.8885,-0.8885,-0.8885,-0.8885,-0.8885,-0.8885,-0.8885,-0.8885,-0.8885,-0.8885,-0.8848,-0.876,-0.8601,-0.8445,-0.8368,-0.8157,-0.7988,-0.7988,-0.8088,-0.8137,-0.8137,-0.9266,-1.0145,-1.0145,-1.1121,-1.1945,-1.2042,-1.2042,-1.2571,-1.3878,-1.4022,-1.4513,-1.5683,-1.5784,-1.5784,-1.5784,-1.5784,-1.5784,-1.5784,-1.5784,-1.5784,-1.5784,-1.5784,-1.5784,-1.5784,-1.5784,-1.5784,-1.5784,-1.5784,-1.5784,0.0,0.0,0.0,0.0,-0.0602,-0.1148,-0.1046,-0.1015,-0.1241,-0.1978,-0.2194,-0.2081,-0.17,-0.1159,-0.0948,0.0,0.0,0.0,0.0,0.0,0.0,0.0,0.0,0.0,0.0,0.0,0.0,0.0,0.0,0.0,0.0,0.0,0.0,0.0,0.0,0.0,0.0,-0.5598,-0.586,-0.6372,-0.8331,-0.9296,-0.9292,-0.9147,-0.9076,-0.9018,-0.9018,-0.8988,-0.8885,-0.8885,-0.8885,-0.8885,-0.8885,-0.8885,-0.8885,-0.8885,-0.8885,-0.8885,-0.8885,-0.8885,-0.8885,-0.8885,-0.8885,-0.8885,-0.8885,-0.8885,-0.8885,-0.8885,-0.8885,-0.8885,-0.8885,-0.8814,-0.8781,-0.8723,-0.8526,-0.8388,-0.8333,-0.815,-0.7988,-0.7988,-0.7988,-0.7988,-0.7988,-0.8432,-0.8775,-0.8775,-0.9164,-0.9752,-1.0632,-1.073,-1.1214,-1.2522,-1.3392,-1.4118,-1.4561,-1.5337,-1.5784,-1.5784,-1.5784,-1.5784,-1.5784,-1.5784,-1.5784,-1.5784,-1.5784,-1.5784,-1.5784,-1.5784,-1.5784,-1.5784,-1.5784,-1.5784,0.0,0.0,0.0,0.0,0.0,0.0,0.0,0.0,-0.0228,-0.1056,-0.1213,-0.1217,-0.1234,-0.0545,0.0,0.0,0.0,0.0,0.0,0.0,0.0,0.0,0.0,0.0,0.0,0.0,0.0,0.0,0.0,0.0,0.0,0.0,0.0,0.0,0.0,0.0,0.0,-0.3917,-0.4123,-0.4528,-0.6661,-0.7948,-0.8398,-0.8759,-0.8885,-0.8885,-0.8885,-0.8885,-0.8885,-0.8885,-0.8885,-0.8885,-0.8885,-0.8885,-0.8885,-0.8885,-0.8885,-0.8885,-0.8885,-0.8885,-0.8885,-0.8885,-0.8885,-0.8875,-0.8824,-0.8811,-0.8801,-0.8808,-0.8794,-0.8794,-0.8794,-0.8754,-0.8686,-0.8594,-0.8418,-0.8306,-0.8208,-0.8113,-0.7988,-0.7988,-0.7988,-0.7988,-0.7988,-0.7988,-0.7988,-0.7988,-0.7988,-0.8333,-0.9266,-0.9361,-0.985,-1.1165,-1.2474,-1.344,-1.3872,-1.4704,-1.5384,-1.5784,-1.5784,-1.5784,-1.5784,-1.5784,-1.5784,-1.5784,-1.5784,-1.5784,-1.5784,-1.5784,-1.5784,-1.5784,-1.5784,-1.5784,0.0,0.0,0.0,0.0,0.0,0.0,0.0,0.0,0.0,0.0,0.0,0.0,0.0,0.0,0.0,0.0,0.0,0.0,0.0,0.0,0.0,0.0,0.0,0.0,0.0,0.0,0.0,0.0,0.0,0.0,0.0,0.0,0.0,0.0,0.0,0.0,0.0,-0.218,-0.2961,-0.447,-0.447,-0.5252,-0.6702,-0.8211,-0.8881,-0.8881,-0.8881,-0.8881,-0.8885,-0.8885,-0.8885,-0.8885,-0.8885,-0.8885,-0.8885,-0.8885,-0.8885,-0.8885,-0.8885,-0.8885,-0.8885,-0.8885,-0.8881,-0.8854,-0.8757,-0.871,-0.8676,-0.8523,-0.8482,-0.8482,-0.8479,-0.8594,-0.8632,-0.834,-0.832,-0.8225,-0.8022,-0.7988,-0.7988,-0.7988,-0.7988,-0.7988,-0.7988,-0.7988,-0.7988,-0.7988,-0.7988,-0.7988,-0.7988,-0.7988,-0.8528,-0.985,-1.1116,-1.2431,-1.3776,-1.3872,-1.4459,-1.573,-1.5784,-1.5784,-1.5784,-1.5784,-1.5784,-1.5784,-1.5784,-1.5784,-1.5784,-1.5784,-1.5784,-1.5784,-1.5784,-1.5784,0.0,0.0,0.0,0.0,0.0,0.0,0.0,0.0,0.0,0.0,0.0,0.0,0.0,0.0,0.0,0.0,0.0,0.0,0.0,0.0,0.0,0.0,0.0,0.0,0.0,0.0,0.0,0.0,0.0,0.0,0.0,0.0,0.0,0.0,0.0,0.0,0.0,0.0,-0.0896,-0.1344,-0.2404,-0.3687,-0.514,-0.5586,-0.6366,-0.7371,-0.7371,-0.7931,-0.8885,-0.8885,-0.8885,-0.8885,-0.8885,-0.8885,-0.8885,-0.8885,-0.8885,-0.8885,-0.8885,-0.8885,-0.8885,-0.8885,-0.8811,-0.8771,-0.8723,-0.8635,-0.854,-0.8496,-0.8482,-0.8459,-0.836,-0.8367,-0.8381,-0.8344,-0.8187,-0.8096,-0.8002,-0.7988,-0.7988,-0.7988,-0.7988,-0.7988,-0.7988,-0.7988,-0.7988,-0.7988,-0.7988,-0.7988,-0.7988,-0.7988,-0.8137,-0.8528,-0.9752,-1.1068,-1.2377,-1.3343,-1.4459,-1.573,-1.5784,-1.5784,-1.5784,-1.5784,-1.5784,-1.5784,-1.5784,-1.5784,-1.5784,-1.5784,-1.5784,-1.5784,-1.5784,-1.5784,0.0,0.0,0.0,0.0,0.0,0.0,0.0,0.0,0.0,0.0,0.0,0.0,0.0,0.0,0.0,0.0,0.0,0.0,0.0,0.0,0.0,0.0,0.0,0.0,0.0,0.0,0.0,0.0,0.0,0.0,0.0,0.0,0.0,0.0,0.0,0.0,0.0,0.0,0.0,0.0,-0.0878,-0.181,-0.2744,-0.3944,-0.4973,-0.5808,-0.5808,-0.6342,-0.7188,-0.774,-0.7929,-0.7988,-0.8537,-0.8757,-0.8757,-0.8757,-0.8757,-0.8757,-0.8757,-0.8757,-0.8757,-0.8757,-0.8696,-0.8608,-0.8554,-0.8472,-0.8384,-0.8323,-0.8306,-0.8286,-0.8201,-0.8177,-0.8177,-0.8177,-0.8106,-0.7988,-0.7988,-0.7988,-0.7988,-0.7988,-0.7988,-0.7988,-0.7988,-0.7988,-0.7988,-0.7988,-0.7988,-0.7988,-0.7988,-0.7988,-0.7988,-0.7988,-0.8726,-0.9752,-1.1023,-1.1891,-1.2909,-1.4178,-1.4226,-1.4465,-1.4997,-1.5534,-1.5784,-1.5784,-1.5784,-1.5784,-1.5784,-1.5784,-1.5784,-1.5784,-1.5784,-1.5784,0.0,0.0,0.0,0.0,0.0,0.0,0.0,0.0,0.0,0.0,0.0,0.0,0.0,0.0,0.0,0.0,0.0,0.0,0.0,0.0,0.0,0.0,0.0,0.0,0.0,0.0,0.0,0.0,0.0,0.0,0.0,0.0,0.0,0.0,0.0,0.0,0.0,0.0,0.0,0.0,0.0,0.0,-0.0107,-0.2856,-0.4172,-0.4283,-0.445,-0.4521,-0.4619,-0.5809,-0.6292,-0.6413,-0.7685,-0.8111,-0.8161,-0.8269,-0.8321,-0.8321,-0.8482,-0.8482,-0.8482,-0.8482,-0.8472,-0.8438,-0.8361,-0.831,-0.8221,-0.8029,-0.7988,-0.7988,-0.7988,-0.7988,-0.7988,-0.7988,-0.7988,-0.7988,-0.7988,-0.7988,-0.7988,-0.7988,-0.7988,-0.7988,-0.7988,-0.7988,-0.7988,-0.7988,-0.7988,-0.7988,-0.7988,-0.7988,-0.7988,-0.7988,-0.7988,-0.8528,-0.9899,-0.9998,-1.0534,-1.1799,-1.1896,-1.2431,-1.368,-1.4949,-1.5683,-1.5784,-1.5784,-1.5784,-1.5784,-1.5784,-1.5784,-1.5784,-1.5784,-1.5784,0.0,0.0,0.0,0.0,0.0,0.0,0.0,0.0,0.0,0.0,0.0,0.0,0.0,0.0,0.0,0.0,0.0,0.0,0.0,0.0,0.0,0.0,0.0,0.0,0.0,0.0,0.0,0.0,0.0,0.0,0.0,0.0,0.0,0.0,0.0,0.0,0.0,0.0,0.0,0.0,0.0,0.0,0.0,-0.0698,-0.1615,-0.2741,-0.3972,-0.4498,-0.4535,-0.4801,-0.4951,-0.4986,-0.525,-0.5356,-0.5514,-0.6521,-0.6943,-0.71,-0.8111,-0.8482,-0.8482,-0.8482,-0.8408,-0.8364,-0.833,-0.8184,-0.8032,-0.7998,-0.7988,-0.7988,-0.7988,-0.7988,-0.7988,-0.7988,-0.7988,-0.7988,-0.7988,-0.7988,-0.7988,-0.7988,-0.7988,-0.7988,-0.7988,-0.7988,-0.7988,-0.7988,-0.7988,-0.7988,-0.7988,-0.7988,-0.7988,-0.7988,-0.7988,-0.8528,-0.9899,-0.9998,-1.0534,-1.1799,-1.1896,-1.2042,-1.2334,-1.359,-1.48,-1.5784,-1.5784,-1.5784,-1.5784,-1.5784,-1.5784,-1.5784,-1.5784,-1.5784,0.0,0.0,0.0,0.0,0.0,0.0,0.0,0.0,0.0,0.0,0.0,0.0,0.0,0.0,0.0,0.0,0.0,0.0,0.0,0.0,0.0,0.0,0.0,0.0,0.0,0.0,0.0,0.0,0.0,0.0,0.0,0.0,0.0,0.0,0.0,0.0,0.0,0.0,0.0,0.0,0.0,0.0,0.0,0.0,-0.0426,-0.1171,-0.2021,-0.2328,-0.2414,-0.3042,-0.3286,-0.3362,-0.4032,-0.424,-0.4341,-0.5062,-0.5319,-0.5422,-0.6092,-0.6351,-0.6454,-0.7078,-0.7244,-0.7342,-0.7955,-0.8102,-0.7988,-0.7988,-0.7988,-0.7988,-0.7988,-0.7988,-0.7988,-0.7988,-0.7988,-0.7988,-0.7988,-0.7988,-0.7988,-0.7988,-0.7988,-0.7988,-0.7988,-0.7988,-0.7988,-0.7988,-0.7988,-0.7988,-0.7988,-0.7988,-0.7988,-0.7988,-0.7988,-0.8283,-0.897,-0.9019,-0.9312,-0.9998,-1.0047,-1.0337,-1.0974,-1.1648,-1.2619,-1.3932,-1.4561,-1.4902,-1.4902,-1.5486,-1.5784,-1.5784,-1.5784,-1.5784,0.0,0.0,0.0,0.0,0.0,0.0,0.0,0.0,0.0,0.0,0.0,0.0,0.0,0.0,0.0,0.0,0.0,0.0,0.0,0.0,0.0,0.0,0.0,0.0,0.0,0.0,0.0,0.0,0.0,0.0,0.0,0.0,0.0,0.0,0.0,0.0,0.0,0.0,0.0,0.0,0.0,0.0,0.0,0.0,0.0,0.0,0.0,0.0,-0.0103,-0.1186,-0.1634,-0.1762,-0.2864,-0.3316,-0.3316,-0.3565,-0.3665,-0.3665,-0.3915,-0.4016,-0.4166,-0.5275,-0.5677,-0.5877,-0.698,-0.7332,-0.7381,-0.7587,-0.7637,-0.7686,-0.7939,-0.7988,-0.7988,-0.7988,-0.7988,-0.7988,-0.7988,-0.7988,-0.7988,-0.7988,-0.7988,-0.7988,-0.7988,-0.7988,-0.7988,-0.7988,-0.7988,-0.7988,-0.7988,-0.7988,-0.7988,-0.7988,-0.7988,-0.7988,-0.7988,-0.7988,-0.7988,-0.7988,-0.7988,-0.8482,-0.9608,-0.9657,-1.0145,-1.1214,-1.2764,-1.3536,-1.3536,-1.4609,-1.5146,-1.5146,-1.5146,-1.5242,0.0,0.0,0.0,0.0,0.0,0.0,0.0,0.0,0.0,0.0,0.0,0.0,0.0,0.0,0.0,0.0,0.0,0.0,0.0,0.0,0.0,0.0,0.0,0.0,0.0,0.0,0.0,0.0,0.0,0.0,0.0,0.0,0.0,0.0,0.0,0.0,0.0,0.0,0.0,0.0,0.0,0.0,0.0,0.0,0.0,0.0,0.0,0.0,0.0,-0.0203,-0.0253,-0.0303,-0.0454,-0.0555,-0.0656,-0.1862,-0.2264,-0.2414,-0.3615,-0.4016,-0.4016,-0.4216,-0.4268,-0.4316,-0.4468,-0.4516,-0.4768,-0.5927,-0.6279,-0.6531,-0.7686,-0.7988,-0.7988,-0.7988,-0.7988,-0.7988,-0.7988,-0.7988,-0.7988,-0.7988,-0.7988,-0.7988,-0.7988,-0.7988,-0.7988,-0.7988,-0.7988,-0.7988,-0.7988,-0.7988,-0.7988,-0.7988,-0.7988,-0.7988,-0.7988,-0.7988,-0.7988,-0.7988,-0.7988,-0.8088,-0.8237,-0.8283,-0.8333,-0.8531,-1.0921,-1.2188,-1.2188,-1.2334,-1.2431,-1.2431,-1.2431,-1.306,0.0,0.0,0.0,0.0,0.0,0.0,0.0,0.0,0.0,0.0,0.0,0.0,0.0,0.0,0.0,0.0,0.0,0.0,0.0,0.0,0.0,0.0,0.0,0.0,0.0,0.0,0.0,0.0,0.0,0.0,0.0,0.0,0.0,0.0,0.0,0.0,0.0,0.0,0.0,0.0,0.0,0.0,0.0,0.0,0.0,0.0,0.0,0.0,0.0,0.0,0.0,0.0,0.0,0.0,-0.005,-0.0656,-0.0857,-0.0958,-0.1561,-0.1762,-0.1862,-0.2614,-0.2864,-0.3015,-0.3765,-0.4016,-0.4116,-0.4718,-0.487,-0.502,-0.562,-0.5772,-0.5924,-0.6681,-0.6883,-0.7083,-0.7839,-0.7988,-0.7988,-0.7988,-0.7988,-0.7988,-0.7988,-0.7988,-0.7988,-0.7988,-0.7988,-0.7988,-0.7988,-0.7988,-0.7988,-0.7988,-0.7988,-0.7988,-0.7988,-0.7988,-0.7988,-0.7988,-0.7988,-0.7988,-0.7988,-0.7988,-0.7988,-0.7988,-0.985,-1.0828,-1.0828,-1.1556,-1.1896,-1.1896,-1.1896,-1.2237,0.0,0.0,0.0,0.0,0.0,0.0,0.0,0.0,0.0,0.0,0.0,0.0,0.0,0.0,0.0,0.0,0.0,0.0,0.0,0.0,0.0,0.0,0.0,0.0,0.0,0.0,0.0,0.0,0.0,0.0,0.0,0.0,0.0,0.0,0.0,0.0,0.0,0.0,0.0,0.0,0.0,0.0,0.0,0.0,0.0,0.0,0.0,0.0,0.0,0.0,0.0,0.0,0.0,0.0,0.0,0.0,0.0,0.0,0.0,0.0,-0.0151,-0.1159,-0.1511,-0.1661,-0.2665,-0.2964,-0.3065,-0.3416,-0.3515,-0.3565,-0.3915,-0.4016,-0.4318,-0.5677,-0.5979,-0.6379,-0.7686,-0.7988,-0.7988,-0.7988,-0.7988,-0.7988,-0.7988,-0.7988,-0.7988,-0.7988,-0.7988,-0.7988,-0.7988,-0.7988,-0.7988,-0.7988,-0.7988,-0.7988,-0.7988,-0.7988,-0.7988,-0.7988,-0.7988,-0.7988,-0.7988,-0.7988,-0.7988,-0.7988,-0.897,-0.9509,-0.9509,-1.0435,-1.0921,-1.0921,-1.0921,-1.1068,0.0,0.0,0.0,0.0,0.0,0.0,0.0,0.0,0.0,0.0,0.0,0.0,0.0,0.0,0.0,0.0,0.0,0.0,0.0,0.0,0.0,0.0,0.0,0.0,0.0,0.0,0.0,0.0,0.0,0.0,0.0,0.0,0.0,0.0,0.0,0.0,0.0,0.0,0.0,0.0,0.0,0.0,0.0,0.0,0.0,0.0,0.0,0.0,0.0,0.0,0.0,0.0,0.0,0.0,0.0,0.0,0.0,0.0,0.0,0.0,0.0,-0.0101,-0.0101,-0.0101,-0.0202,-0.0202,-0.0454,-0.1762,-0.2113,-0.2413,-0.3665,-0.4016,-0.4318,-0.5677,-0.5979,-0.6379,-0.7686,-0.7988,-0.7988,-0.7988,-0.7988,-0.7988,-0.7988,-0.7988,-0.7988,-0.7988,-0.7988,-0.7988,-0.7988,-0.7988,-0.7988,-0.7988,-0.7988,-0.7988,-0.7988,-0.7988,-0.7988,-0.7988,-0.7988,-0.7988,-0.7988,-0.7988,-0.7988,-0.7988,-0.8088,-0.8088,-0.8088,-0.8187,-0.8187,-0.8187,-0.8187,-0.8874,0.1186,0.1271,0.1272,0.072,0.0629,0.0591,0.0125,0.0,0.0,0.0,0.0,0.0,0.0,0.0,0.0,0.0,0.0,0.0,0.0,0.0,0.0,0.0,0.0,0.0,0.0,0.0,0.0,0.0,0.0,0.0,0.0,0.0,0.0,0.0,0.0,0.0,0.0,0.0,0.0,0.0,0.0,0.0,0.0,0.0,0.0,0.0,0.0,0.0,0.0,0.0,0.0,0.0,0.0,0.0,0.0,0.0,0.0,0.0,0.0,0.0,0.0,0.0,0.0,0.0,0.0,0.0,-0.0101,-0.0605,-0.0706,-0.0807,-0.131,-0.1411,-0.1963,-0.4168,-0.6027,-0.7434,-0.7889,-0.7988,-0.7988,-0.7988,-0.7988,-0.7988,-0.7988,-0.7988,-0.7988,-0.7988,-0.7988,-0.7988,-0.7988,-0.7988,-0.7988,-0.7988,-0.7988,-0.7988,-0.7988,-0.7988,-0.7988,-0.7988,-0.7988,-0.7988,-0.7988,-0.7988,-0.7988,-0.7988,-0.7988,-0.7988,-0.7988,-0.7988,-0.7988,-0.7988,-0.7988,-0.8237,0.1831,0.1958,0.2033,0.1568,0.1419,0.1322,0.1051,0.0,0.0,0.0,0.0,0.0,0.0,0.0,0.0,0.0,0.0,0.0,0.0,0.0,0.0,0.0,0.0,0.0,0.0,0.0,0.0,0.0,0.0,0.0,0.0,0.0,0.0,0.0,0.0,0.0,0.0,0.0,0.0,0.0,0.0,0.0,0.0,0.0,0.0,0.0,0.0,0.0,0.0,0.0,0.0,0.0,0.0,0.0,0.0,0.0,0.0,0.0,0.0,0.0,0.0,0.0,0.0,0.0,0.0,0.0,0.0,0.0,0.0,0.0,0.0,-0.0353,-0.1109,-0.2914,-0.502,-0.6778,-0.7232,-0.7686,-0.7988,-0.7988,-0.7988,-0.7988,-0.7988,-0.7988,-0.7988,-0.7988,-0.7988,-0.7988,-0.7988,-0.7988,-0.7988,-0.7988,-0.7988,-0.7988,-0.7988,-0.7988,-0.7988,-0.7988,-0.7988,-0.7988,-0.7988,-0.7988,-0.7988,-0.7988,-0.7988,-0.7988,-0.7988,-0.7988,-0.7988,-0.7988,-0.7988,-0.7988,0.0,0.0,0.0,0.2436,0.0,0.0,0.2756,0.0,0.0,0.0,0.0,0.0,0.0,0.0,0.0,0.0,0.0,0.0,0.0,0.0,0.0,0.0,0.0,0.0,0.0,0.0,0.0,0.0,0.0,0.0,0.0,0.0,0.0,0.0,0.0,0.0,0.0,0.0,0.0,0.0,0.0,0.0,0.0,0.0,0.0,0.0,0.0,0.0,0.0,0.0,0.0,0.0,0.0,0.0,0.0,0.0,0.0,0.0,0.0,0.0,0.0,0.0,0.0,0.0,0.0,0.0,0.0,0.0,0.0,0.0,0.0,-0.1008,-0.2013,-0.2013,-0.3015,-0.4368,-0.5677,-0.6983,-0.7889,-0.7988,-0.7988,-0.7988,-0.7988,-0.7988,-0.7988,-0.7988,-0.7988,-0.7988,-0.7988,-0.7988,-0.7988,-0.7988,-0.7988,-0.7988,-0.7988,-0.7988,-0.7988,-0.7988,-0.7988,-0.7988,-0.7988,-0.7988,-0.7988,-0.7988,-0.7988,-0.7988,-0.7988,-0.7988,-0.7988,-0.7988,-0.7988,-0.7988,0.3439,0.0,0.0,0.0,0.0,0.0,0.0,0.0,0.0,0.0,0.0,0.0,0.0,0.0,0.0,0.0,0.0,0.0,0.0,0.0,0.0,0.0,0.0,0.0,0.0,0.0,0.0,0.0,0.0,0.0,0.0,0.0,0.0,0.0,0.0,0.0,0.0,0.0,0.0,0.0,0.0,0.0,0.0,0.0,0.0,0.0,0.0,0.0,0.0,0.0,0.0,0.0,0.0,0.0,0.0,0.0,0.0,0.0,0.0,0.0,0.0,0.0,0.0,0.0,0.0,0.0,0.0,0.0,0.0,0.0,0.0,-0.1008,-0.2013,-0.2013,-0.3015,-0.4116,-0.4468,-0.4868,-0.567,-0.7637,-0.7988,-0.7988,-0.7988,-0.7988,-0.7988,-0.7988,-0.7988,-0.7988,-0.7988,-0.7988,-0.7988,-0.7988,-0.7988,-0.7988,-0.7988,-0.7988,-0.7988,-0.7988,-0.7988,-0.7988,-0.7988,-0.7988,-0.7988,-0.7988,-0.7988,-0.7988,-0.7988,-0.7988,-0.7988,-0.7988,-0.7988,-0.7988,0.4051,0.4192,0.4273,0.3868,0.0,0.0,0.0,0.3354,0.0,0.0,0.0,0.0,0.0,0.0,0.0,0.0,0.0,0.0,0.0,0.0,0.0,0.0,0.0,0.0,0.0,0.0,0.0,0.0,0.0,0.0,0.0,0.0,0.0,0.0,0.0,0.0,0.0,0.0,0.0,0.0,0.0,0.0,0.0,0.0,0.0,0.0,0.0,0.0,0.0,0.0,0.0,0.0,0.0,0.0,0.0,0.0,0.0,0.0,0.0,0.0,0.0,0.0,0.0,0.0,0.0,0.0,0.0,0.0,0.0,0.0,0.0,-0.0555,-0.1159,-0.1159,-0.1762,-0.2464,-0.3065,-0.3165,-0.3817,-0.5922,-0.6778,-0.7182,-0.7182,-0.7637,-0.7988,-0.7988,-0.7988,-0.7988,-0.7988,-0.7988,-0.7988,-0.7988,-0.7988,-0.7988,-0.7988,-0.7988,-0.7988,-0.7988,-0.7988,-0.7988,-0.7988,-0.7988,-0.7988,-0.7988,-0.7988,-0.7988,-0.7988,-0.7988,-0.7988,-0.7988,-0.7988,-0.7988,0.4195,0.4203,0.4375,0.4633,0.45,0.0,0.4921,0.4955,0.0,0.0,0.0,0.0,0.0,0.0,0.0,0.0,0.0,0.0,0.0,0.0,0.0,0.0,0.0,0.0,0.0,0.0,0.0,0.0,0.0,0.0,0.0,0.0,0.0,0.0,0.0,0.0,0.0,0.0,0.0,0.0,0.0,0.0,0.0,0.0,0.0,0.0,0.0,0.0,0.0,0.0,0.0,0.0,0.0,0.0,0.0,0.0,0.0,0.0,0.0,0.0,0.0,0.0,0.0,0.0,0.0,0.0,0.0,0.0,0.0,0.0,0.0,0.0,0.0,0.0,0.0,-0.0303,-0.1511,-0.1762,-0.2113,-0.3316,-0.477,-0.5777,-0.5777,-0.6781,-0.7584,-0.7736,-0.7786,-0.7839,-0.7988,-0.7988,-0.7988,-0.7988,-0.7988,-0.7988,-0.7988,-0.7988,-0.7988,-0.7988,-0.7988,-0.7988,-0.7988,-0.7988,-0.7988,-0.7988,-0.7988,-0.7988,-0.7988,-0.7988,-0.7988,-0.7988,-0.7988,-0.7988,0.4759,0.4817,0.4884,0.4735,0.0,0.0,0.4706,0.4762,0.0,0.0,0.0,0.0,0.0,0.0,0.0,0.0,0.0,0.0,0.0,0.0,0.0,0.0,0.0,0.0,0.0,0.0,0.1047,0.0095,0.0,0.0,0.0,0.0,0.0,0.0,0.0,0.0,0.0,0.0,0.0,0.0,0.0,0.0,0.0,0.0,0.0,0.0,0.0,0.0,0.0,0.0,0.0,0.0,0.0,0.0,0.0,0.0,0.0,0.0,0.0,0.0,0.0,0.0,0.0,0.0,0.0,0.0,0.0,0.0,0.0,0.0,0.0,0.0,0.0,0.0,0.0,-0.005,-0.0353,-0.0404,-0.0454,-0.0706,-0.2715,-0.4368,-0.4368,-0.4618,-0.517,-0.6229,-0.6381,-0.6781,-0.7839,-0.7988,-0.7988,-0.7988,-0.7988,-0.7988,-0.7988,-0.7988,-0.7988,-0.7988,-0.7988,-0.7988,-0.7988,-0.7988,-0.7988,-0.7988,-0.7988,-0.7988,-0.7988,-0.7988,-0.7988,-0.7988,-0.7988,-0.7988,0.4968,0.4938,0.4975,0.4931,0.0,0.0,0.0,0.0,0.4735,0.0,0.0,0.0,0.0,0.0,0.0,0.0,0.0,0.0,0.0,0.0,0.0,0.0,0.0,0.0,0.0,0.0,0.2327,0.1844,0.1247,0.1155,0.1753,0.0647,0.0279,0.0891,0.0329,0.0,0.0,0.0,0.0,0.0,0.0,0.0,0.0,0.0,0.0,0.0,0.0,0.0,0.0,0.0,0.0,0.0,0.0,0.0,0.0,0.0,0.0,0.0,0.0,0.0,0.0,0.0,0.0,0.0,0.0,0.0,0.0,0.0,0.0,0.0,0.0,0.0,0.0,0.0,0.0,0.0,0.0,0.0,0.0,0.0,-0.1109,-0.2213,-0.2864,-0.3565,-0.4218,-0.492,-0.502,-0.5222,-0.5922,-0.6578,-0.6983,-0.6983,-0.7587,-0.7988,-0.7988,-0.7988,-0.7988,-0.7988,-0.7988,-0.7988,-0.7988,-0.7988,-0.7988,-0.7988,-0.7988,-0.7988,-0.7988,-0.7988,-0.7988,-0.7988,-0.7988,-0.7988,0.0,0.0,0.0,0.0,0.0,0.4928,0.0,0.0,0.0,0.4792,0.0,0.0,0.0,0.0,0.0,0.0,0.0,0.0,0.0,0.0,0.0,0.0,0.0,0.0,0.0,0.0,0.3264,0.3478,0.2541,0.2412,0.3503,0.1691,0.108,0.2109,0.1193,0.0694,0.0706,0.0706,0.0565,0.033,0.0567,0.0426,0.0,0.0242,0.0196,0.0,0.0,0.0,0.0,0.0,0.0,0.0,0.0,0.0,0.0,0.0,0.0,0.0,0.0,0.0,0.0,0.0,0.0,0.0,0.0,0.0,0.0,0.0,0.0,0.0,0.0,0.0,0.0,0.0,0.0,0.0,0.0,0.0,0.0,0.0,0.0,-0.0353,-0.1411,-0.2514,-0.3316,-0.3565,-0.3615,-0.3715,-0.3966,-0.492,-0.5627,-0.5627,-0.6578,-0.7332,-0.7587,-0.7637,-0.7736,-0.7988,-0.7988,-0.7988,-0.7988,-0.7988,-0.7988,-0.7988,-0.7988,-0.7988,-0.7988,-0.7988,-0.7988,-0.7988,-0.7988,-0.7988,0.0,0.0,0.0,0.0,0.5474,0.0,0.0,0.0,0.4799,0.459,0.0,0.0,0.0,0.0,0.0,0.0,0.0,0.0,0.0,0.0,0.0,0.0,0.0,0.0,0.0,0.0,0.0,0.3154,0.2807,0.2818,0.3293,0.3086,0.3072,0.3403,0.327,0.3184,0.3192,0.3192,0.2654,0.1623,0.2659,0.2082,0.0046,0.1089,0.1013,0.0,0.0,0.0,0.0,0.0,0.0,0.0,0.0,0.0,0.0,0.0,0.0,0.0,0.0,0.0,0.0,0.0,0.0,0.0,0.0,0.0,0.0,0.0,0.0,0.0,0.0,0.0,0.0,0.0,0.0,0.0,0.0,0.0,0.0,0.0,0.0,-0.0051,-0.0202,-0.0353,-0.0857,-0.2063,-0.2213,-0.2665,-0.3865,-0.4116,-0.4218,-0.4218,-0.4368,-0.492,-0.6129,-0.6232,-0.6734,-0.7939,-0.7988,-0.7988,-0.7988,-0.7988,-0.7988,-0.7988,-0.7988,-0.7988,-0.7988,-0.7988,-0.7988,-0.7988,-0.7988,-0.7988,0.0,0.0,0.0,0.0,0.0,0.0,0.4867,0.0,0.4667,0.0,0.0,0.0,0.0,0.0,0.0,0.0,0.0,0.0,0.0,0.0,0.0,0.0,0.0,0.0,0.0,0.0,0.0,0.0,0.0,0.4141,0.5108,0.4012,0.3693,0.4467,0.3901,0.3614,0.3614,0.3614,0.3349,0.286,0.3377,0.3076,0.2085,0.259,0.2579,0.2082,0.2107,0.2141,0.2229,0.2229,0.1795,0.1159,0.1159,0.0706,0.0,0.0,0.0,0.0,0.0,0.0,0.0,0.0,0.0,0.0,0.0,0.0,0.0,0.0,0.0,0.0,0.0,0.0,0.0,0.0,0.0,0.0,0.0,0.0,0.0,0.0,0.0,0.0,0.0,0.0,-0.0202,-0.0756,-0.0857,-0.1058,-0.1611,-0.2363,-0.2815,-0.2815,-0.3516,-0.4218,-0.477,-0.482,-0.507,-0.5622,-0.6429,-0.6833,-0.6833,-0.7587,-0.7988,-0.7988,-0.7988,-0.7988,-0.7988,-0.7988,-0.7988,-0.7988,-0.7988,-0.7988,0.618,0.0,0.0,0.0,0.0,0.0,0.0,0.0,0.0,0.0,0.0,0.0,0.0,0.0,0.0,0.4559,0.0,0.0,0.0,0.0,0.0,0.0,0.0,0.0,0.0,0.0,0.0,0.0,0.0,0.0,0.6396,0.5036,0.4657,0.5575,0.4941,0.455,0.455,0.455,0.4417,0.4105,0.4417,0.4239,0.3616,0.3944,0.3893,0.3593,0.3602,0.3665,0.3733,0.3733,0.3237,0.2496,0.2496,0.1904,0.1008,0.0252,0.0,0.0,0.0,0.0,0.0,0.0,0.0,0.0,0.0,0.0,0.0,0.0,0.0,0.0,0.0,0.0,0.0,0.0,0.0,0.0,0.0,0.0,0.0,0.0,0.0,0.0,0.0,0.0,0.0,0.0,0.0,0.0,0.0,-0.0857,-0.146,-0.146,-0.2314,-0.3065,-0.3416,-0.3465,-0.3615,-0.3966,-0.492,-0.5475,-0.5475,-0.6731,-0.7434,-0.7434,-0.7789,-0.7988,-0.7988,-0.7988,-0.7988,-0.7988,-0.7988,-0.7988,0.0,0.0,0.0,0.5893,0.0,0.0,0.0,0.0,0.4999,0.0,0.0,0.0,0.0,0.0,0.4857,0.4707,0.4687,0.0,0.0,0.0,0.0,0.0,0.0,0.0,0.0,0.0,0.0,0.0,0.0,0.0,0.6269,0.6367,0.6538,0.6833,0.6933,0.7007,0.7007,0.7007,0.6425,0.5359,0.647,0.5797,0.3659,0.4823,0.4698,0.359,0.3593,0.359,0.361,0.361,0.3654,0.3718,0.3718,0.3806,0.3565,0.0958,0.0,0.0,0.0,0.0,0.0,0.0,0.0,0.0,0.0,0.0,0.0,0.0,0.0,0.0,0.0,0.0,0.0,0.0,0.0,0.0,0.0,0.0,0.0,0.0,0.0,0.0,0.0,0.0,0.0,0.0,0.0,0.0,0.0,-0.0051,-0.005,-0.005,-0.0101,-0.0656,-0.1962,-0.2063,-0.2614,-0.3915,-0.4016,-0.4066,-0.4066,-0.5372,-0.6079,-0.6079,-0.7335,-0.7988,-0.7988,-0.7988,-0.7988,-0.7988,-0.7988,-0.7988,0.0,0.0,0.9266,0.7464,0.0,0.0,0.0,0.0,0.0,0.0,0.0,0.0,0.0,0.4887,0.4867,0.4714,0.4691,0.4568,0.0,0.0,0.0,0.0,0.0,0.0,0.0,0.0,0.0,0.526,0.5157,0.0,0.0,0.6184,0.6463,0.662,0.6868,0.7001,0.7095,0.7095,0.6918,0.6517,0.6918,0.6694,0.5933,0.6337,0.6317,0.5905,0.5905,0.5977,0.6091,0.6091,0.5694,0.4986,0.51,0.4608,0.3754,0.2952,0.2063,0.1209,0.0303,0.0,0.0,0.0,0.0,0.0,0.0,0.0,0.0,0.0,0.0,0.0,0.0,0.0,0.0,0.0,0.0,0.0,0.0,0.0,0.0,0.0,0.0,0.0,0.0,0.0,0.0,0.0,0.0,0.0,0.0,0.0,0.0,0.0,0.0,-0.0202,-0.0656,-0.0656,-0.0857,-0.131,-0.2163,-0.2665,-0.2665,-0.3967,-0.467,-0.467,-0.512,-0.537,-0.537,-0.537,-0.5824,-0.6681,-0.6681,-0.7132,1.0377,1.0625,0.0,0.0,0.8373,0.0,0.6097,0.0,0.0,0.0,0.0,0.0,0.0,0.0,0.5102,0.5502,0.5085,0.4572,0.0,0.0,0.0,0.0,0.0,0.0,0.0,0.0,0.4657,0.4952,0.4941,0.5131,0.0,0.0,0.6286,0.6433,0.6742,0.693,0.7021,0.7071,0.7095,0.7095,0.7095,0.7095,0.7095,0.7095,0.7095,0.7095,0.7095,0.7152,0.7288,0.7288,0.6868,0.6252,0.6379,0.5922,0.5138,0.4288,0.3465,0.2564,0.1712,0.1411,0.1411,0.1411,0.1109,0.0706,0.0706,0.0353,0.0,0.0,0.0,0.0,0.0,0.0,0.0,0.0,0.0,0.0,0.0,0.0,0.0,0.0,0.0,0.0,0.0,0.0,0.0,0.0,0.0,0.0,0.0,0.0,0.0,0.0,0.0,0.0,0.0,0.0,0.0,0.0,-0.0807,-0.131,-0.131,-0.2564,-0.3265,-0.3265,-0.3765,-0.4016,-0.4016,-0.4016,-0.4468,-0.5275,-0.5275,-0.5774]}]]